[[{"header":{"parameterUnit":"m.s-1","parameterCategory":1,"la1":30.6,"la2":28.766,"lo1":-90.7593,"lo2":-88.6598,"dx":0.0162,"dy":0.0183,"nx":116,"ny":114,"refTime":"2022-11-08T06:00:00:Z","depth":0,"parameterNumber":2,"parameterNumberName":"U-component_of_WINDS"},"data":[0.0,0.0,0.0,0.0,0.0,0.0,0.0,0.0,0.0,0.0,0.0,0.0,0.0,0.0,0.0,0.0,0.0,0.0,0.0,0.0,0.0,0.0,0.0,0.0,0.0,0.0,0.0,0.0,0.0,0.0,0.0,0.0,0.0,0.0,0.0,0.0,0.0,0.0,0.0,0.0,0.0,0.0,0.0,0.0,0.0,0.0,0.0,0.0,0.0,0.0,0.0,0.0,0.0,0.0,0.0,0.0,0.0,0.0,0.0,0.0,0.0,0.0,0.0,0.0,0.0,0.0,0.0,0.0,0.0,0.0,0.0,0.0,0.0,0.0,0.0,0.0,0.0,0.0,0.0,0.0,0.0,0.0,0.0,0.0,0.0,0.0,0.0,0.0,0.0,0.0,0.0,0.0,0.0,0.0,0.0,0.0,0.0,0.0,0.0,0.0,0.0,0.0,0.0,0.0,0.0,0.0,0.0,0.0,0.0,0.0,0.0,0.0,0.0,0.0,0.0,0.0,0.0,0.0,0.0,0.0,0.0,0.0,0.0,0.0,0.0,0.0,0.0,0.0,0.0,0.0,0.0,0.0,0.0,0.0,0.0,0.0,0.0,0.0,0.0,0.0,0.0,0.0,0.0,0.0,0.0,0.0,0.0,0.0,0.0,0.0,0.0,0.0,0.0,0.0,0.0,0.0,0.0,0.0,0.0,0.0,0.0,0.0,0.0,0.0,0.0,0.0,0.0,0.0,0.0,0.0,0.0,0.0,0.0,0.0,0.0,0.0,0.0,0.0,0.0,0.0,0.0,0.0,0.0,0.0,0.0,0.0,0.0,0.0,0.0,0.0,0.0,0.0,0.0,0.0,0.0,0.0,0.0,0.0,0.0,0.0,0.0,0.0,0.0,0.0,0.0,0.0,0.0,0.0,0.0,0.0,0.0,0.0,0.0,0.0,0.0,0.0,0.0,0.0,0.0,0.0,0.0,0.0,0.0,0.0,0.0,0.0,0.0,0.0,0.0,0.0,0.0,0.0,0.0,0.0,0.0,0.0,0.0,0.0,0.0,0.0,0.0,0.0,0.0,0.0,0.0,0.0,0.0,0.0,0.0,0.0,0.0,0.0,0.0,0.0,0.0,0.0,0.0,0.0,0.0,0.0,0.0,0.0,0.0,0.0,0.0,0.0,0.0,0.0,0.0,0.0,0.0,0.0,0.0,0.0,0.0,0.0,0.0,0.0,0.0,0.0,0.0,0.0,0.0,0.0,0.0,0.0,0.0,0.0,0.0,0.0,0.0,0.0,0.0,0.0,0.0,0.0,0.0,0.0,0.0,0.0,0.0,0.0,0.0,0.0,0.0,0.0,0.0,0.0,0.0,0.0,0.0,0.0,0.0,0.0,0.0,0.0,0.0,0.0,0.0,0.0,0.0,0.0,0.0,0.0,0.0,0.0,0.0,0.0,0.0,0.0,0.0,0.0,0.0,0.0,0.0,0.0,0.0,0.0,0.0,0.0,0.0,0.0,0.0,0.0,0.0,0.0,0.0,0.0,0.0,0.0,0.0,0.0,0.0,0.0,0.0,0.0,0.0,0.0,0.0,0.0,0.0,0.0,0.0,0.0,0.0,0.0,0.0,0.0,0.0,0.0,0.0,0.0,0.0,0.0,0.0,0.0,0.0,0.0,0.0,0.0,0.0,0.0,0.0,0.0,0.0,0.0,0.0,0.0,0.0,0.0,0.0,0.0,0.0,0.0,0.0,0.0,0.0,0.0,0.0,0.0,0.0,0.0,0.0,0.0,0.0,0.0,0.0,0.0,0.0,0.0,0.0,0.0,0.0,0.0,0.0,0.0,0.0,0.0,0.0,0.0,0.0,0.0,0.0,0.0,0.0,0.0,0.0,0.0,0.0,0.0,0.0,0.0,0.0,0.0,0.0,0.0,0.0,0.0,0.0,0.0,0.0,0.0,0.0,0.0,0.0,0.0,0.0,0.0,0.0,0.0,0.0,0.0,0.0,0.0,0.0,0.0,0.0,0.0,0.0,0.0,0.0,0.0,0.0,0.0,0.0,0.0,0.0,0.0,0.0,0.0,0.0,0.0,0.0,0.0,0.0,0.0,0.0,0.0,0.0,0.0,0.0,0.0,0.0,0.0,0.0,0.0,0.0,0.0,0.0,0.0,0.0,0.0,0.0,0.0,0.0,0.0,0.0,0.0,0.0,0.0,0.0,0.0,0.0,0.0,0.0,0.0,0.0,0.0,0.0,0.0,0.0,0.0,0.0,0.0,0.0,0.0,0.0,0.0,0.0,0.0,0.0,0.0,0.0,0.0,0.0,0.0,0.0,0.0,0.0,0.0,0.0,0.0,0.0,0.0,0.0,0.0,0.0,0.0,0.0,0.0,0.0,0.0,0.0,0.0,0.0,0.0,0.0,0.0,0.0,0.0,0.0,0.0,0.0,0.0,0.0,0.0,0.0,0.0,0.0,0.0,0.0,0.0,0.0,0.0,0.0,0.0,0.0,0.0,0.0,0.0,0.0,0.0,0.0,0.0,0.0,0.0,0.0,0.0,0.0,0.0,0.0,0.0,0.0,0.0,0.0,0.0,0.0,0.0,0.0,0.0,0.0,0.0,0.0,0.0,0.0,0.0,0.0,0.0,0.0,0.0,0.0,0.0,0.0,0.0,0.0,0.0,0.0,0.0,0.0,0.0,0.0,0.0,0.0,0.0,0.0,0.0,0.0,0.0,0.0,0.0,0.0,0.0,0.0,0.0,0.0,0.0,0.0,0.0,0.0,0.0,0.0,0.0,0.0,0.0,0.0,0.0,0.0,0.0,0.0,0.0,0.0,0.0,0.0,0.0,0.0,0.0,0.0,0.0,0.0,0.0,0.0,0.0,0.0,0.0,0.0,0.0,0.0,0.0,0.0,0.0,0.0,0.0,0.0,0.0,0.0,0.0,0.0,0.0,0.0,0.0,0.0,0.0,0.0,0.0,0.0,0.0,0.0,0.0,0.0,0.0,0.0,0.0,0.0,0.0,0.0,0.0,0.0,0.0,0.0,0.0,0.0,0.0,0.0,0.0,0.0,0.0,0.0,0.0,0.0,0.0,0.0,0.0,0.0,0.0,0.0,0.0,0.0,0.0,0.0,0.0,0.0,0.0,0.0,0.0,0.0,0.0,0.0,0.0,0.0,0.0,0.0,0.0,0.0,0.0,0.0,0.0,0.0,0.0,0.0,0.0,0.0,0.0,0.0,0.0,0.0,0.0,0.0,0.0,0.0,0.0,0.0,0.0,0.0,0.0,0.0,0.0,0.0,0.0,0.0,0.0,0.0,0.0,0.0,0.0,0.0,0.0,0.0,0.0,0.0,0.0,0.0,0.0,0.0,0.0,0.0,0.0,0.0,0.0,0.0,0.0,0.0,0.0,0.0,0.0,0.0,0.0,0.0,0.0,0.0,0.0,0.0,0.0,0.0,0.0,0.0,0.0,0.0,0.0,0.0,0.0,0.0,0.0,0.0,0.0,0.0,0.0,0.0,0.0,0.0,0.0,0.0,0.0,0.0,0.0,0.0,0.0,0.0,0.0,0.0,0.0,0.0,0.0,0.0,0.0,0.0,0.0,0.0,0.0,0.0,0.0,0.0,0.0,0.0,0.0,0.0,0.0,0.0,0.0,0.0,0.0,0.0,0.0,0.0,0.0,0.0,0.0,0.0,0.0,0.0,0.0,0.0,0.0,0.0,0.0,0.0,0.0,0.0,0.0,0.0,0.0,0.0,0.0,0.0,0.0,0.0,0.0,0.0,0.0,0.0,0.0,0.0,0.0,0.0,0.0,0.0,0.0,0.0,0.0,0.0,0.0,0.0,0.0,0.0,0.0,0.0,0.0,0.0,0.0,0.0,0.0,0.0,0.0,0.0,0.0,0.0,0.0,0.0,0.0,0.0,0.0,0.0,0.0,0.0,0.0,0.0,0.0,0.0,0.0,0.0,0.0,0.0,0.0,0.0,0.0,0.0,0.0,0.0,0.0,0.0,0.0,0.0,0.0,0.0,0.0,0.0,0.0,0.0,0.0,0.0,0.0,0.0,0.0,0.0,0.0,0.0,0.0,0.0,0.0,0.0,0.0,0.0,0.0,0.0,0.0,0.0,0.0,0.0,0.0,0.0,0.0,0.0,0.0,0.0,0.0,0.0,0.0,0.0,0.0,0.0,0.0,0.0,0.0,0.0,0.0,0.0,0.0,0.0,0.0,0.0,0.0,0.0,0.0,0.0,0.0,0.0,0.0,0.0,0.0,0.0,0.0,0.0,0.0,0.0,0.0,0.0,0.0,0.0,0.0,0.0,0.0,0.0,0.0,0.0,0.0,0.0,0.0,0.0,0.0,0.0,0.0,0.0,0.0,0.0,0.0,0.0,0.0,0.0,0.0,0.0,0.0,0.0,0.0,0.0,0.0,0.0,0.0,0.0,0.0,0.0,0.0,0.0,0.0,0.0,0.0,0.0,0.0,0.0,0.0,0.0,0.0,0.0,0.0,0.0,0.0,0.0,0.0,0.0,0.0,0.0,0.0,0.0,0.0,0.0,0.0,0.0,0.0,0.0,0.0,0.0,0.0,0.0,0.0,0.0,0.0,0.0,0.0,0.0,0.0,0.0,0.0,0.0,0.0,0.0,0.0,0.0,0.0,0.0,0.0,0.0,0.0,0.0,0.0,0.0,0.0,0.0,0.0,0.0,0.0,0.0,0.0,0.0,0.0,0.0,0.0,0.0,0.0,0.0,0.0,0.0,0.0,0.0,0.0,0.0,0.0,0.0,0.0,0.0,0.0,0.0,0.0,0.0,0.0,0.0,0.0,0.0,0.0,0.0,0.0,0.0,0.0,0.0,0.0,0.0,0.0,0.0,0.0,0.0,0.0,0.0,0.0,0.0,0.0,0.0,0.0,0.0,0.0,0.0,0.0,0.0,0.0,0.0,0.0,0.0,0.0,0.0,0.0,0.0,0.0,0.0,0.0,0.0,0.0,0.0,0.0,0.0,0.0,0.0,0.0,0.0,0.0,0.0,0.0,0.0,0.0,0.0,0.0,0.0,0.0,0.0,0.0,0.0,0.0,0.0,0.0,0.0,0.0,0.0,0.0,0.0,0.0,0.0,0.0,0.0,0.0,0.0,0.0,0.0,0.0,0.0,0.0,0.0,0.0,0.0,0.0,0.0,0.0,0.0,0.0,0.0,0.0,0.0,0.0,0.0,0.0,0.0,0.0,0.0,0.0,0.0,0.0,0.0,0.0,0.0,0.0,0.0,0.0,0.0,0.0,0.0,0.0,0.0,0.0,0.0,0.0,0.0,0.0,0.0,0.0,0.0,0.0,0.0,0.0,0.0,0.0,0.0,0.0,0.0,0.0,0.0,0.0,0.0,0.0,0.0,0.0,0.0,0.0,0.0,0.0,0.0,0.0,0.0,0.0,0.0,0.0,0.0,0.0,0.0,0.0,0.0,0.0,0.0,0.0,0.0,0.0,0.0,0.0,0.0,0.0,0.0,0.0,0.0,0.0,0.0,0.0,0.0,0.0,0.0,0.0,0.0,0.0,0.0,0.0,0.0,0.0,0.0,0.0,0.0,0.0,0.0,0.0,0.0,0.0,0.0,0.0,0.0,0.0,0.0,0.0,0.0,0.0,0.0,0.0,0.0,0.0,0.0,0.0,0.0,0.0,0.0,0.0,0.0,0.0,0.0,0.0,0.0,0.0,0.0,0.0,0.0,0.0,0.0,0.0,0.0,0.0,0.0,0.0,0.0,0.0,0.0,0.0,0.0,0.0,0.0,0.0,0.0,0.0,0.0,0.0,0.0,0.0,0.0,0.0,0.0,0.0,0.0,0.0,0.0,0.0,0.0,0.0,0.0,0.0,0.0,0.0,0.0,0.0,0.0,0.0,0.0,0.0,0.0,0.0,0.0,0.0,0.0,0.0,0.0,0.0,0.0,0.0,0.0,0.0,0.0,0.0,0.0,0.0,0.0,0.0,0.0,0.0,0.0,0.0,0.0,0.0,0.0,0.0,0.0,0.0,0.0,0.0,0.0,0.0,0.0,0.0,0.0,0.0,0.0,0.0,0.0,0.0,5.6659,5.1233,0.0,0.0,0.0,0.0,0.0,0.0,0.0,0.0,0.0,0.0,0.0,0.0,0.0,0.0,0.0,0.0,0.0,0.0,0.0,0.0,0.0,0.0,0.0,2.9297,2.9726,3.0156,3.0547,0.0,0.0,0.0,0.0,0.0,0.0,0.0,3.0859,3.207,3.3555,3.5273,3.7383,4.0625,4.4844,4.2109,4.0664,4.0234,0.0,0.0,0.0,0.0,0.0,0.0,0.0,0.0,0.0,0.0,0.0,0.0,0.0,0.0,0.0,0.0,0.0,0.0,0.0,0.0,0.0,0.0,0.0,0.0,0.0,0.0,0.0,0.0,0.0,0.0,0.0,0.0,0.0,0.0,0.0,0.0,0.0,0.0,0.0,0.0,0.0,0.0,0.0,0.0,0.0,0.0,0.0,0.0,0.0,0.0,0.0,0.0,0.0,0.0,0.0,0.0,0.0,0.0,0.0,0.0,0.0,0.0,0.0,0.0,0.0,0.0,0.0,0.0,0.0,0.0,5.9258,5.6659,0.0,0.0,0.0,0.0,0.0,0.0,0.0,0.0,0.0,0.0,0.0,0.0,0.0,0.0,0.0,0.0,0.0,0.0,0.0,0.0,0.0,2.9141,3.0156,3.1055,3.1836,3.2578,3.3398,3.3789,3.3633,3.3008,0.0,0.0,0.0,3.2695,3.2851,3.4531,3.6367,3.8437,4.2617,4.6484,5.0039,5.0312,4.9336,4.707,4.3047,0.0,0.0,0.0,0.0,0.0,0.0,0.0,0.0,0.0,0.0,0.0,0.0,0.0,0.0,0.0,0.0,0.0,0.0,0.0,0.0,0.0,0.0,0.0,0.0,0.0,0.0,0.0,0.0,0.0,0.0,0.0,0.0,0.0,0.0,0.0,0.0,0.0,0.0,0.0,0.0,0.0,0.0,0.0,0.0,0.0,0.0,0.0,0.0,0.0,0.0,0.0,0.0,0.0,0.0,0.0,0.0,0.0,0.0,0.0,0.0,0.0,0.0,0.0,6.1847,6.2153,6.3023,6.3169,6.3332,6.3399,6.2059,6.2683,6.4116,5.8092,0.0,0.0,0.0,0.0,0.0,0.0,0.0,0.0,0.0,0.0,0.0,0.0,0.0,0.0,0.0,0.0,0.0,0.0,0.0,3.1172,3.2734,3.3672,3.4258,3.4375,3.5156,3.5351,3.457,3.4414,3.4023,3.3281,3.3984,3.4726,3.5469,3.7187,3.9648,4.2851,5.0078,5.3906,5.4492,5.6015,5.6523,5.5937,4.9453,4.5664,4.4101,0.0,0.0,0.0,0.0,0.0,0.0,0.0,0.0,0.0,0.0,0.0,0.0,0.0,0.0,0.0,0.0,0.0,0.0,0.0,0.0,0.0,0.0,0.0,0.0,0.0,0.0,0.0,0.0,0.0,0.0,0.0,0.0,0.0,0.0,0.0,0.0,0.0,0.0,0.0,0.0,0.0,4.7884,5.189,0.0,0.0,0.0,0.0,0.0,0.0,0.0,0.0,0.0,0.0,0.0,0.0,0.0,5.9958,6.2605,6.4134,6.5733,6.7407,6.9498,7.0975,7.1849,7.2542,7.3301,7.3829,7.076,0.0,6.4624,6.5103,0.0,0.0,0.0,0.0,0.0,0.0,0.0,0.0,0.0,0.0,0.0,0.0,0.0,0.0,0.0,0.0,0.0,0.0,0.0,0.0,0.0,3.6953,3.8711,3.9687,4.1016,4.1211,3.9844,3.9297,3.8203,3.6406,3.7148,3.7812,3.8164,4.082,4.5078,5.0937,5.4844,5.7734,5.9648,6.039,6.0508,5.9922,5.7383,5.3398,4.8594,4.8711,0.0,0.0,0.0,0.0,0.0,0.0,0.0,0.0,0.0,0.0,0.0,0.0,0.0,0.0,0.0,0.0,0.0,0.0,0.0,0.0,0.0,0.0,0.0,0.0,0.0,0.0,0.0,0.0,0.0,0.0,0.0,0.0,0.0,0.0,0.0,0.0,0.0,0.0,0.0,4.7155,5.0926,5.4188,5.3966,5.2998,0.0,0.0,0.0,0.0,0.0,0.0,0.0,0.0,0.0,6.3638,6.3794,6.5465,6.8998,7.0266,7.1448,7.2685,7.379,7.456,7.4928,7.5264,7.5649,7.5918,7.4427,7.2993,7.1531,6.8932,6.7697,6.7253,0.0,0.0,0.0,0.0,6.2012,6.2247,0.0,0.0,0.0,0.0,0.0,0.0,0.0,0.0,0.0,0.0,0.0,0.0,3.75,4.0547,4.3086,4.457,4.6094,4.6133,4.4141,4.3437,4.1914,3.9375,4.0078,4.0547,4.0547,4.4766,5.0234,5.6914,5.8672,6.0859,6.3359,6.3789,6.3633,6.3047,6.3711,6.0039,5.3437,5.3867,5.1445,4.7266,0.0,0.0,0.0,0.0,0.0,0.0,0.0,0.0,0.0,0.0,0.0,0.0,0.0,0.0,0.0,0.0,0.0,0.0,0.0,0.0,0.0,0.0,0.0,0.0,0.0,0.0,0.0,0.0,0.0,0.0,0.0,0.0,0.0,0.0,0.0,0.0,0.0,5.1506,5.4633,5.7596,5.8182,5.7834,0.0,0.0,0.0,0.0,0.0,0.0,6.2329,6.2605,6.4803,6.9229,6.9145,7.0815,7.4417,7.4907,7.5562,7.6409,7.6678,7.6919,7.7169,7.7323,7.7361,7.7361,7.7323,7.7669,7.7891,7.2784,7.1065,7.1526,7.0431,6.9129,6.7884,6.8077,6.8179,6.8339,0.0,0.0,0.0,0.0,0.0,0.0,0.0,0.0,0.0,0.0,0.0,3.9336,4.1797,4.4453,4.6406,4.7305,4.8242,4.7695,4.5117,4.4883,4.3711,4.1172,4.1836,4.2266,4.2266,4.8867,5.4141,5.7812,6.1953,6.4062,6.4258,6.5937,6.668,6.664,6.668,6.375,5.875,5.7969,5.6055,5.3203,4.9141,0.0,0.0,0.0,0.0,0.0,0.0,0.0,0.0,0.0,0.0,0.0,0.0,0.0,0.0,0.0,0.0,0.0,0.0,0.0,0.0,0.0,0.0,0.0,0.0,0.0,0.0,0.0,0.0,0.0,0.0,0.0,0.0,0.0,0.0,0.0,0.0,0.0,0.0,6.3641,6.4869,0.0,0.0,0.0,0.0,6.0545,6.1387,6.3368,6.6586,6.7573,7.0326,7.5386,7.4742,7.5215,7.7083,7.6544,7.6639,7.7539,7.8569,7.9485,8.0292,8.0862,8.1131,8.1093,8.0939,8.0862,8.0708,7.7968,7.689,7.6775,7.5062,7.3841,7.3226,7.3986,7.4255,7.4639,0.0,0.0,0.0,2.6523,2.7266,2.832,2.9766,3.1406,3.3242,3.5273,3.875,4.1601,4.3086,4.7539,5.0781,5.1641,5.3047,5.2969,5.0937,4.9258,4.7187,4.4609,4.4766,4.6719,5.0625,5.5273,5.9375,6.2851,6.5508,6.7109,6.7656,6.8828,6.9062,6.8515,6.9101,6.8047,6.5703,6.3711,6.0703,5.7226,5.5664,5.2226,0.0,0.0,0.0,0.0,0.0,0.0,0.0,0.0,0.0,0.0,0.0,0.0,0.0,0.0,0.0,0.0,0.0,0.0,0.0,0.0,0.0,0.0,0.0,0.0,0.0,0.0,0.0,0.0,0.0,0.0,0.0,0.0,0.0,0.0,0.0,0.0,0.0,6.2669,6.4703,0.0,6.5103,6.5705,6.6026,6.5701,6.851,7.0975,7.2745,7.3226,7.4562,7.6948,7.7391,7.79,7.8523,7.9931,8.0779,8.1087,8.2034,8.2658,8.297,8.3165,8.3174,8.3022,8.2945,8.283,8.2682,8.233,8.1208,7.9669,7.9054,7.8639,7.8408,7.8715,7.8823,7.9015,0.0,0.0,0.0,2.7422,2.8164,2.9219,3.0664,3.2578,3.4766,3.7422,4.1211,4.4609,4.6914,5.1289,5.4492,5.5664,5.6797,5.6484,5.4141,5.2422,5.0195,4.7305,4.8008,5.1289,5.7344,5.9961,6.3125,6.6914,6.8633,6.9922,7.0781,7.164,7.1562,7.0742,7.1328,7.1133,7.0195,6.8164,6.5195,6.1719,6.0508,5.6601,5.1328,0.0,0.0,0.0,0.0,0.0,0.0,0.0,0.0,0.0,0.0,0.0,0.0,0.0,0.0,0.0,0.0,0.0,0.0,0.0,0.0,0.0,0.0,0.0,0.0,0.0,0.0,0.0,0.0,0.0,0.0,0.0,0.0,0.0,0.0,5.8967,6.229,6.4024,6.6451,6.8042,6.7983,6.9536,7.0525,7.0536,7.3465,7.5754,7.6899,7.716,7.7961,7.9369,8.0086,8.0609,8.094,8.294,8.4104,8.4375,8.5351,8.5937,8.6211,8.6133,8.6012,8.5824,8.5775,8.5599,8.5445,8.6055,8.5247,8.3599,8.3016,8.2785,8.2785,8.2785,8.2785,8.2862,0.0,0.0,2.8359,2.8359,2.9062,2.9922,3.0859,3.3125,3.6289,4.0664,4.4219,4.8281,5.3398,5.5547,5.7305,5.9023,5.918,5.7734,5.4336,5.4062,5.2578,4.9258,5.1601,5.5742,6.168,6.2734,6.5351,6.9609,7.1289,7.25,7.3359,7.4219,7.414,7.3359,7.332,7.2812,7.1992,7.1094,6.9297,6.6719,6.3281,5.9844,5.6406,0.0,0.0,0.0,0.0,0.0,0.0,0.0,0.0,0.0,0.0,0.0,0.0,0.0,0.0,0.0,0.0,0.0,0.0,0.0,0.0,0.0,0.0,0.0,0.0,0.0,0.0,0.0,0.0,0.0,0.0,0.0,0.0,0.0,5.9617,6.3347,6.665,6.8317,7.0744,7.2916,7.4549,7.4742,7.4802,7.4832,7.5822,7.7189,7.8931,7.9191,8.0493,8.3007,8.3125,8.3554,8.4414,8.5508,8.6406,8.7187,8.8242,8.9179,9.0,8.9804,8.9726,8.9685,8.9476,8.9228,8.8969,8.9008,8.8936,8.8563,8.6829,8.617,8.617,8.617,8.617,8.617,2.9726,2.9414,2.9258,2.9258,2.9961,3.1016,3.25,3.4375,3.7187,4.1523,4.5078,4.8711,5.2617,5.5742,5.7734,5.8203,5.8828,5.8515,5.6914,5.5625,5.4531,5.3594,5.7187,6.0898,6.4453,6.7187,6.9805,7.2265,7.3359,7.4023,7.4258,7.4492,7.4453,7.4219,7.3594,7.3164,7.289,7.1992,7.0859,6.9453,6.7305,6.3945,6.0195,0.0,0.0,0.0,0.0,0.0,0.0,0.0,0.0,0.0,0.0,0.0,0.0,0.0,0.0,0.0,0.0,0.0,0.0,0.0,0.0,0.0,0.0,0.0,0.0,0.0,0.0,0.0,0.0,0.0,0.0,0.0,6.3361,6.5465,6.5051,6.7114,6.9267,7.0975,7.286,7.4207,7.4668,7.5967,7.7044,7.7685,7.8677,8.0019,8.1772,8.2062,8.308,8.5039,8.5859,8.664,8.7461,8.8398,8.8984,8.9219,8.9492,8.9765,9.0,8.9922,8.9844,8.9687,8.9444,8.9215,8.9008,8.9475,8.9598,8.9448,8.8371,8.7987,8.7987,8.7987,8.7987,8.7987,3.0234,3.0156,3.0156,3.0156,3.0859,3.1875,3.3203,3.5195,3.8476,4.3867,4.6641,5.0,5.4883,5.7226,5.8594,5.8906,5.9101,5.8828,5.7969,5.7305,5.7734,5.9531,6.2695,6.5781,6.875,7.0781,7.2656,7.4375,7.4883,7.5312,7.5703,7.5703,7.5508,7.5117,7.4609,7.418,7.3789,7.289,7.2265,7.168,7.0312,6.7187,6.332,6.332,6.1172,5.8086,5.7226,5.6719,5.5937,5.3086,0.0,0.0,0.0,0.0,0.0,0.0,0.0,0.0,0.0,0.0,0.0,0.0,0.0,0.0,0.0,0.0,0.0,0.0,0.0,0.0,0.0,0.0,0.0,0.0,6.6984,6.9769,7.07,7.1398,7.2272,7.3619,7.4976,7.613,7.6908,7.8323,7.9609,8.0553,8.1561,8.2922,8.4647,8.4922,8.5859,8.7578,8.8203,8.8789,8.9258,9.0117,9.0547,9.0547,9.0898,9.1094,9.1094,9.1094,9.1015,9.0898,9.0735,9.0491,9.024,9.0594,9.0598,9.0406,0.0,0.0,0.0,0.0,8.9752,8.9752,3.0898,3.0898,3.0898,3.0898,3.1719,3.2578,3.3281,3.5703,3.9844,4.6562,4.8398,5.1562,5.8203,5.9062,5.9492,6.0195,5.9531,5.8789,5.8086,5.9336,6.1758,6.5586,6.7695,7.0234,7.3398,7.3555,7.4414,7.6055,7.6055,7.6484,7.7344,7.7344,7.6992,7.6328,7.6211,7.5742,7.4961,7.3984,7.3555,7.3359,7.25,6.9765,6.6172,6.6172,6.4219,6.1328,6.0508,5.9765,5.8984,5.7734,0.0,0.0,0.0,0.0,0.0,0.0,0.0,0.0,0.0,0.0,0.0,0.0,0.0,0.0,0.0,0.0,0.0,0.0,0.0,0.0,0.0,0.0,0.0,0.0,6.9395,7.2669,7.5745,7.5764,7.5677,7.6245,7.7198,7.8468,8.0254,8.1273,8.2223,8.3395,8.4375,8.5664,8.7344,8.7656,0.0,0.0,0.0,9.0195,9.0273,9.1054,9.1445,9.1445,9.2226,9.2617,9.2617,9.2617,9.2617,9.2615,9.2571,9.2299,9.1937,9.1937,9.1633,9.1287,9.121,9.121,9.121,9.121,9.121,9.121,3.0898,3.0898,3.0898,3.0898,3.2148,3.3203,3.3398,3.6211,4.0312,4.582,4.8516,5.1797,5.6562,5.8359,5.9258,5.9414,5.8633,5.8398,5.8906,6.3008,6.5781,6.6601,7.0273,7.2969,7.4336,7.5039,7.5898,7.6953,7.6953,7.7383,7.8242,7.8242,7.8515,7.8945,7.8281,7.789,7.7656,7.6055,7.5,7.4258,7.3398,7.1719,6.9726,6.9726,6.8906,6.7617,6.6758,6.6758,6.6601,6.3008,6.1758,6.125,5.832,5.6445,0.0,0.0,0.0,0.0,0.0,0.0,0.0,0.0,0.0,0.0,0.0,0.0,0.0,0.0,0.0,0.0,0.0,0.0,0.0,6.9826,7.3428,7.6284,7.6967,7.8815,7.9669,7.8454,7.9708,8.1085,8.2317,8.3353,8.4624,8.6171,8.6719,8.7656,8.9336,8.9492,9.0,9.1015,9.1054,9.1406,9.2109,9.2265,9.2344,9.2344,9.2539,0.0,9.2617,9.2617,9.2617,9.2578,9.2356,9.2226,9.213,9.1976,9.1825,9.171,9.1364,9.121,9.121,9.121,9.121,9.121,3.0898,3.0898,3.0898,3.0898,3.2305,3.3398,3.3398,3.6367,4.0156,4.4453,4.6914,4.9726,5.3594,5.5156,5.5937,5.5937,5.7148,5.8281,5.914,6.4453,6.8125,6.9414,7.2773,7.5,7.5898,7.6328,7.6758,7.7187,7.7656,7.8086,7.8515,7.8906,7.9297,7.9687,7.9297,7.9101,7.9023,7.7734,7.6953,7.6445,7.5117,7.3828,7.2578,7.168,7.1094,7.0625,6.9765,6.9726,6.9648,6.707,6.6211,6.5937,6.4258,6.2226,5.9922,0.0,0.0,0.0,0.0,0.0,0.0,0.0,0.0,0.0,0.0,0.0,0.0,0.0,0.0,6.4788,6.5464,0.0,7.2481,7.2313,7.5899,7.8844,7.9276,8.1008,8.1701,8.0292,8.1769,8.3447,8.4903,8.554,8.6601,8.8437,8.8672,8.9297,9.0586,9.0664,9.1054,9.1914,9.1953,9.2148,9.2617,9.2617,9.2617,9.2617,9.2617,9.2812,9.3242,9.3242,9.3476,9.3906,9.375,9.3622,9.3492,9.3261,9.3204,9.3204,9.2938,9.2322,9.1556,9.1556,9.1479,9.1364,3.0898,3.0898,3.0898,3.0898,3.2305,3.3398,3.3398,3.6211,3.957,4.3008,4.4961,4.7344,5.0781,5.1914,5.2461,5.2461,5.5937,5.8437,5.914,6.5,6.9453,7.164,7.4414,7.6211,7.6914,7.7109,7.7187,7.7187,7.8086,7.8594,7.875,7.957,8.0039,8.0195,8.0195,8.0195,8.0156,7.9336,7.8906,7.8594,7.6836,7.5625,7.4687,7.3086,7.2305,7.1914,7.1211,7.0742,7.039,7.0039,6.9726,6.9531,6.9883,6.7734,6.4531,6.1914,5.8867,0.0,0.0,0.0,0.0,0.0,0.0,0.0,0.0,6.3398,6.4297,6.7187,6.8945,6.9928,6.9748,7.3201,7.5784,7.4956,7.7968,8.0722,8.1585,8.2925,8.347,8.26,8.3888,8.5508,8.7226,8.7578,8.8398,9.0117,9.0234,9.0625,9.1523,9.1562,9.1875,9.2578,9.2617,9.2617,9.2617,9.2773,9.2851,9.2851,9.3008,9.3476,9.414,9.414,9.4531,9.5195,9.5195,9.5078,9.4881,9.4698,9.4635,9.4635,9.4635,9.3794,9.2528,9.2451,9.2257,9.2006,3.0898,3.0898,3.0898,3.0898,3.2305,3.3398,3.3398,3.5703,3.8672,4.2109,4.4062,4.6484,4.9961,5.1055,5.1562,5.1562,5.6133,5.9101,5.918,6.5586,6.9805,7.0781,7.4101,7.5937,7.6055,7.6797,7.7187,7.7187,7.8086,7.8867,7.957,8.0469,8.1289,8.1992,8.1992,8.1992,8.1953,8.1094,8.0273,7.9414,7.7734,7.6523,7.5664,7.4687,7.3359,7.1992,7.1875,7.0898,6.9844,7.125,7.0703,6.9687,7.1211,6.9883,6.7265,6.4648,6.1953,5.9258,5.6719,5.7969,6.0039,6.0312,6.2422,6.5351,0.0,7.0273,7.1992,7.6172,7.7031,7.7265,7.7918,7.8453,7.896,7.9554,8.0669,8.1816,8.2694,8.5028,8.6582,8.6483,8.6639,8.7226,8.8398,8.9219,9.0078,9.1094,9.1133,9.1523,9.2422,9.2461,9.25,9.2617,9.2617,9.2617,9.2617,9.3359,9.375,9.375,9.4531,9.4961,9.5039,9.5039,9.5117,9.5195,9.5195,9.5195,9.5156,9.5148,9.5138,9.5138,9.5138,9.4981,9.4786,9.4357,9.4044,9.3817,3.0898,3.0898,3.0898,3.0898,3.2305,3.3398,3.3398,3.5625,3.7812,3.9258,4.1406,4.3359,4.4805,4.6601,4.8086,4.9101,5.4414,5.7695,5.7695,6.4648,6.9101,6.9922,7.2305,7.4336,7.5859,7.625,7.668,7.7187,7.8086,7.8906,7.9726,8.0586,8.1484,8.2304,8.2304,8.2304,8.2265,8.1914,8.125,8.0351,7.914,7.7851,7.6562,7.5703,7.4609,7.332,7.1797,7.0508,0.0,7.0859,7.0742,7.0547,7.2812,7.1758,6.914,6.6562,6.3945,6.2109,6.3086,6.2656,6.3125,6.8164,6.8984,6.9609,7.3594,7.4765,7.582,7.8633,7.9531,7.9883,8.0117,8.096,8.1675,8.1896,8.3182,8.4442,8.526,8.691,8.8209,8.8749,8.9258,8.9726,9.0156,9.0547,9.1133,9.1992,9.207,9.2226,9.2578,9.2617,9.2617,9.2617,9.3086,9.3359,9.3359,9.4219,9.4648,9.4648,9.5039,9.5469,9.5976,9.5976,9.6211,9.664,9.664,9.664,9.664,9.664,9.664,9.664,9.664,9.664,9.6523,9.5351,9.4726,9.4478,3.0898,3.0898,3.0898,3.0898,3.2109,3.3125,3.3359,3.5195,3.6758,3.7226,3.8945,4.0391,4.1133,4.3242,4.5351,4.7109,5.1914,5.543,5.6875,6.289,6.7187,6.8984,7.0937,7.3008,7.5156,7.5664,7.6328,7.7187,7.8086,7.8789,7.9375,8.0234,8.0976,8.1562,8.1562,8.1445,8.125,8.125,8.0742,7.9883,7.8984,7.8086,7.7109,7.6211,7.5078,7.3594,7.1484,7.0039,6.918,6.9531,6.9492,6.9726,7.2109,7.1211,6.8945,6.707,6.4844,6.3672,6.668,6.6328,6.6797,7.3789,7.418,7.375,7.7109,7.8242,7.8945,8.0156,8.1289,8.2109,8.2187,8.3242,8.4219,8.4531,8.5742,8.6953,8.7773,8.8789,8.9648,9.0273,9.1133,9.164,9.164,9.164,9.1914,9.2539,9.2617,9.2617,9.2617,9.2812,9.2969,9.2969,9.3789,9.4258,9.4258,9.5117,9.5547,9.5547,9.5781,9.6211,9.6836,9.6836,9.7148,9.7695,9.7695,9.7695,9.7695,9.7695,9.7695,9.7695,9.7695,9.7695,9.7539,9.6328,9.5742,9.5499,3.0898,3.0898,3.0898,3.0898,3.1641,3.25,3.3281,3.418,3.5391,3.707,3.7383,3.8398,4.0937,4.2734,4.4453,4.6172,4.8828,5.2539,5.7539,6.039,6.3789,6.8047,7.0664,7.2422,7.3359,7.5039,7.6328,7.7187,7.8086,7.8515,7.8555,7.9375,7.9765,7.9765,7.9765,7.9336,7.8633,7.8633,7.8125,7.7226,7.6367,7.6484,7.7109,7.6211,7.4297,7.1953,7.1015,6.9648,6.8125,6.7305,6.6445,6.6055,6.7851,6.7187,6.5742,6.5664,6.4375,6.3398,6.5195,6.8008,7.1133,7.3945,7.6484,7.8515,7.9414,8.0937,8.2148,8.2226,8.3594,8.5039,8.5898,8.6094,8.664,8.8242,8.8594,8.8906,8.9804,9.0664,9.1211,9.125,9.2031,9.2578,9.2578,9.2578,9.2578,9.2617,9.2617,9.2617,9.2617,9.3398,9.3867,9.3867,9.4726,9.5156,9.5156,9.6015,9.6445,9.6484,9.7265,9.7656,9.7656,9.7656,9.7695,9.7695,9.7695,9.7695,9.7695,9.7695,9.7695,9.7695,9.7695,9.7695,9.7695,9.7656,9.75,9.7304,3.0898,3.0898,3.0898,3.0898,3.1133,3.1601,3.2461,3.3789,3.4922,3.5508,3.6562,0.0,0.0,0.0,0.0,0.0,4.8359,5.0937,5.2695,5.8398,6.2344,6.3828,6.8008,7.0937,7.2422,7.414,7.5469,7.6328,7.7226,7.793,7.8515,7.8789,7.918,7.9687,7.914,7.875,7.8476,7.789,7.7148,7.6367,7.664,7.5547,7.3711,7.3437,7.1719,6.914,0.0,6.5586,6.5664,6.5937,6.5859,6.6015,6.8281,6.7422,6.5586,6.5586,6.5586,6.6601,7.1172,7.3711,7.5781,7.8906,8.0351,8.125,8.2109,8.2734,8.332,8.3906,8.4023,8.4648,8.6679,8.6601,8.6953,8.9219,9.0039,9.0547,9.082,9.1601,9.2148,9.2148,9.2422,9.2617,9.2617,9.2617,9.2617,9.2617,9.3125,9.3476,9.3476,9.4297,9.4765,9.4765,9.5625,9.6054,9.6054,9.6875,9.7304,9.7304,9.7578,9.7695,9.7695,9.7695,9.7695,9.7695,9.7695,9.7695,9.7695,9.7695,9.7695,9.7695,9.7695,9.7695,9.7695,9.7695,9.7656,9.7578,3.0898,3.0898,3.0898,3.0898,3.0898,0.0,0.0,0.0,0.0,0.0,0.0,0.0,0.0,0.0,0.0,0.0,0.0,4.8867,5.0117,5.5117,5.8711,6.0273,6.3828,6.6719,6.875,7.0195,7.1484,7.2695,7.414,7.5156,7.5742,7.6992,7.7851,7.832,7.8125,7.7695,7.707,7.6523,7.5781,7.4922,7.4258,7.3008,7.1406,7.0195,6.8125,0.0,6.3672,6.2578,6.2148,6.3008,6.3515,6.414,6.6406,6.6406,6.5859,6.707,6.7812,6.9453,7.4883,7.7226,7.8867,8.1992,8.2773,8.3008,8.3867,8.4297,8.4687,8.5234,8.5156,8.5586,8.7578,8.7734,8.8086,8.9726,9.0976,9.1758,9.1758,9.2265,9.2734,9.3047,9.2773,9.2617,9.2617,9.289,9.3047,9.3047,9.3594,9.4023,9.4336,9.5195,9.5664,9.5664,9.6484,9.6914,9.6914,9.7422,9.7695,9.7695,9.7695,9.7695,9.7695,9.7695,9.7695,9.7695,9.7695,9.7695,9.7695,9.7695,9.7695,9.7695,9.7695,9.7695,9.7695,9.7695,9.7695,9.7695,3.0898,3.0898,3.0898,0.0,0.0,0.0,0.0,0.0,0.0,0.0,0.0,0.0,0.0,0.0,0.0,0.0,0.0,0.0,4.9726,5.082,5.3203,5.7383,5.8555,6.0273,6.2734,6.3711,6.5,6.6719,6.918,7.039,7.0508,7.3828,7.539,7.5469,7.625,7.5703,7.414,7.4101,7.3594,7.2578,6.9297,6.8867,6.9805,6.6523,6.3633,6.1484,6.2265,6.0469,5.789,5.8867,5.9805,6.0937,6.2812,6.4531,6.6523,7.0039,7.1055,7.2031,7.6406,7.8828,8.0703,8.3242,8.3867,8.4062,8.4922,8.5586,8.6054,8.6054,8.6601,8.7304,8.8164,8.9101,8.9765,8.9844,9.1484,9.2734,9.2656,9.2734,9.3086,9.3828,9.3242,9.2773,9.2695,9.3515,9.4023,9.4023,9.4023,9.4375,9.5234,9.6094,9.6562,9.6562,9.7304,9.7695,9.7695,9.7734,9.7773,9.7812,9.7812,9.7812,9.7812,9.7773,9.7773,9.7773,9.7734,9.7695,9.7695,9.7695,9.7695,9.7695,9.7695,9.7695,9.7695,9.7695,9.7695,9.7695,0.0,0.0,0.0,0.0,0.0,0.0,0.0,0.0,0.0,0.0,0.0,0.0,0.0,0.0,0.0,0.0,0.0,0.0,4.6172,4.8945,5.1289,5.2969,5.6367,5.8828,6.0156,6.1601,6.289,6.3984,6.5312,6.625,6.6914,6.7812,6.8555,6.918,6.875,6.832,6.7851,6.7187,6.6797,6.6523,6.5664,6.4375,6.2851,6.1406,5.9219,5.6875,5.6445,5.6133,5.6289,5.8476,6.1015,6.3945,6.7578,6.9023,7.0195,7.4336,7.6015,7.7461,8.1758,8.4219,8.582,8.707,8.7383,8.7461,8.7695,8.5937,8.4258,8.4258,8.2422,8.125,8.2695,8.4726,8.664,8.7929,9.1758,9.4297,9.3672,9.4687,9.5117,9.4023,9.4844,9.5,9.3672,9.4922,9.5859,9.5859,9.5859,9.5937,9.6172,9.6953,9.7383,9.7383,9.7578,9.7695,9.7695,9.8359,9.8984,9.9648,9.9648,9.9648,9.9609,9.8945,9.8672,9.8633,9.7969,9.7695,9.7695,9.7695,9.7695,9.7695,9.7695,9.7695,9.7695,9.7695,9.7695,9.7695,0.0,0.0,0.0,0.0,0.0,0.0,0.0,0.0,0.0,0.0,0.0,0.0,0.0,0.0,0.0,0.0,0.0,0.0,0.0,4.6406,4.8281,4.9141,5.1875,5.3984,5.5234,5.6172,5.707,5.789,5.9922,6.1172,6.168,6.3594,6.4726,6.5195,6.5078,6.4805,6.4414,6.3945,6.3711,0.0,0.0,6.0859,5.9648,5.7656,5.5781,5.4141,5.4023,5.457,5.6055,6.0937,6.3594,6.5742,7.082,7.2422,7.3359,7.8047,7.9492,8.0547,8.4883,8.6992,8.8242,8.9062,8.8984,8.8398,8.7304,8.4961,8.2695,8.1601,7.9531,7.8789,8.1601,8.3633,8.5703,8.8203,9.1992,9.4453,9.3984,9.5078,9.5703,9.5117,9.5898,9.6133,9.5156,9.6601,9.7617,9.7617,9.6914,9.664,9.6992,9.7461,9.7695,9.7695,9.8086,9.8437,9.8828,9.9336,9.9804,10.0312,10.0312,10.0312,10.0312,9.9804,9.9375,9.8984,9.8476,9.8047,9.7695,9.7695,9.7695,9.7695,9.7695,9.7695,9.7695,9.7695,9.7695,9.7695,0.0,0.0,0.0,0.0,0.0,0.0,0.0,0.0,0.0,3.5391,3.5898,3.6641,3.7383,3.8242,0.0,0.0,0.0,0.0,0.0,0.0,4.5117,4.6094,4.6836,4.8086,4.9805,4.9844,5.0234,5.1055,5.4101,5.5625,5.582,5.957,6.1367,6.1484,6.2265,6.2187,6.1445,6.1445,6.1445,6.1172,5.8125,5.7344,5.7656,0.0,5.293,5.25,5.3594,5.4492,5.6328,6.4258,6.6406,6.6875,7.3281,7.5351,7.6406,8.1211,8.2265,8.2695,8.6601,8.8359,8.9219,8.9844,8.9414,8.8125,8.5351,8.3203,8.1054,7.8359,7.6953,7.7422,8.1484,8.3047,8.4804,8.8242,9.1094,9.3047,9.3476,9.4414,9.539,9.6367,9.6797,9.6914,9.6679,9.8281,9.9297,9.9179,9.7812,9.7265,9.7851,9.7773,9.7734,9.7851,9.8711,9.9609,10.0508,10.0508,10.0508,10.0586,10.0586,10.0586,10.0586,10.039,9.9883,9.914,9.8945,9.8398,9.7695,9.7695,9.7695,9.7695,9.7695,9.7695,9.7695,9.7695,9.7695,9.7695,0.0,0.0,0.0,0.0,0.0,0.0,0.0,0.0,0.0,0.0,3.8047,3.8203,0.0,0.0,0.0,0.0,0.0,0.0,0.0,0.0,0.0,4.5156,4.5351,4.6289,4.8008,4.8047,4.8476,4.9336,4.9922,5.0586,5.1328,5.207,5.2773,5.3437,5.3555,5.3555,5.3398,5.3398,5.3398,5.3281,5.2031,5.1641,5.1601,5.0273,5.0156,0.0,5.3203,5.4101,5.5508,6.4023,6.6797,6.8086,7.625,7.9297,8.0508,8.3554,8.5351,8.6679,8.8125,8.9648,9.0703,9.0156,8.9883,8.8711,8.4726,8.1406,7.8203,7.4883,7.2422,7.1719,7.457,7.6406,7.8594,8.1992,8.5351,8.8515,9.1367,9.3125,9.4726,9.6328,9.8359,9.9062,9.7617,9.9726,10.0898,10.0117,9.9804,9.9375,9.8828,9.8086,9.8047,9.875,9.9609,10.0508,10.1406,10.1406,10.1719,10.2383,10.2383,10.2383,10.2383,10.1015,10.0195,10.0,9.8554,9.7851,9.7695,9.7695,9.7695,9.7695,9.7695,9.7695,9.7695,9.7695,9.7695,9.7695,0.0,0.0,0.0,0.0,0.0,0.0,0.0,3.8086,3.8789,3.9219,4.0039,4.0234,3.9375,3.9648,4.0078,0.0,0.0,0.0,0.0,0.0,0.0,4.3594,4.4531,4.5391,4.6211,4.668,4.7148,4.7539,0.0,4.8437,4.8867,4.9297,4.9726,5.0117,5.0117,5.0117,5.0117,5.0117,5.0117,5.0078,4.9687,4.9531,4.9492,4.9062,4.9453,0.0,5.3086,5.3984,5.5117,6.2422,6.4883,6.6601,7.6562,8.0312,8.125,8.25,8.5078,8.75,8.7422,8.9297,9.1211,9.0781,9.0351,8.8515,8.2851,7.9648,7.6328,7.1055,6.8633,6.8515,7.1992,7.332,7.543,8.0234,8.4648,8.8242,9.0312,9.3672,9.6172,9.7031,9.8984,9.9961,9.914,10.1015,10.2109,10.1719,10.1211,10.0586,9.9726,9.9297,9.9453,10.0312,10.0781,10.1406,10.2304,10.2304,10.25,10.289,10.289,10.289,10.289,10.1601,10.0703,10.0195,9.8945,9.8125,9.7695,9.7695,9.7695,9.7695,9.7695,9.7969,9.8398,9.8398,9.8672,9.9062,0.0,0.0,0.0,0.0,0.0,0.0,3.7461,3.8906,4.0039,4.0391,4.1562,4.1914,4.0586,4.043,4.0625,0.0,0.0,0.0,0.0,0.0,0.0,0.0,0.0,0.0,4.5,0.0,0.0,4.6289,4.6992,0.0,0.0,0.0,0.0,0.0,4.8359,4.8359,4.8359,4.8359,4.8359,0.0,0.0,4.8359,4.8359,0.0,0.0,0.0,0.0,5.3672,5.4883,6.0742,6.2851,6.4726,7.4648,7.8515,7.957,8.0664,8.3672,8.6679,8.6719,8.8828,9.0976,9.0781,9.0234,8.7851,8.0781,7.8008,7.4961,6.8047,6.5937,6.6562,7.0703,7.1133,7.2812,7.8672,8.3047,8.6484,8.8867,9.3008,9.625,9.7539,9.9258,10.0312,10.0312,10.1914,10.289,10.289,10.2383,10.1719,10.0586,10.0586,10.1015,10.1914,10.2109,10.2383,10.289,10.289,10.289,10.289,10.289,10.289,10.289,10.1992,10.1094,10.0312,9.9375,9.8515,9.7695,9.7695,9.7695,9.7695,9.7695,9.8242,9.8984,9.8984,9.9531,10.0312,0.0,0.0,0.0,0.0,0.0,0.0,3.8359,3.9297,4.0469,4.1953,4.2305,4.2344,4.2187,4.2187,4.1914,0.0,0.0,0.0,0.0,0.0,0.0,0.0,0.0,0.0,0.0,0.0,0.0,4.6289,4.6367,0.0,0.0,0.0,0.0,0.0,0.0,4.6523,4.6523,4.6523,0.0,0.0,0.0,0.0,0.0,0.0,0.0,0.0,0.0,5.2656,5.4805,6.0039,6.2344,6.3984,6.9726,7.2656,7.4922,7.9609,8.2383,8.4609,8.7656,8.9297,8.9922,8.914,8.8867,8.6836,7.918,7.6719,7.4062,6.7148,6.5039,6.5508,6.8984,6.8398,6.9101,7.4336,7.5586,7.8398,8.5547,8.8281,9.1562,9.7031,9.9258,10.0312,10.0312,10.1914,10.289,10.289,10.3594,10.3203,10.1601,10.1484,10.1914,10.2812,10.3515,10.3594,10.289,10.289,10.289,10.289,10.289,10.289,10.289,10.1992,10.1094,10.0312,9.9375,9.8515,9.7695,9.7695,9.7695,9.7695,9.7695,9.8242,9.8984,9.8984,9.9531,10.0312,0.0,0.0,0.0,0.0,0.0,0.0,3.8555,3.9805,4.1094,4.2266,4.2851,4.2969,4.2461,4.2851,4.2656,4.1328,0.0,0.0,0.0,0.0,0.0,0.0,0.0,0.0,0.0,0.0,4.6289,4.6289,4.6289,0.0,0.0,0.0,0.0,0.0,0.0,4.6289,4.6289,4.6289,0.0,0.0,0.0,0.0,0.0,0.0,0.0,0.0,0.0,0.0,5.4453,5.7578,5.957,6.125,6.4336,6.6133,6.8125,7.3281,7.8984,8.3554,8.3359,8.6562,8.9804,8.8906,8.8359,8.5937,7.8164,7.5742,7.3008,6.5586,6.375,6.3945,6.5312,6.543,6.6523,7.0156,7.3789,7.8515,8.5234,8.8984,9.289,9.789,9.957,9.9687,9.8164,10.1015,10.3086,10.3594,10.3515,10.3594,10.3906,10.3515,10.3281,10.3711,10.3515,10.3281,10.289,10.289,10.289,10.289,10.289,10.289,10.289,10.1992,10.1406,10.1015,9.9609,9.8789,9.8437,9.7929,9.7695,9.7695,9.7695,9.8554,9.9765,9.9765,10.0703,10.1914,0.0,0.0,0.0,0.0,0.0,3.8594,3.8594,4.0078,4.1484,4.2305,4.293,4.3086,4.2461,4.2969,4.2734,4.1328,4.1211,0.0,0.0,0.0,0.0,0.0,0.0,0.0,0.0,0.0,4.6289,4.6289,4.6289,4.6289,0.0,0.0,4.6289,4.6289,0.0,0.0,0.0,0.0,0.0,0.0,0.0,0.0,0.0,0.0,0.0,0.0,0.0,0.0,0.0,0.0,0.0,5.8789,6.0703,6.1914,6.3672,6.9101,7.5,7.9844,8.0039,8.3828,8.7773,8.7929,8.6758,8.3867,7.7383,7.4258,7.0859,6.4336,6.2773,6.2695,6.2969,6.3711,6.5156,6.7773,7.2383,7.8047,8.4844,8.8867,9.2695,9.6992,9.8476,9.8476,9.6679,10.039,10.3281,10.4101,10.3906,10.4219,10.539,10.4883,10.4492,10.4219,10.3594,10.3203,10.289,10.289,10.289,10.289,10.289,10.289,10.289,10.2304,10.1797,10.1484,10.0,9.9258,9.8945,9.8047,9.7695,9.7695,9.7695,9.8594,9.9961,10.0195,10.1211,10.2617,0.0,0.0,0.0,0.0,0.0,0.0,3.8594,4.0078,4.1484,4.2305,4.2422,4.2422,4.2383,4.2422,4.2109,4.1289,4.1211,0.0,0.0,0.0,0.0,0.0,0.0,0.0,0.0,0.0,4.6289,4.6289,4.6289,4.6289,4.6289,4.6289,4.6289,4.6289,0.0,0.0,0.0,0.0,0.0,0.0,0.0,0.0,4.6289,0.0,0.0,0.0,0.0,0.0,0.0,0.0,0.0,0.0,0.0,6.1015,6.289,6.8945,7.0742,7.2305,7.914,8.1679,8.3008,8.5586,8.3633,8.0156,7.668,7.1953,6.7265,6.3711,6.2305,6.1992,6.2851,6.3711,6.5156,6.7773,7.0351,7.5078,8.3711,8.6445,8.914,9.3437,9.5469,9.6523,9.6484,10.039,10.3281,10.4101,10.5,10.5508,10.5508,10.5508,10.5117,10.4219,10.4219,10.3789,10.289,10.289,10.289,10.289,10.289,10.289,10.289,10.289,10.2383,10.1601,10.0703,9.9804,9.8945,9.8047,9.7695,9.7695,9.7695,9.8242,9.9101,9.9961,10.0898,10.1719,0.0,0.0,0.0,0.0,0.0,0.0,3.8516,3.957,4.082,4.2226,4.2383,4.2383,4.2383,4.2383,4.207,4.1289,4.1211,0.0,0.0,0.0,0.0,0.0,0.0,0.0,0.0,4.5391,4.6289,4.6289,4.6289,4.6289,4.6289,4.6289,4.6289,4.6289,4.6289,4.6289,0.0,0.0,0.0,0.0,0.0,4.6289,4.6289,0.0,0.0,0.0,0.0,0.0,0.0,0.0,0.0,0.0,0.0,0.0,0.0,6.3828,6.7031,7.043,7.3203,7.5898,7.8125,7.8945,7.789,7.5586,7.1562,6.8906,6.6328,6.2812,6.1875,6.1797,6.207,6.332,6.4961,6.6992,6.9961,7.5234,8.4492,8.6797,8.9961,9.6601,9.6875,9.7656,10.0586,10.0508,10.1289,10.3984,10.3906,10.3711,10.3711,10.3203,10.3281,10.4219,10.3008,10.2304,10.1992,10.1992,10.1992,10.1992,10.2617,10.289,10.289,10.289,10.2695,10.2383,10.0898,10.0117,9.9765,9.832,9.7695,9.7695,9.7695,9.8242,9.9023,9.9297,10.0312,10.1601,0.0,0.0,0.0,0.0,0.0,0.0,3.8047,3.8867,3.9883,4.1289,4.1445,4.1562,4.1914,4.1953,4.1758,4.125,4.1211,0.0,0.0,0.0,0.0,0.0,0.0,0.0,4.3711,4.5391,4.6289,4.6289,4.6641,4.6797,4.6797,4.7148,4.7109,4.6797,4.6797,4.6601,0.0,0.0,0.0,0.0,4.5937,4.6016,4.6289,0.0,0.0,0.0,0.0,0.0,0.0,0.0,0.0,0.0,0.0,0.0,0.0,0.0,6.3476,6.6562,6.9062,7.1562,7.3672,7.4687,7.3555,7.1484,6.8828,6.6523,6.4336,6.2148,6.1719,6.1719,6.1719,6.3125,6.5273,6.832,7.0625,7.5312,8.4844,8.6094,8.8633,9.5742,9.6523,9.7812,10.1094,10.0781,10.1484,10.3984,10.3398,10.289,10.289,10.2109,10.1914,10.2695,10.1719,10.1094,10.1094,10.1094,10.1289,10.1601,10.2187,10.2617,10.289,10.289,10.2695,10.2304,10.0898,10.0117,0.0,9.8281,9.7695,9.7695,9.7695,9.8047,9.8554,9.8867,9.9687,10.0703,0.0,0.0,0.0,0.0,0.0,0.0,0.0,3.8008,3.8828,3.9687,3.9805,4.0117,4.0937,4.1016,4.1016,4.1016,4.1055,0.0,0.0,0.0,0.0,0.0,0.0,0.0,4.3711,4.5391,4.6328,4.6406,4.7187,4.7617,4.7695,4.8516,4.8476,4.7695,4.7617,4.7109,0.0,0.0,0.0,0.0,4.543,4.5586,0.0,0.0,0.0,0.0,0.0,0.0,0.0,0.0,0.0,0.0,0.0,0.0,0.0,0.0,0.0,0.0,0.0,6.8281,6.9531,7.1953,7.0195,6.7812,6.7734,6.4609,0.0,6.1719,6.1719,6.1719,6.1797,6.3359,6.625,7.1055,7.2148,7.5547,8.4648,8.5,8.6445,9.2187,9.5195,9.7422,9.9101,10.1484,10.3203,10.3984,10.3203,10.2695,10.2695,10.1797,10.1015,10.0117,10.0117,10.0117,10.0195,10.0195,10.0586,10.1484,10.1601,10.2109,10.289,10.2812,10.2383,10.1484,10.0586,9.9765,9.8945,9.8047,9.7695,9.7695,9.7695,9.7695,9.7812,9.8594,9.8945,9.9219,0.0,0.0,0.0,0.0,0.0,0.0,0.0,0.0,0.0,0.0,3.8906,3.8984,3.918,3.9219,3.9219,0.0,0.0,0.0,0.0,0.0,0.0,0.0,0.0,0.0,4.3711,4.5391,4.6641,4.7305,4.75,4.793,4.8594,4.8789,4.8789,4.8555,4.7891,4.7109,0.0,0.0,0.0,0.0,4.6094,4.6133,0.0,0.0,0.0,0.0,4.8594,4.9453,0.0,0.0,0.0,0.0,0.0,0.0,0.0,0.0,5.9414,6.0664,6.1914,0.0,6.4648,6.5273,6.4805,6.4062,0.0,6.2422,6.1719,6.1719,6.1719,6.1914,6.2578,6.5742,6.8672,6.9805,7.3359,7.7656,8.2539,8.8008,9.25,9.5273,9.7851,10.0117,10.1797,10.25,10.3008,10.3203,10.1797,10.0898,10.0898,9.9453,9.8515,9.832,9.832,9.8633,9.9297,9.9297,9.9726,10.0586,10.1289,10.2109,10.289,10.2187,10.1797,10.1484,9.9961,9.9179,9.8945,9.8047,9.7695,9.7695,9.7695,9.7695,9.7734,9.7929,9.8437,9.9062,0.0,0.0,0.0,0.0,0.0,0.0,0.0,0.0,0.0,0.0,3.8008,3.8164,3.8555,3.8594,3.8594,0.0,0.0,0.0,0.0,0.0,0.0,0.0,0.0,4.3906,4.4297,4.6016,4.7148,4.7617,4.8789,4.9414,4.9492,5.0273,5.0234,4.9453,4.8164,4.7109,0.0,0.0,0.0,4.6289,4.5859,0.0,0.0,0.0,0.0,0.0,4.8008,4.8867,0.0,5.0586,5.168,5.2851,0.0,0.0,0.0,0.0,5.8828,5.9922,6.0312,6.1367,6.2383,6.2383,6.2383,6.2265,6.1797,6.1719,6.1797,6.2226,6.2305,6.2695,6.3945,6.6445,6.957,7.3476,7.6172,7.9531,8.4531,9.0586,9.5,9.6328,9.9101,10.1406,10.2812,10.289,10.289,10.289,10.1719,10.0703,10.0312,9.9023,9.8125,9.7695,9.7695,9.7929,9.8398,9.8398,9.8828,9.9726,10.0195,10.0898,10.1719,10.1211,10.0781,10.039,9.9414,9.8789,9.8359,9.789,9.7695,9.7695,9.7695,9.7695,9.7695,9.7695,9.8008,9.8476,0.0,0.0,0.0,0.0,0.0,0.0,0.0,0.0,0.0,0.0,0.0,0.0,0.0,0.0,0.0,0.0,0.0,0.0,0.0,0.0,0.0,0.0,4.332,4.4101,4.4961,4.6719,4.7734,4.8008,5.0273,5.1172,5.082,5.2109,5.1719,4.9922,4.8476,4.7226,4.625,4.5508,4.5625,4.625,4.5508,0.0,0.0,0.0,0.0,0.0,0.0,0.0,0.0,4.9922,5.1211,5.2656,5.3516,0.0,0.0,0.0,0.0,0.0,6.0039,6.0937,6.1797,6.2187,6.1992,6.1836,6.2383,6.2187,6.2148,6.3008,6.3711,6.4687,6.6289,6.8164,7.1836,7.9101,8.0156,8.207,8.789,9.2461,9.5508,9.6406,9.9531,10.1914,10.2812,10.289,10.289,10.289,10.2109,10.1211,10.0312,9.9453,9.8594,9.7734,9.7695,9.7695,9.7695,9.7695,9.8125,9.8984,9.8984,9.9453,10.0312,10.0195,9.9687,9.8984,9.8867,9.8398,9.7695,9.7695,9.7695,9.7695,9.7695,9.7695,9.7695,9.7695,9.7695,9.7812,0.0,0.0,0.0,0.0,0.0,0.0,0.0,0.0,0.0,0.0,0.0,0.0,0.0,0.0,0.0,0.0,0.0,0.0,0.0,0.0,0.0,4.3398,4.3633,4.4101,4.4961,4.6719,4.832,4.9805,5.0859,5.2109,5.3398,5.293,5.1406,4.9101,4.8828,4.7812,4.6289,4.6172,4.6172,4.6289,4.6133,0.0,0.0,0.0,0.0,0.0,0.0,0.0,0.0,4.9922,5.082,5.1758,5.2617,0.0,0.0,0.0,0.0,0.0,5.9336,6.0508,6.2226,6.4453,6.3359,6.2461,6.543,6.4375,6.3047,6.3906,6.6992,6.9844,7.082,7.6523,8.1484,8.2773,8.5312,8.75,8.8554,9.2461,9.5508,9.6406,9.9531,10.1914,10.2812,10.289,10.289,10.289,10.2109,10.1211,10.0312,9.9453,9.8594,9.7734,9.7695,9.7695,9.7695,9.7695,9.8125,9.8984,9.8984,9.9453,10.0312,9.9531,9.914,9.8945,9.8203,9.7812,9.7695,9.7695,9.7695,9.7695,9.7695,9.7695,9.7695,9.7695,9.7695,9.7812,0.0,0.0,0.0,0.0,0.0,0.0,0.0,0.0,0.0,0.0,0.0,0.0,0.0,0.0,0.0,0.0,0.0,0.0,0.0,0.0,4.0547,4.3555,4.3711,4.4531,4.6367,4.7656,4.9141,5.0859,5.2148,5.3203,5.3984,5.3125,5.1601,4.957,4.9101,4.793,4.6289,4.6289,4.6289,4.6289,0.0,0.0,0.0,0.0,0.0,0.0,0.0,0.0,0.0,0.0,5.0078,5.0976,5.2305,0.0,0.0,0.0,0.0,0.0,5.9219,6.043,6.289,6.7812,6.7109,6.5625,6.7226,6.8828,6.914,6.6289,6.9492,7.3203,7.457,7.7734,8.164,8.6289,9.0351,9.3242,9.414,9.6406,9.8281,9.914,10.1094,10.25,10.289,10.289,10.289,10.289,10.25,10.1719,10.039,9.9922,9.9101,9.7734,9.7695,9.7695,9.7695,9.7695,9.789,9.8281,9.8281,9.8515,9.8867,9.8476,9.8281,9.8281,9.7851,9.7695,9.7695,9.7695,9.7695,9.7695,9.7695,9.7695,9.7695,9.7695,9.7695,9.7812,0.0,0.0,0.0,0.0,0.0,0.0,0.0,0.0,0.0,0.0,0.0,0.0,0.0,0.0,0.0,0.0,0.0,0.0,0.0,3.8594,4.0117,4.3555,4.3711,4.4922,4.7539,4.8437,4.9805,5.1719,5.3242,5.3984,5.3984,5.332,5.1875,4.9883,4.9219,4.793,4.6289,4.6289,4.6289,4.6289,0.0,0.0,0.0,0.0,0.0,0.0,0.0,0.0,0.0,0.0,0.0,0.0,0.0,0.0,0.0,5.4805,5.7422,5.9961,5.9375,6.1015,6.4258,6.9726,6.9648,6.8711,7.0742,7.3789,7.5,7.0781,7.3867,7.7773,7.9336,8.0273,8.2969,8.9531,9.3594,9.6601,9.8711,9.9765,10.0586,10.1484,10.2383,10.289,10.289,10.289,10.289,10.289,10.2695,10.1914,10.039,10.0117,9.9297,9.7734,9.7695,9.7695,9.7695,9.7695,9.7695,9.7695,9.7695,9.7695,9.7695,9.7695,9.7695,9.7695,9.7695,9.7695,9.7695,9.7695,9.7695,9.7695,9.7695,9.7695,9.7695,9.7695,9.7695,9.7812,0.0,0.0,0.0,0.0,0.0,0.0,0.0,0.0,0.0,0.0,0.0,0.0,0.0,0.0,0.0,0.0,0.0,0.0,0.0,3.8594,4.0117,4.3555,4.3711,4.4922,4.7539,4.8437,5.0117,5.2617,5.3555,5.3984,5.3984,5.3945,5.2148,4.8984,4.8945,4.793,4.6289,4.6289,4.6289,4.6289,4.6289,0.0,0.0,0.0,0.0,0.0,0.0,0.0,0.0,0.0,0.0,0.0,0.0,0.0,5.4023,5.4062,5.8203,6.2226,5.9844,6.2773,6.6836,6.8164,6.8359,7.0273,7.8242,7.8555,7.7422,7.8555,8.2304,8.5664,8.6601,8.9336,9.1679,9.2304,9.3359,9.5234,9.8554,9.9765,10.0586,10.1484,10.2383,10.289,10.289,10.289,10.289,10.289,10.2187,10.1289,10.0312,9.9531,9.8672,9.7734,9.7695,9.7695,9.7695,9.7695,9.7695,9.7695,9.7695,9.7695,9.7695,9.7695,9.7695,9.7695,9.7695,9.7695,9.7695,9.7695,9.7695,9.7695,9.7695,9.7695,9.7695,9.7695,9.7695,9.7695,0.0,0.0,0.0,0.0,0.0,0.0,0.0,0.0,0.0,0.0,0.0,0.0,0.0,0.0,0.0,0.0,0.0,0.0,0.0,3.8594,4.0117,4.3555,4.3711,4.4922,4.7539,4.8437,5.0156,5.2695,5.4648,5.5351,5.4805,5.4258,5.2734,5.0391,4.9375,4.8242,4.707,4.6523,4.6289,4.6289,4.6289,4.6289,0.0,0.0,0.0,0.0,0.0,0.0,0.0,0.0,4.8672,4.9531,5.0391,5.2187,5.4101,5.4648,5.7578,6.0547,6.0078,6.375,6.8437,7.1445,7.3398,7.5312,7.8008,8.2031,8.4414,8.1836,8.5195,8.8828,8.9687,9.1797,9.375,9.4844,9.4844,9.5898,9.9336,10.0586,10.1406,10.2304,10.2695,10.289,10.289,10.289,10.289,10.289,10.2109,10.1211,10.0312,9.9453,9.8594,9.7734,9.7695,9.7695,9.7695,9.7695,9.7695,9.7695,9.7695,9.7695,9.7695,9.7695,9.7695,9.7695,9.7695,9.7695,9.7695,9.7695,9.7695,9.7695,9.7695,9.7695,9.7695,9.7695,9.7695,9.7695,0.0,0.0,0.0,0.0,0.0,0.0,0.0,0.0,0.0,0.0,0.0,0.0,0.0,0.0,0.0,0.0,0.0,0.0,3.8476,3.8594,4.0117,4.3555,4.3711,4.4805,4.7148,4.8047,4.9726,5.2305,5.4922,5.5586,5.4453,5.4141,5.293,5.0976,4.9531,4.8437,4.7539,4.668,4.6289,4.6289,4.6289,4.6289,0.0,0.0,0.0,0.0,0.0,0.0,0.0,0.0,4.8164,4.9062,4.9922,5.1953,5.418,5.5039,5.7734,6.0469,6.0742,6.5234,7.039,7.2773,7.6758,8.0117,8.0039,8.4375,8.7695,8.5234,8.8633,9.1992,9.1758,9.289,9.4297,9.5508,9.539,9.6406,9.9804,10.1094,10.1914,10.2812,10.289,10.289,10.289,10.289,10.289,10.289,10.1797,10.0898,10.0312,9.9219,9.832,9.7734,9.7695,9.7695,9.7695,9.7695,9.7695,9.7695,9.7695,9.7695,9.7695,9.7695,9.7695,9.7695,9.7695,9.7695,9.7695,9.7695,9.7695,9.7695,9.7695,9.7695,9.7695,9.7695,9.7695,9.7695,0.0,0.0,0.0,0.0,0.0,0.0,0.0,0.0,0.0,0.0,0.0,0.0,0.0,0.0,0.0,0.0,0.0,0.0,3.8476,3.8594,4.0117,4.3555,4.3711,4.4531,4.625,4.7148,4.8867,5.1406,5.4023,5.4414,5.2734,5.3594,5.2656,5.0156,4.9297,4.8437,4.7539,4.668,4.6289,4.6289,4.6289,4.6289,4.6289,0.0,0.0,0.0,0.0,0.0,0.0,0.0,4.8164,4.9062,4.9922,5.1953,5.418,5.5078,5.8984,6.2812,6.1992,6.7461,7.2969,7.1211,7.7265,8.4101,8.582,8.5547,8.5898,8.9297,9.3476,9.5703,9.3086,9.332,9.3906,9.3945,9.4648,9.6406,9.9804,10.1094,10.1914,10.2812,10.289,10.289,10.289,10.289,10.289,10.289,10.1289,10.0312,10.0312,9.8633,9.7695,9.7695,9.7695,9.7695,9.7695,9.7695,9.7695,9.7695,9.7695,9.7695,9.7695,9.7695,9.7695,9.7695,9.7695,9.7695,9.7695,9.7695,9.7695,9.7695,9.7695,9.7695,9.7695,9.7695,9.7695,9.7695,0.0,0.0,0.0,0.0,0.0,0.0,0.0,0.0,0.0,0.0,0.0,0.0,0.0,0.0,0.0,0.0,0.0,0.0,3.8476,3.8594,4.0117,4.3555,4.3711,4.4531,4.625,4.7148,4.8867,5.1406,5.3398,5.3828,5.2695,5.2969,5.2344,5.0976,4.9531,4.875,4.8437,4.6914,4.6289,4.6289,4.6289,4.6289,4.6289,0.0,0.0,0.0,0.0,0.0,0.0,0.0,0.0,0.0,4.9219,5.1445,5.4648,5.793,6.0859,6.375,6.7109,7.2812,7.7812,7.793,8.2187,8.664,8.7695,8.7773,8.7851,8.8867,9.3476,9.6562,9.3984,9.3711,9.4492,9.6289,9.6328,9.7109,9.9922,10.1601,10.2617,10.289,10.289,10.289,10.289,10.289,10.289,10.289,10.1289,10.0312,10.0312,9.8633,9.7695,9.7695,9.7695,9.7695,9.7695,9.7695,9.7695,9.7695,9.7695,9.7695,9.7695,9.7695,9.7695,9.7695,9.7695,9.7695,9.7695,9.7695,9.7695,9.7695,9.7695,9.7695,9.7695,9.7695,9.7695,9.7695,0.0,0.0,0.0,0.0,0.0,0.0,0.0,0.0,0.0,0.0,3.6016,3.6016,0.0,0.0,0.0,0.0,0.0,0.0,3.8008,3.8398,3.9844,4.2578,4.3359,4.4531,4.625,4.7148,4.8359,4.9883,5.1953,5.2539,5.1719,5.2031,5.1719,5.0859,4.9141,4.8398,4.8281,4.6875,4.6289,4.6289,4.6289,4.6289,4.6289,0.0,0.0,0.0,0.0,0.0,0.0,0.0,0.0,0.0,4.8789,5.1719,5.5547,5.8125,6.2031,6.6211,6.9375,7.5117,8.0508,8.1719,8.5547,8.9219,9.0078,9.0234,9.0351,9.0703,9.4453,9.7226,9.5703,9.539,9.6015,9.789,9.8086,9.8672,10.0586,10.1992,10.289,10.289,10.289,10.289,10.289,10.289,10.289,10.289,10.1601,10.0703,10.0312,9.8984,9.8047,9.7695,9.7695,9.7695,9.7695,9.7695,9.7695,9.7695,9.7695,9.7695,9.7695,9.7695,9.7695,9.7695,9.7695,9.7695,9.7695,9.7695,9.7695,9.7695,9.7695,9.7695,9.7695,9.7695,9.7695,9.7695,0.0,0.0,0.0,0.0,0.0,0.0,0.0,0.0,0.0,3.6016,3.6016,3.6016,0.0,0.0,0.0,3.6016,3.6016,3.6367,3.7226,3.8125,3.9375,4.1133,4.2812,4.4492,4.6133,4.6953,4.7383,4.7461,4.9961,5.0781,5.0117,5.082,5.0781,5.0,4.8359,4.7617,4.7539,4.668,4.6289,4.6289,4.6289,4.6289,4.6289,4.6289,0.0,0.0,0.0,0.0,0.0,0.0,0.0,0.0,4.8633,5.2266,5.6328,5.6797,6.2578,6.9023,6.9961,7.5508,8.1484,8.3554,8.789,9.1875,9.2773,9.3008,9.3164,9.3476,9.5742,9.7617,9.7383,9.7617,9.8086,9.8867,9.9804,10.0703,10.1484,10.2383,10.289,10.289,10.289,10.289,10.289,10.289,10.289,10.289,10.2109,10.1211,10.0312,9.9453,9.8594,9.7734,9.7695,9.7695,9.7695,9.7695,9.7695,9.7695,9.7695,9.7695,9.7695,9.7695,9.7695,9.7695,9.7695,9.7695,9.7695,9.7695,9.7695,9.7695,9.7695,9.7695,9.7695,9.7695,9.7695,9.7695,0.0,0.0,0.0,0.0,0.0,0.0,0.0,0.0,3.6016,3.6016,3.6016,3.6016,3.6016,3.6016,0.0,3.6016,3.6016,3.6367,3.7226,3.8125,3.9375,4.1133,4.2812,4.4219,4.5273,4.5469,4.5898,4.6562,4.8516,4.9336,4.918,4.9375,4.9336,4.9141,4.8086,4.7617,4.7539,4.668,4.6289,4.6289,4.6289,4.6289,4.6289,4.6289,4.6289,0.0,0.0,0.0,0.0,0.0,0.0,0.0,4.8633,5.1016,5.4336,5.8398,6.1875,6.6015,7.3515,7.8203,8.207,8.6484,9.1015,9.4609,9.5469,9.6133,9.5508,9.164,9.4492,9.7109,9.5078,9.6914,9.8789,9.8984,10.0312,10.1406,10.1601,10.2383,10.289,10.289,10.289,10.289,10.289,10.289,10.289,10.289,10.2109,10.1211,10.0312,9.9453,9.8594,9.7734,9.7695,9.7695,9.7695,9.7695,9.7695,9.7695,9.7695,9.7695,9.7695,9.7695,9.7695,9.7695,9.7695,9.7695,9.7695,9.7695,9.7695,9.7695,9.7695,9.7695,9.7695,9.7695,9.7695,9.7695,0.0,0.0,0.0,0.0,0.0,0.0,0.0,0.0,3.6016,3.6016,3.6016,3.6016,3.6016,3.6016,0.0,0.0,3.6016,3.6172,3.6641,3.7891,3.9531,4.168,4.2617,4.3476,4.4375,4.4805,4.5234,4.5664,4.6992,4.7851,4.8281,4.8281,4.8281,4.8242,4.7383,4.6992,4.6953,4.6484,4.6289,4.6289,4.6289,4.6289,4.6289,4.6289,4.6289,4.6289,4.6289,0.0,0.0,0.0,0.0,0.0,0.0,0.0,5.3945,5.7031,6.1523,6.6914,7.3555,7.8398,8.3164,8.9609,9.3203,9.5547,9.6797,9.7383,9.6953,9.4258,9.582,9.7304,9.5976,9.7539,9.914,9.9531,10.0703,10.1719,10.2187,10.2617,10.289,10.289,10.289,10.289,10.289,10.289,10.289,10.289,10.25,10.1797,10.1015,10.0117,9.9219,9.8359,9.7929,9.7695,9.7695,9.7695,9.7695,9.7695,9.7695,9.7695,9.7695,9.7695,9.7695,9.7695,9.7695,9.7695,9.7695,9.7695,9.7695,9.7695,9.7695,9.7695,9.7695,9.7695,9.7695,9.7695,0.0,0.0,0.0,0.0,0.0,0.0,0.0,0.0,0.0,3.6016,3.6016,3.6016,3.6016,3.6016,3.6016,0.0,0.0,0.0,3.6016,3.7617,3.9609,4.1875,4.2109,4.2617,4.3476,4.418,4.4687,4.5,4.5703,4.6523,4.7383,4.7383,4.7383,4.7344,4.6601,4.6289,4.6289,4.6289,4.6289,4.6328,4.6445,4.6523,4.6523,4.668,4.6758,4.6758,4.6758,4.6641,4.6523,4.6523,0.0,0.0,0.0,0.0,5.3594,5.4922,6.0586,6.7265,7.1133,7.7265,8.4336,9.1797,9.4453,9.5586,9.7148,9.7617,9.7695,9.7695,9.7695,9.7734,9.789,9.8633,9.9492,10.039,10.1289,10.2109,10.2812,10.289,10.289,10.289,10.289,10.289,10.289,10.289,10.289,10.289,10.289,10.25,10.1601,10.0781,9.9883,9.9023,9.8164,9.7695,9.7695,9.7695,9.7695,9.7695,9.7695,9.7695,9.7695,9.7695,9.7695,9.7695,9.7695,9.7695,9.7695,9.7695,9.7695,9.7695,9.7695,9.7695,9.7695,9.7695,9.7695,9.7695,0.0,0.0,0.0,0.0,0.0,0.0,0.0,0.0,0.0,0.0,3.6016,3.6016,3.6016,3.6016,3.6016,3.6016,3.6016,3.6016,3.6016,0.0,0.0,4.0195,4.0976,4.1758,4.2578,4.2695,4.3476,4.5,4.5117,4.5625,4.6484,4.6484,4.6484,4.6484,4.6367,4.6289,4.6289,4.6289,4.6289,4.6367,4.7109,4.7422,4.75,4.8281,4.8555,4.8555,4.8555,4.8086,4.7422,4.7422,4.6914,0.0,0.0,0.0,5.1328,5.4414,5.7187,6.0508,6.6211,7.543,8.4922,9.1211,9.3984,9.5469,9.6445,9.7187,9.7695,9.7695,9.7695,9.7929,9.8672,9.9531,10.039,10.1289,10.2187,10.2812,10.289,10.289,10.289,10.289,10.289,10.289,10.289,10.289,10.289,10.289,10.289,10.25,10.1601,10.0781,9.9883,9.9023,9.8164,9.7695,9.7695,9.7695,9.7695,9.7695,9.7695,9.7695,9.7695,9.7695,9.7695,9.7695,9.7695,9.7695,9.7695,9.7695,9.7695,9.7695,9.7695,9.7695,9.7695,9.7695,9.7695,9.7695,0.0,0.0,0.0,0.0,0.0,0.0,0.0,0.0,0.0,0.0,0.0,3.6016,3.6016,3.6016,3.6016,3.6016,3.6016,3.6211,3.6719,3.7461,3.8242,3.9141,4.0,4.0625,4.0976,4.1914,4.3008,4.4258,4.4766,4.5469,4.6289,4.6289,4.6289,4.6289,4.6289,4.6289,4.6328,4.6836,4.7031,4.7109,4.7969,4.832,4.8359,4.875,4.9219,4.957,4.9062,4.8984,4.8984,4.8476,4.8086,4.7969,4.9219,0.0,0.0,0.0,5.5469,5.8086,6.5586,7.5469,8.4609,8.8711,9.25,9.5547,9.6875,9.7461,9.7695,9.7695,9.7695,9.7969,9.8828,9.9726,10.0586,10.1484,10.2304,10.289,10.289,10.289,10.289,10.289,10.289,10.289,10.289,10.289,10.289,10.289,10.289,10.2695,10.2304,10.1015,10.0117,9.9726,9.8398,9.7695,9.7695,9.7695,9.7695,9.7695,9.7695,9.7695,9.7695,9.7695,9.7695,9.7695,9.7695,9.7695,9.7695,9.7695,9.7695,9.7695,9.7695,9.7695,9.7695,9.7695,9.7695,9.7695,0.0,0.0,0.0,0.0,0.0,0.0,0.0,0.0,0.0,0.0,0.0,3.6016,3.6016,0.0,0.0,0.0,3.6016,3.6289,3.6914,3.7187,3.7578,3.8242,3.9101,3.9687,3.9883,4.1133,4.2305,4.3359,4.4258,4.5117,4.5976,4.6211,4.6289,4.6289,4.6289,4.6289,4.6367,4.7226,4.7617,4.7695,4.8789,4.9336,4.957,4.9766,5.0547,5.1367,5.0508,5.0625,5.1016,5.0156,4.957,4.9375,5.0234,5.0351,0.0,0.0,0.0,5.7695,6.5703,7.3945,8.1328,8.5469,9.0078,9.4101,9.625,9.7226,9.7656,9.7422,9.7578,9.7969,9.8828,9.9726,10.0703,10.1797,10.25,10.289,10.289,10.289,10.289,10.289,10.289,10.289,10.289,10.289,10.289,10.289,10.289,10.289,10.289,10.1211,10.0312,10.0312,9.8594,9.7695,9.7695,9.7695,9.7695,9.7695,9.7695,9.7695,9.7695,9.7695,9.7695,9.7695,9.7695,9.7695,9.7695,9.7695,9.7695,9.7695,9.7695,9.7695,9.7695,9.7695,9.7695,9.7695,0.0,0.0,0.0,0.0,0.0,0.0,0.0,0.0,0.0,0.0,0.0,3.6016,3.6016,3.6016,3.6016,3.6016,3.6016,3.6016,3.6055,3.6836,3.7305,3.7383,3.8203,0.0,3.9883,4.0,4.082,4.2461,4.3359,4.4219,4.5078,4.5898,4.6289,4.6289,4.6289,4.6289,4.6367,4.7226,4.7617,4.7734,4.9453,5.0586,5.1367,5.2187,5.3555,5.4922,5.4062,5.375,5.3672,5.2812,5.1445,5.0273,5.1094,5.082,5.0547,0.0,0.0,0.0,6.5273,6.9101,7.3359,8.1719,8.6445,8.9922,9.332,9.5976,9.7461,9.6719,9.7187,9.7969,9.8828,9.9726,10.0898,10.2617,10.289,10.289,10.289,10.289,10.289,10.289,10.289,10.289,10.289,10.289,10.289,10.289,10.289,10.289,10.289,10.1211,10.0312,10.0312,9.8594,9.7695,9.7695,9.7695,9.7695,9.7695,9.7695,9.7695,9.7695,9.7695,9.7695,9.7695,9.7695,9.7695,9.7695,9.7695,9.7695,9.7695,9.7695,9.7695,9.7695,9.7695,9.7695,9.7695,0.0,0.0,0.0,0.0,0.0,0.0,0.0,0.0,0.0,0.0,0.0,0.0,0.0,3.7656,3.7656,3.7656,3.7148,3.6836,3.6836,3.6601,3.6484,3.6484,3.7305,3.7891,3.8203,3.9336,4.0469,4.1641,4.3008,4.4141,4.5039,4.5898,4.6289,4.6289,4.6289,4.6601,4.7187,4.8047,4.9062,5.0391,5.4375,5.6797,5.8047,5.8359,5.957,6.0976,6.0078,5.9414,5.914,6.0508,5.875,5.582,5.5,5.3398,5.1914,5.2539,5.4765,5.7656,6.039,6.5039,7.0234,7.4961,8.0,8.4531,8.7461,9.0976,9.3672,9.3945,9.5976,9.7969,9.8828,9.9726,10.0703,10.1914,10.25,10.289,10.289,10.289,10.289,10.289,10.289,10.289,10.289,10.289,10.289,10.289,10.289,10.289,10.289,10.1211,10.0312,10.0312,9.8594,9.7695,9.7695,9.7695,9.7695,9.7695,9.7695,9.7695,9.7695,9.7695,9.7695,9.7695,9.7695,9.7695,9.7695,9.7695,9.7695,9.7695,9.7695,9.7695,9.7695,9.7695,9.7695,9.7695,0.0,0.0,0.0,0.0,0.0,0.0,0.0,0.0,3.8711,3.8984,0.0,0.0,0.0,0.0,3.8906,3.8633,3.8086,3.7617,3.7305,3.6758,3.6328,3.6016,3.6562,3.6992,3.7305,3.8437,3.9609,4.0742,4.2422,4.3711,4.4609,4.5742,4.6289,4.6289,4.6289,4.6797,4.7656,4.8516,4.9883,5.1758,5.582,5.8476,6.0117,6.125,6.3164,6.5156,6.5195,6.5156,6.543,6.7148,6.4492,6.0273,5.9101,5.6172,5.3203,5.3476,5.5,5.6836,5.8008,6.2109,6.6836,7.0273,7.4805,7.9258,8.2422,8.7148,9.1015,9.1601,9.4922,9.789,9.8476,9.9297,10.0195,10.1406,10.2304,10.289,10.289,10.289,10.289,10.289,10.289,10.289,10.289,10.289,10.289,10.289,10.289,10.289,10.289,10.1484,10.0508,9.9883,9.8476,9.7695,9.7695,9.7695,9.7695,9.7695,9.7695,9.7695,9.7695,9.7695,9.7695,9.7695,9.7695,9.7695,9.7695,9.7695,9.7695,9.7695,9.7695,9.7695,9.7695,9.7695,9.7695,9.7695,0.0,0.0,0.0,0.0,0.0,0.0,3.875,3.875,3.9062,3.9883,0.0,0.0,0.0,0.0,0.0,3.8789,3.8672,3.832,3.7422,3.7344,3.6953,3.6094,3.6055,3.6445,3.7266,3.7344,3.8164,3.9883,4.1601,4.2851,4.375,4.5469,4.6289,4.6289,4.6289,4.6797,4.7695,4.8555,4.9922,5.168,5.3594,5.5469,5.7461,6.0859,6.4297,6.7539,6.9219,7.0859,7.2226,7.2305,6.8281,6.3164,6.293,5.8789,5.4219,5.5039,5.5898,5.6953,0.0,0.0,0.0,6.789,7.1133,7.418,7.8515,8.4726,8.9648,8.9922,9.4023,9.7578,9.7695,9.8437,9.957,10.1289,10.2304,10.2812,10.289,10.289,10.289,10.289,10.289,10.289,10.289,10.289,10.289,10.289,10.289,10.289,10.289,10.1992,10.0781,9.9062,9.8164,9.7695,9.7695,9.7695,9.7695,9.7695,9.7695,9.7695,9.7695,9.7695,9.7695,9.7695,9.7695,9.7695,9.7695,9.7695,9.7695,9.7695,9.7695,9.7695,9.7695,9.7695,9.7695,9.7695,0.0,0.0,0.0,0.0,0.0,4.1562,4.2187,4.2305,4.2383,0.0,0.0,0.0,4.2656,4.2656,4.2305,4.1406,4.082,4.0117,3.9258,3.8594,3.7851,3.6992,3.6953,3.7031,3.7305,3.793,3.8789,3.9883,4.2226,4.3476,4.375,4.5469,4.6289,4.6289,4.6289,4.7148,4.8594,4.9453,5.1523,5.4765,6.0859,6.5469,6.8906,7.1133,7.4101,7.7148,7.7656,7.7344,7.707,7.957,7.5117,6.75,6.1289,5.7305,5.5,5.5234,5.5469,5.5898,5.7031,0.0,0.0,0.0,0.0,0.0,7.3789,7.7539,8.1758,8.8594,9.164,9.4219,9.7969,9.8828,9.9375,10.0508,10.0898,10.1211,10.1914,10.1992,10.2187,10.2812,10.289,10.289,10.289,10.289,10.289,10.289,10.289,10.289,10.289,10.1484,10.0117,9.9023,9.8164,9.7695,9.7695,9.7695,9.7695,9.7695,9.7695,9.7695,9.7695,9.7695,9.7695,9.7695,9.7695,9.7695,9.7695,9.7695,9.7695,9.7695,9.7695,9.7695,9.7695,9.7695,9.7695,9.7695,0.0,0.0,4.1055,4.1562,4.2383,4.3125,4.3633,4.3711,4.3828,0.0,0.0,0.0,4.4258,4.3906,4.3516,4.3008,4.25,4.1875,4.1016,4.0156,3.9297,3.8437,3.8047,3.7851,3.7851,3.8359,3.9023,3.9883,4.1758,4.3008,4.3711,4.5117,4.5937,4.6289,4.6289,4.7266,4.8984,5.0195,5.3125,5.7305,6.1484,6.5937,7.039,7.3203,7.6172,7.9219,8.1719,8.2226,8.207,8.4414,7.9961,7.1797,6.2422,5.9023,5.8242,5.6797,5.6367,5.6484,5.6992,5.8164,5.9531,6.082,0.0,0.0,6.8672,7.2265,7.7109,8.5117,8.7461,8.9765,9.5312,9.4883,9.4414,9.6719,9.7109,9.8008,10.0703,10.1094,10.1406,10.2304,10.2383,10.25,10.289,10.289,10.289,10.289,10.289,10.289,10.289,10.1211,10.0117,9.957,9.8359,9.7695,9.7695,9.7695,9.7695,9.7695,9.7695,9.7695,9.7695,9.7695,9.7695,9.7695,9.7695,9.7695,9.7695,9.7695,9.7695,9.7695,9.7695,9.7695,9.7695,9.7695,9.7695,9.7695,0.0,0.0,4.2337,4.2536,4.3242,4.3867,4.3945,4.4062,4.4414,0.0,4.5351,4.543,4.543,4.4726,4.4219,4.4023,4.3984,4.3594,4.2617,4.1875,4.1055,4.0078,3.9297,3.8828,3.875,3.875,3.918,4.0039,4.0898,4.2148,4.3711,4.4609,4.5469,4.6289,4.6289,4.7266,4.9023,5.0781,5.457,5.9336,5.9101,6.2265,6.7461,7.1562,7.4883,7.8008,8.3398,8.5898,8.6601,8.6523,8.2539,7.5859,6.5625,6.289,6.2812,5.957,5.8359,5.8047,5.8047,5.8672,5.9492,6.0234,6.164,0.0,6.4453,6.8672,7.4101,8.0429,8.2187,8.4453,9.0508,8.8476,8.7226,9.125,9.2226,9.414,9.9062,9.9726,10.0117,10.0898,10.1015,10.1406,10.25,10.2617,10.2695,10.2695,10.2812,10.289,10.289,10.1211,10.0312,10.0312,9.8594,9.7695,9.7695,9.7695,9.7695,9.7695,9.7695,9.7695,9.7695,9.7695,9.7695,9.7695,9.7695,9.7695,9.7695,9.7695,9.7695,9.7695,9.7695,9.7695,9.7695,9.7695,9.7695,9.7695,4.1369,4.1865,4.2574,4.3997,4.4429,4.4805,4.5508,4.6328,4.6914,4.707,4.7695,4.8125,4.8125,4.8008,4.7305,4.5937,4.5781,4.5117,4.3555,4.3281,4.2539,4.1016,4.0781,4.0351,3.9648,3.9648,4.0078,4.0937,4.1758,4.2695,4.3711,4.4609,4.5469,4.6289,4.6289,4.7266,4.9062,5.1445,5.543,6.0508,6.457,7.0117,7.6289,7.918,8.2734,8.6367,8.7539,8.8515,8.8359,8.2304,8.0273,7.8711,6.9765,6.6562,6.5742,6.3672,6.1094,5.8945,5.8945,5.9531,6.0195,6.0351,6.1172,0.0,6.6601,6.6719,6.8359,7.6523,7.7226,7.8203,8.4258,8.4687,8.4844,8.707,8.9765,9.2656,9.5742,9.6211,9.6523,9.7383,9.75,9.8359,10.0586,10.0781,10.1094,10.1797,10.25,10.289,10.289,10.1211,10.0312,10.0312,9.8594,9.7695,9.7695,9.7695,9.7695,9.7695,9.7695,9.7695,9.7695,9.7695,9.7695,9.7695,9.7695,9.7695,9.7695,9.7695,9.7695,9.7695,9.7695,9.7695,9.7695,9.7695,9.7695,9.7695,4.1816,4.2662,4.3574,4.4434,4.5015,4.564,4.6538,4.7139,4.7656,4.8086,4.8984,4.9687,5.0117,5.0156,4.9648,4.8359,4.8242,4.75,4.5742,4.5234,4.4414,4.3164,4.2695,4.2031,4.1172,4.1133,4.1172,4.1211,4.1601,4.2461,4.3711,4.4141,4.5039,4.6328,4.6758,4.793,4.9844,5.4101,5.8906,6.3867,6.6484,7.1172,7.6992,8.082,8.4179,8.7031,8.875,8.9922,8.9726,8.3711,8.1953,8.1172,7.4726,7.0312,6.7305,6.5976,6.2851,5.9726,5.9297,5.9805,6.039,6.039,6.1055,0.0,0.0,6.4297,6.5625,7.2539,7.1914,7.2109,7.8555,7.7969,7.7656,8.1133,8.3515,8.5508,8.7226,9.2656,9.6758,9.7656,9.7734,9.8437,10.0117,10.0312,10.0508,10.0898,10.1406,10.1797,10.2187,10.0586,9.9844,10.0312,9.8594,9.7695,9.7695,9.7695,9.7695,9.7695,9.7695,9.7695,9.7695,9.7695,9.7695,9.7695,9.7695,9.7695,9.7695,9.7695,9.7695,9.7695,9.7695,9.7695,9.7695,9.7695,9.7695,9.7695,4.2085,4.3371,4.4487,4.468,4.5372,4.6182,4.7066,4.7625,4.8421,4.9804,5.0664,5.1758,5.3203,5.2812,5.2266,5.1953,5.1328,5.0195,4.8437,4.7539,4.6601,4.5547,4.4687,4.3711,4.2656,4.2656,4.2266,4.1445,4.1601,4.2383,4.3711,4.3867,4.4883,4.6562,4.7305,4.9023,5.1797,5.7148,6.25,6.75,6.9023,7.1992,7.6172,8.1484,8.4297,8.5898,8.9648,9.1367,9.1172,8.7226,8.5547,8.4219,7.9258,7.4101,6.9609,6.789,6.4414,6.0976,6.0156,6.039,6.0859,6.0703,6.1172,6.1719,0.0,0.0,0.0,6.8125,6.6914,6.6836,7.2617,7.0937,7.0039,7.4297,7.6406,7.7734,7.8398,8.7695,9.4804,9.5664,9.5781,9.6562,9.8633,10.0,10.0586,10.0117,10.0703,10.1211,10.1601,9.9961,9.9414,10.0312,9.8594,9.7695,9.7695,9.7695,9.7695,9.7695,9.7695,9.7695,9.7695,9.7695,9.7695,9.7695,9.7695,9.7695,9.7695,9.7695,9.7695,9.7695,9.7695,9.7695,9.7695,9.7695,9.7695,9.7695,4.3085,4.3701,4.4547,4.5316,4.5719,4.6198,4.7075,4.8728,5.1011,5.4136,5.4648,5.6211,6.0117,5.7812,5.6601,5.8047,5.5351,5.2812,5.1094,5.0195,4.9023,4.7383,4.6484,4.5234,4.3594,4.3555,4.3125,4.2266,4.3047,4.3516,4.3711,4.4492,4.5781,4.7461,4.7578,5.0664,5.6055,5.9023,6.3672,6.9726,7.6601,7.9297,7.9765,8.5703,8.7656,8.7851,9.2812,9.4179,9.3164,9.0351,8.9883,8.914,8.1758,7.793,7.5273,7.0586,6.668,6.3672,6.2812,6.2656,6.2539,6.1758,6.164,6.1719,6.1719,0.0,6.1992,6.2617,0.0,6.3789,6.5312,0.0,0.0,6.6836,7.0859,7.3906,7.4023,7.914,8.3203,8.4101,8.4219,8.664,9.2851,9.9023,10.1601,9.9336,10.1992,10.3086,10.1719,9.9961,9.9414,10.0312,9.8594,9.7695,9.7695,9.7695,9.7695,9.7695,9.7695,9.7695,9.7695,9.7695,9.7695,9.7695,9.7695,9.7695,9.7695,9.7695,9.7695,9.7695,9.7695,9.7695,9.7695,9.7695,9.7695,9.7695,4.397,4.447,4.5163,4.5547,4.6086,4.674,4.7604,5.0271,5.3058,5.5622,5.6445,5.8242,6.2031,5.9844,5.9609,6.3359,6.0937,5.914,5.8906,5.6719,5.5117,5.4375,5.0156,4.7695,4.7461,4.5508,4.4023,4.3164,4.3516,4.3945,4.4453,4.4844,4.5937,4.7773,5.1797,5.5508,5.9297,6.6914,7.1015,7.3008,7.9765,8.1367,8.0312,8.5898,8.8398,8.9492,9.3711,9.5273,9.5156,9.3554,9.2265,9.082,8.8047,8.2226,7.6211,7.5,7.0469,6.5937,6.6562,6.707,6.7031,6.5195,6.5117,6.4805,6.2265,6.1719,6.1719,6.1719,0.0,0.0,0.0,0.0,0.0,0.0,6.7109,6.8828,6.8828,7.1133,7.5351,8.2226,8.3047,8.5351,9.1289,9.3554,9.5039,9.5976,9.7383,9.8125,9.789,9.8125,9.8633,9.9531,9.8359,9.7695,9.7695,9.7695,9.7695,9.7695,9.7695,9.7695,9.7695,9.7695,9.7695,9.7695,9.7695,9.7695,9.7695,9.7695,9.7695,9.7695,9.7695,9.7695,9.7695,9.7695,9.7695,9.7695,4.4778,4.5163,4.5586,4.5586,4.6355,4.7548,4.9337,5.2276,5.5052,5.7118,5.8222,6.0483,6.4852,6.2455,6.289,6.8789,6.6094,6.4531,6.5664,6.2265,6.0664,6.164,5.5039,5.1641,5.2305,4.9141,4.6445,4.4414,4.4648,4.4844,4.5,4.5508,4.6641,4.8555,5.4023,5.8711,6.3086,7.1758,7.6328,7.8203,8.3047,8.3984,8.2929,8.6758,8.9258,9.1172,9.4648,9.5703,9.5469,9.5781,9.4336,9.2304,9.1992,8.6133,7.9414,7.9453,7.5351,7.0937,7.168,7.1484,7.0742,6.9336,6.8047,6.6484,6.4023,6.2734,6.1992,6.1758,6.1719,0.0,0.0,0.0,6.2773,6.3164,0.0,6.4531,6.4531,6.5273,6.9297,7.8633,8.1211,8.3672,8.7422,8.8554,8.9922,9.1992,9.3008,9.4023,9.5156,9.6367,9.7617,9.8945,9.8398,9.7929,9.7695,9.7695,9.7695,9.7695,9.7695,9.7695,9.7695,9.7695,9.7695,9.7695,9.7695,9.7695,9.7695,9.7695,9.7695,9.7695,9.7695,9.7695,9.7695,9.7695,9.7695,9.7695,4.5547,4.5586,4.5586,4.5586,4.6355,4.8452,5.2756,5.4891,5.6966,5.9542,6.0577,6.3664,7.0494,6.6856,6.6992,7.4648,7.0078,6.75,6.9219,6.5273,6.4375,6.7773,6.1289,5.7617,5.7656,5.5078,5.125,4.6211,4.707,4.6641,4.5039,4.6719,4.8437,5.0195,5.2031,5.8476,6.8086,7.0078,7.668,8.5976,8.7812,8.8984,8.9687,8.9844,9.1015,9.2969,9.6406,9.5508,9.3242,9.6523,9.6484,9.4492,9.1133,8.9258,8.7461,8.3398,8.1406,8.0195,7.8633,7.5156,7.2344,7.3945,6.9336,6.5039,6.7461,6.539,6.2734,6.1875,6.1719,6.1719,6.1758,6.1758,6.1484,6.0664,6.125,0.0,0.0,6.2578,6.4805,6.9414,7.5117,7.8711,7.8906,8.5625,8.9336,8.7812,9.0781,9.3398,9.5117,9.5234,9.6406,9.8906,9.8984,9.8554,9.7695,9.7695,9.7695,9.7695,9.7695,9.7695,9.7695,9.7695,9.7695,9.7695,9.7695,9.7695,9.7695,9.7695,9.7695,9.7695,9.7695,9.7695,9.7695,9.7695,9.7695,9.7695,4.5701,4.5586,4.5778,4.6355,4.7163,4.9202,5.3528,5.5682,5.8363,6.2643,6.399,6.7193,7.4036,7.1788,7.2675,7.9829,7.71,7.5697,7.7472,7.4158,7.2695,7.3906,6.6914,6.2461,6.1289,5.707,5.2617,4.8008,4.7734,4.6992,4.5898,4.7031,4.8516,5.0469,5.6133,6.2812,7.0234,7.5937,8.1054,8.5547,8.7773,8.8554,8.8711,9.2148,9.3086,9.3047,9.6484,9.6953,9.6133,9.7304,9.7304,9.6562,9.4844,9.2539,9.0039,8.8008,8.5586,8.3711,8.4297,8.3398,8.1836,8.0117,7.668,7.2851,6.9726,6.6797,6.4453,6.3594,6.2969,6.3086,6.4805,6.3242,6.2187,6.3594,6.2656,6.1484,0.0,6.1601,6.289,6.4961,6.9492,7.3594,7.6484,7.914,8.1601,8.3906,8.6211,8.8515,9.0781,9.3086,9.5508,9.8047,9.8125,9.8008,9.7695,9.7695,9.7695,9.7695,9.7695,9.7695,9.7695,9.7695,9.7695,9.7695,9.7695,9.7695,9.7695,9.7695,9.7695,9.7695,9.7695,9.7695,9.7695,9.7695,9.7695,9.7695,4.6586,4.6471,4.6586,4.6855,4.8586,5.1471,5.6049,5.8511,6.1127,6.4718,6.7345,7.0536,7.4938,7.4827,7.6929,8.3158,8.1724,8.1336,8.3458,8.0123,7.8659,8.0035,7.3065,6.875,6.7969,6.2031,5.6875,5.2578,5.0156,4.8203,4.6797,4.7969,4.9297,5.0898,5.7109,6.3242,6.9375,7.6836,8.1211,8.332,8.6523,8.8398,8.9687,9.3008,9.3203,9.2187,9.625,9.7109,9.6484,9.7383,9.7695,9.7578,9.6758,9.5156,9.3398,9.2578,9.0742,8.914,8.9648,8.8867,8.7539,8.5898,8.2656,7.8984,7.5664,7.2695,7.0351,6.9531,6.7422,6.6367,6.8359,6.5117,6.2695,6.4414,6.3008,6.1484,0.0,6.1367,6.1914,6.2461,6.5781,6.9258,7.2383,7.3515,7.5586,7.9297,8.1445,8.4414,8.8476,9.1406,9.4414,9.7617,9.8008,9.8008,9.7695,9.7695,9.7695,9.7695,9.7695,9.7695,9.7695,9.7695,9.7695,9.7695,9.7695,9.7695,9.7695,9.7695,9.7695,9.7695,9.7695,9.7695,9.7695,9.7695,9.7695,9.7695,4.8163,4.824,4.8086,4.7394,5.0779,5.5203,6.0127,6.3012,6.5051,6.609,7.0514,7.3668,7.3899,7.6378,7.996,8.4945,8.4033,8.4302,8.6973,8.3061,8.2208,8.5722,7.9493,7.6247,7.6874,6.957,6.3633,5.9258,5.4023,5.0195,4.7773,4.9414,5.0664,5.1601,5.5078,5.9961,6.6094,7.2851,7.7461,8.0586,8.4922,8.9062,9.2695,9.2812,9.1758,9.0859,9.5898,9.6133,9.4453,9.6875,9.7695,9.7578,9.6797,9.707,9.7539,9.6797,9.6562,9.6211,9.4531,9.164,8.9453,9.1094,8.7031,8.3086,8.4687,8.2344,7.9648,7.8867,7.4687,7.1445,7.2383,6.7539,6.3437,6.3555,6.2539,6.1719,6.1719,6.164,6.164,6.168,6.3906,6.5781,6.668,6.9062,7.164,7.4219,7.6875,8.1289,8.8008,9.0156,9.3125,9.7383,9.8359,9.8398,9.7578,9.7578,9.7578,9.7578,9.7656,9.7695,9.7695,9.7695,9.7695,9.7695,9.7695,9.7695,9.7695,9.7695,9.7695,9.7695,9.7695,9.7695,9.7695,9.7695,9.7695,9.7695,4.9202,5.0087,5.1279,5.2356,5.6049,5.9511,6.1473,6.3935,6.6782,7.0129,7.2822,7.5822,7.9631,8.2939,8.5637,8.7632,8.7445,8.7214,8.7325,8.6384,8.5666,8.5389,8.3205,8.0262,7.6688,7.1069,6.5469,5.9883,5.4844,5.1406,4.9531,5.0,5.0976,5.25,5.5312,6.0312,6.6836,7.1172,7.8555,8.7695,9.1406,9.3164,9.3789,9.5664,9.4922,9.332,9.6523,9.7265,9.6836,9.7461,9.7695,9.7656,9.7461,9.7539,9.7656,9.7461,9.7383,9.7304,9.6836,9.5625,9.4453,9.4258,9.1094,8.7812,8.6992,8.4648,8.2344,8.1484,7.9219,7.8047,8.0234,7.4101,6.9375,7.1328,6.6055,6.1719,6.1719,6.1133,6.0976,6.1601,6.2305,6.3281,6.4805,6.7305,6.9648,7.1562,7.4726,7.8711,8.3672,8.7383,9.1054,9.4765,9.5703,9.6054,9.5859,9.5859,9.5859,9.5859,9.7109,9.7695,9.7695,9.7695,9.7695,9.7695,9.7695,9.7695,9.7695,9.7695,9.7695,9.7695,9.7695,9.7695,9.7695,9.7695,9.7695,9.7695,5.1241,5.2395,5.4126,5.5857,5.9973,6.3551,6.5166,6.8513,7.2129,7.563,7.8515,8.1208,8.3708,8.7017,8.9402,9.0287,9.0671,9.071,9.0325,9.0003,8.9068,8.7512,8.6357,8.4194,8.0942,7.5655,7.0376,6.5156,5.9726,5.5273,5.1875,5.1875,5.2578,5.3945,5.6172,5.9961,6.5,7.0703,7.9023,8.8554,9.0898,9.2656,0.0,9.5508,9.5859,9.5742,9.7187,9.7695,9.7695,9.7695,9.7695,9.7695,9.7695,9.7695,9.7695,9.7695,9.7695,9.7617,9.7265,9.7109,9.6836,9.5976,9.457,9.3047,9.1719,9.0312,8.9101,8.8594,8.5898,8.4062,8.5547,7.8476,7.2031,7.0859,6.5937,6.2265,6.2265,6.1523,6.1133,6.164,6.1719,6.2109,6.3086,6.5547,6.793,6.9961,7.3359,7.8047,8.4258,8.6133,8.9336,9.4297,9.457,9.4062,9.2929,9.5156,9.5742,9.4648,9.6719,9.7695,9.7695,9.7695,9.7695,9.7695,9.7695,9.7695,9.7695,9.7695,9.7695,9.7695,9.7695,9.7695,9.7695,9.7695,9.7695,9.7695,5.3857,5.5049,5.6703,5.8357,6.2858,6.7205,7.009,7.4284,7.813,8.09,8.4747,8.6978,8.6324,8.944,9.1825,9.2595,9.3287,9.3787,9.4054,9.3172,9.2018,9.0668,8.9013,8.7704,8.6813,8.1189,7.615,7.1811,6.5935,6.0117,5.4492,5.4375,5.4805,5.5703,5.7344,5.9922,6.3594,7.2031,7.9883,8.6797,8.8125,9.0976,9.4414,9.4414,9.5781,9.7695,9.7695,9.7695,9.7695,9.7695,9.7695,9.7695,9.7695,9.7695,9.7695,9.7695,9.7695,9.7539,9.6836,9.7187,9.7539,9.6836,9.7187,9.7539,9.6836,9.664,9.664,9.664,9.2969,8.9726,8.9726,8.1992,7.3711,6.789,6.5,6.3476,6.3359,6.3086,6.2656,6.2109,0.0,0.0,0.0,0.0,0.0,0.0,7.2109,7.7539,8.539,8.5039,8.7422,9.3633,9.3672,9.2461,9.0195,9.4844,9.6133,9.4101,9.6445,9.7617,9.7695,9.7695,9.7695,9.7695,9.7695,9.7695,9.7695,9.7695,9.7695,9.7695,9.7578,9.7539,9.7539,9.7422,9.7383,9.7383,5.6357,5.7665,5.9165,6.0165,6.4589,6.9552,7.4207,7.5668,7.763,8.1593,8.4555,8.6555,8.7094,9.0825,9.3326,9.348,9.3633,9.371,9.3749,9.3595,9.3095,9.2133,9.1133,8.9863,8.8325,8.3303,7.7993,7.243,6.7344,6.2226,5.7187,5.6484,5.6601,5.75,5.8515,6.3164,7.0664,7.789,8.4219,8.9648,9.3398,9.5781,9.7031,9.7031,9.7304,9.7695,9.7695,9.7695,9.7695,9.7695,9.7695,9.7695,9.7695,9.7695,9.7695,9.7695,9.7695,9.7656,9.7539,9.7578,9.7656,9.7539,9.7617,9.7656,9.7539,9.75,9.75,9.75,9.6211,9.5117,9.5117,8.7344,7.9453,7.4844,6.9648,6.5976,6.5234,6.7422,6.7812,6.4258,0.0,6.7461,0.0,0.0,0.0,0.0,0.0,7.3008,7.664,8.0625,8.3984,8.6601,9.0,9.1523,9.1094,9.3398,9.4687,9.5,9.6133,9.707,9.7695,9.7695,9.7695,9.7695,9.7695,9.7695,9.7695,9.7695,9.7695,9.7617,9.6953,9.6719,9.6601,9.5898,9.5625,9.5859,5.9473,6.0627,6.1743,6.2627,6.6974,7.1937,7.6592,7.9554,8.2785,8.7017,8.8671,9.0094,9.1825,9.3441,9.4557,9.5018,9.5057,9.5057,9.5057,9.5057,9.4672,9.3826,9.2941,9.171,9.0017,8.7214,8.204,7.4458,7.1303,6.6316,5.9726,5.8515,5.8398,5.9375,6.3398,6.7969,7.3203,8.1484,8.6914,9.039,9.4765,9.6992,9.7695,9.7695,9.7695,9.7695,9.7695,9.7695,9.7695,9.7695,9.7695,9.7695,9.7695,9.7695,9.7695,9.7695,9.7695,9.7695,9.7695,9.7695,9.7695,9.7695,9.7695,9.7695,9.7695,9.7695,9.7695,9.7695,9.7383,9.6445,9.4219,8.9687,8.4883,8.0586,7.5195,7.125,7.039,7.1289,7.1094,6.8594,0.0,0.0,0.0,0.0,0.0,0.0,0.0,0.0,7.6406,7.8555,8.1875,8.6719,8.8867,8.9531,8.8672,9.3047,9.4336,9.2539,9.5234,9.6914,9.7695,9.7695,9.7695,9.7695,9.7265,9.707,9.7031,9.6601,9.6406,9.6367,9.5976,9.582,9.5781,9.5351,9.5195,9.5312,6.4128,6.5628,6.6705,6.7205,7.1206,7.5707,7.9746,8.3939,8.8055,9.1979,9.2826,9.3787,9.5788,9.5557,9.5557,9.6249,9.6288,9.6288,9.6288,9.6288,9.598,9.5288,9.4441,9.3249,9.1748,9.0902,8.6329,7.7815,7.5701,7.0486,6.2493,6.1665,6.21,6.3867,6.9922,7.3906,7.6562,8.4804,8.9492,9.1719,9.5312,9.7148,9.7695,9.7695,9.7695,9.7695,9.7695,9.7695,9.7695,9.7695,9.7695,9.7695,9.7695,9.7695,9.7695,9.7695,9.7695,9.7695,9.7695,9.7695,9.7695,9.7695,9.7695,9.7695,9.7695,9.7695,9.7695,9.7695,9.7695,9.6719,9.3515,9.1484,8.9062,8.5273,8.0039,7.6015,7.4765,7.5117,7.4883,7.3281,0.0,0.0,7.1445,0.0,0.0,0.0,0.0,0.0,7.793,7.7383,8.0273,8.7656,8.789,8.7617,8.6992,9.2578,9.4023,9.1406,9.4492,9.6367,9.7187,9.7187,9.7187,9.7148,9.6484,9.6211,9.6172,9.5469,9.5195,9.5195,9.5,9.4922,9.4883,9.4726,9.4648,9.4648,7.1937,7.4938,7.6861,7.6207,7.9015,8.2516,8.6017,8.7632,8.944,9.2133,9.3826,9.4864,9.5095,9.5749,9.6211,9.6288,9.6288,9.6288,9.6288,9.6288,9.6249,9.6172,9.5326,9.4441,9.348,9.2672,8.9255,8.309,7.9105,7.3295,6.5883,6.7308,7.0172,7.4219,7.7422,8.1133,8.5234,8.9258,9.2851,9.5976,9.7148,9.7617,9.7695,9.7695,9.7695,9.7695,9.7695,9.7695,9.7695,9.7695,9.7695,9.7695,9.7695,9.7695,9.7695,9.7695,9.7695,9.7695,9.7695,9.7695,9.7695,9.7695,9.7695,9.7695,9.7695,9.7695,9.7695,9.7695,9.7695,9.7812,9.8203,9.4375,9.0547,8.8554,8.2617,7.7383,7.4922,7.9258,8.1172,7.7187,7.9453,0.0,7.3594,6.9961,0.0,0.0,6.8476,0.0,7.7031,7.6484,7.8867,8.5078,8.5273,8.6679,8.9609,9.1054,9.3164,9.5898,9.4687,9.4609,9.5429,9.5429,9.5429,9.5429,9.5351,9.5312,9.5312,9.5234,9.5195,9.5117,9.4336,9.4023,9.3945,9.3125,9.2851,9.2851,7.5168,7.7669,7.9323,7.9554,8.2785,8.6017,8.7902,9.0633,9.2826,9.3864,9.4557,9.5211,9.5711,9.6095,9.6288,9.6288,9.6288,9.6288,9.6288,9.6288,9.6288,9.6288,9.598,9.5365,9.448,9.3633,9.0829,8.5954,8.0799,7.6762,7.3739,7.1463,7.2967,7.7774,8.1625,8.4922,8.7812,9.2461,9.5234,9.6562,9.7383,9.7695,9.7695,9.7695,9.7695,9.7695,9.7695,9.7695,9.7695,9.7695,9.7695,9.7695,9.7695,9.7695,9.7695,9.7695,9.7695,9.7695,9.7695,9.7695,9.7695,9.7695,9.7695,9.7695,9.7695,9.7695,9.7695,9.7695,9.7695,9.7812,9.8164,9.6953,9.5039,9.2265,8.9531,8.5937,8.0742,8.5664,8.7226,8.0312,8.2539,8.3281,0.0,0.0,0.0,0.0,0.0,7.0781,7.3906,7.668,8.0703,8.6289,8.6914,8.9101,9.3086,9.1914,9.2265,9.414,9.3984,9.4375,9.5195,9.5195,9.4922,9.4414,9.4414,9.4101,9.3633,9.3633,9.3633,9.3594,9.3242,9.3125,9.3086,9.2734,9.2617,9.2617,8.0362,8.2785,8.4362,8.4747,8.7709,9.021,9.0825,9.348,9.5365,9.5365,9.5365,9.5634,9.6249,9.6288,9.6288,9.6288,9.6288,9.6288,9.6288,9.6288,9.6288,9.6288,9.6288,9.5903,9.5018,9.4634,9.2749,8.9248,8.3951,8.0946,8.0106,7.6188,7.7305,8.2848,8.6373,8.8969,9.0937,9.5039,9.6797,9.6914,9.7461,9.7695,9.7695,9.7695,9.7695,9.7695,9.7695,9.7695,9.7695,9.7695,9.7695,9.7695,9.7695,9.7695,9.7695,9.7695,9.7695,9.7695,9.7695,9.7695,9.7695,9.7695,9.7695,9.7695,9.7695,9.7695,9.7695,9.7695,9.7695,9.7695,9.7695,9.8203,9.7578,9.4414,9.3672,9.1289,8.4883,8.9726,9.0976,8.3086,8.4765,8.6015,8.4492,7.7461,0.0,0.0,7.3828,7.2617,7.3867,7.7109,8.1367,8.6562,8.6523,8.875,9.3633,9.1367,9.125,9.3359,9.3476,9.3828,9.4453,9.4453,9.4101,9.3515,9.3515,9.3164,9.2617,9.2617,9.2617,9.2617,9.2617,9.2617,9.2617,9.2617,9.2617,9.2617,8.9248,9.2479,9.4557,9.371,9.5018,9.6211,9.6211,9.6249,9.6288,9.6288,9.6288,9.6288,9.6288,9.6288,9.6288,9.6288,9.6288,9.6288,9.6288,9.6288,9.6288,9.6288,9.6288,9.5903,9.5018,9.5826,9.5403,9.3633,8.9363,8.6017,8.3516,8.1963,8.485,9.1402,9.2597,9.4179,9.6054,9.6992,9.75,9.7695,9.7695,9.7695,9.7695,9.7695,9.7695,9.7695,9.7695,9.7695,9.7695,9.7695,9.7695,9.7695,9.7695,9.7695,9.7695,9.7695,9.7695,9.7695,9.7695,9.7695,9.7695,9.7695,9.7695,9.7695,9.7695,9.7695,9.7695,9.7695,9.7695,9.7695,9.7695,9.7695,9.6875,9.4336,9.3164,9.082,8.5625,9.0078,9.164,8.5586,8.6406,8.7148,8.625,8.1445,0.0,7.8476,7.8437,7.8398,7.8437,7.7656,7.9609,8.4765,8.2422,8.3984,9.0,8.8398,9.0117,9.5156,9.3437,9.2617,9.2617,9.2617,9.2617,9.2617,9.2617,9.2617,9.2617,9.2617,9.2617,9.2617,9.2617,9.2617,9.2617,9.2617,9.2617,9.2617,9.1171,9.2979,9.421,9.4518,9.5057,9.5595,9.6211,9.6288,9.6288,9.6288,9.6288,9.6288,9.6288,9.6288,9.6288,9.6288,9.6288,9.6288,9.6288,9.6288,9.6288,9.6288,9.6288,9.6172,9.5903,9.5557,9.5441,9.548,9.0633,8.7863,8.7094,8.8936,9.1245,9.3903,9.448,9.5329,9.6485,9.7128,9.7422,9.75,9.7656,9.7695,9.7695,9.7695,9.7695,9.7695,9.7695,9.7695,9.7695,9.7695,9.7695,9.7695,9.7695,9.7695,9.7695,9.7695,9.8125,9.8476,9.7851,9.8125,9.8437,9.7851,9.7695,9.7695,9.7695,9.7695,9.7695,9.7695,9.7695,9.7695,9.7695,9.7695,9.6875,9.4297,9.5625,9.4961,8.9179,9.2578,9.3867,8.8945,8.9375,9.0469,9.1367,8.7304,0.0,8.4648,8.5156,8.3906,8.039,8.2187,8.5703,9.0859,9.0234,9.1836,9.6094,9.2695,9.2383,9.5195,9.4023,9.3164,9.2617,9.2617,9.2617,9.2617,9.2617,9.2617,9.2617,9.2617,9.2617,9.2617,9.2617,9.2617,9.2617,9.2617,9.2617,9.2617,9.3133,9.4095,9.4864,9.5403,9.548,9.5672,9.6211,9.6288,9.6288,9.6288,9.6288,9.6288,9.6288,9.6288,9.6288,9.6288,9.6288,9.6288,9.6288,9.6288,9.6288,9.6288,9.6288,9.6288,9.6288,9.5788,9.5749,9.6288,9.3095,9.121,9.0633,9.3056,9.448,9.5018,9.5172,9.5749,9.663,9.7051,9.7308,9.7422,9.7617,9.7695,9.7695,9.7695,9.7695,9.7695,9.7695,9.7695,9.7695,9.7695,9.7695,9.7773,9.8086,9.8203,9.8203,9.8203,9.8828,9.9375,9.8828,9.9062,9.9297,9.8398,9.8203,9.8086,9.7773,9.7695,9.7695,9.7695,9.7695,9.7695,9.7695,9.7695,9.7187,9.5586,9.7109,9.6875,9.2148,9.4922,9.5586,9.0586,9.1367,9.2812,0.0,9.1367,8.9687,9.0351,8.9336,8.7851,8.5937,8.7304,8.9297,9.1875,9.2265,9.3945,9.7031,9.4101,9.3476,9.5195,9.3984,9.3125,9.2617,9.2617,9.2617,9.2617,9.2617,9.2617,9.2617,9.2617,9.2617,9.2617,9.2617,9.2617,9.2617,9.2617,9.2617,9.2617,9.5095,9.5749,9.6288,9.6288,9.6288,9.6288,9.6288,9.6288,9.6288,9.6288,9.6288,9.6288,9.6288,9.6288,9.6288,9.6288,9.6288,9.6288,9.6288,9.6288,9.6288,9.6288,9.6288,9.6288,9.6288,9.6288,9.6288,9.6288,9.6288,9.548,9.3903,9.4711,9.5095,9.5095,9.5095,9.5634,9.6596,9.6865,9.7153,9.7381,9.7617,9.7695,9.7695,9.7695,9.7695,9.7695,9.7695,9.7695,9.7695,9.7695,9.7695,9.7851,9.8711,9.9023,9.9101,9.9101,9.9726,10.039,10.0312,10.0312,10.0195,9.9297,9.9023,9.8789,9.789,9.7695,9.7695,9.7695,9.7695,9.7695,9.7695,9.7695,9.7695,9.7695,9.7695,9.6797,9.4258,9.664,9.6562,9.1015,9.25,0.0,9.5351,9.3984,9.3633,9.5,9.164,9.0703,9.3476,9.2539,9.1133,8.9375,9.0117,9.1719,9.414,9.3281,9.3633,9.5078,9.3398,9.2617,9.2617,9.2617,9.2617,9.2617,9.2617,9.2617,9.2617,9.2617,9.2617,9.2617,9.2617,9.2617,9.2617,9.2617,9.2617,9.2617,9.598,9.6172,9.6288,9.6288,9.6288,9.6288,9.6288,9.6288,9.6288,9.6288,9.6288,9.6288,9.6288,9.6288,9.6288,9.6288,9.6288,9.6288,9.6288,9.6288,9.6288,9.6288,9.6288,9.6288,9.6288,9.6288,9.6288,9.6288,9.6288,9.6095,9.5672,9.5903,9.598,9.598,9.598,9.6134,9.6403,9.6826,9.7025,9.711,9.7524,9.7695,9.7695,9.7695,9.7695,9.7695,9.7695,9.7695,9.7695,9.7695,9.7695,9.7851,9.8711,9.9453,10.0,10.0,10.0586,10.1094,10.0508,10.0781,10.1094,10.0195,9.9492,9.8789,9.789,9.7695,9.7695,9.7695,9.7695,9.7695,9.7695,9.7695,9.7695,9.7695,9.7695,9.6797,9.4258,9.4609,9.4804,9.4062,9.4531,9.5742,9.789,9.7734,9.6562,9.4375,9.6289,9.5625,9.1172,9.5547,9.7383,9.5625,9.5781,9.6172,9.6797,9.5976,9.5117,9.4179,9.3125,9.2617,9.2617,9.2617,9.2617,9.2617,9.2617,9.2617,9.2617,9.2617,9.2617,9.2617,9.2617,9.2617,9.2617,9.2617,9.2617,9.2617,9.6288,9.6288,9.6288,9.6288,9.6288,9.6288,9.6288,9.6288,9.6288,9.6288,9.6288,9.6288,9.6288,9.6288,9.6288,9.6288,9.6288,9.6288,9.6288,9.6288,9.6288,9.6288,9.6288,9.6288,9.6288,9.6288,9.6288,9.6288,9.6288,9.6288,9.6288,9.6288,9.6288,9.6288,9.6288,9.6365,9.6442,9.6826,9.7066,9.7187,9.7558,9.7695,9.7695,9.7695,9.7695,9.7695,9.7695,9.7695,9.7695,9.7695,9.7969,9.8437,9.9336,10.0195,10.1015,10.1406,10.1797,10.2109,10.1601,10.1797,10.1992,10.1094,9.9922,9.8867,9.8398,9.8008,9.7695,9.7695,9.7695,9.7695,9.7695,9.7695,9.7695,9.7695,9.6719,9.5469,9.4101,9.3906,9.4062,9.4531,9.5625,9.7031,9.8828,9.8633,9.7969,9.6914,9.7187,9.6406,9.4219,9.6172,9.6953,9.5976,9.7109,9.7695,9.7695,9.6523,9.5234,9.3906,9.3008,9.2617,9.2617,9.2617,9.2617,9.2617,9.2617,9.2617,9.2617,9.2617,9.2617,9.2617,9.2617,9.2617,9.2617,9.2617,9.2617,9.2656,9.6288,9.6288,9.6288,9.6288,9.6288,9.6288,9.6288,9.6288,9.6288,9.6288,9.6288,9.6288,9.6288,9.6288,9.6288,9.6288,9.6288,9.6288,9.6288,9.6288,9.6288,9.6288,9.6288,9.6288,9.6288,9.6288,9.6288,9.6288,9.6288,9.6288,9.6288,9.6288,9.6288,9.6288,9.6288,9.6403,9.6596,9.6865,9.7171,9.7392,9.7622,9.7695,9.7695,9.7695,9.7695,9.7695,9.7695,9.7695,9.7695,9.7695,9.8281,9.914,10.0,10.0898,10.1797,10.2617,10.289,10.289,10.289,10.289,10.2695,10.1797,10.0508,9.9336,9.9062,9.8437,9.7851,9.7734,9.7695,9.7695,9.7695,9.7695,9.7578,9.7187,9.5312,9.375,9.3359,9.3633,9.3906,9.3906,9.6133,9.8008,9.8711,9.8125,9.832,9.9804,9.6523,9.5586,9.8086,9.5859,9.4297,9.3906,9.6367,9.7578,9.7344,9.5898,9.4687,9.3672,9.2969,9.2617,9.2617,9.2617,9.2617,9.2617,9.2617,9.2617,9.2617,9.2617,9.2617,9.2617,9.2617,9.2617,9.2617,9.2734,9.2812,9.2929,9.6288,9.6288,9.6288,9.6288,9.6288,9.6288,9.6288,9.6288,9.6288,9.6288,9.6288,9.6288,9.6288,9.6288,9.6288,9.6288,9.6288,9.6288,9.6288,9.6288,9.6288,9.6288,9.6288,9.6288,9.6288,9.6288,9.6288,9.6288,9.6288,9.6288,9.6288,9.6288,9.6288,9.6288,9.6288,9.6403,9.6596,9.6865,9.7171,9.7392,9.7622,9.7695,9.7695,9.7695,9.7695,9.7695,9.7695,9.7695,9.7695,9.7695,9.8281,9.914,10.0,10.0898,10.1797,10.2617,10.289,10.289,10.289,10.289,10.2695,10.1797,10.1406,10.0781,9.9336,9.8906,9.8594,9.7851,9.7695,9.7695,9.7695,9.7695,9.6992,9.4844,9.414,9.3125,9.0937,9.25,9.3906,9.3906,9.6133,9.7734,9.789,9.7773,9.7812,9.8086,9.75,9.6406,9.4765,9.6211,9.6133,9.3984,9.6367,9.7031,9.5586,9.5312,9.4375,9.2812,9.2656,9.2617,9.2617,9.2617,9.2617,9.2617,9.2617,9.2617,9.2617,9.2617,9.2617,9.2617,9.2617,9.2617,9.2695,9.3437,9.3711,9.3828,9.6288,9.6288,9.6288,9.6288,9.6288,9.6288,9.6288,9.6288,9.6288,9.6288,9.6288,9.6288,9.6288,9.6288,9.6288,9.6288,9.6288,9.6288,9.6288,9.6288,9.6288,9.6288,9.6288,9.6288,9.6288,9.6288,9.6288,9.6288,9.6288,9.6288,9.6288,9.6288,9.6288,9.6288,9.6288,9.648,9.6826,9.6942,9.7238,9.7566,9.7672,9.7695,9.7695,9.7695,9.7695,9.7695,9.7695,9.7695,9.7695,9.7695,9.8281,9.914,10.0,10.0898,10.1797,10.2617,10.289,10.289,10.289,10.289,10.2812,10.2383,10.1601,10.0703,9.9883,9.8984,9.8203,9.7773,9.7695,9.7695,9.7695,9.7695,9.6875,9.4297,9.3906,9.3008,9.0351,9.2265,9.3906,9.3906,9.6133,9.7695,9.7695,9.7695,9.7695,9.7695,9.7695,9.7187,9.6015,9.707,9.7148,9.5976,9.7109,9.7109,9.5898,9.5898,9.5039,9.3281,9.3281,9.3047,9.2617,9.2617,9.2617,9.2617,9.2617,9.2617,9.2617,9.2617,9.2617,9.2617,9.2617,9.2617,9.2695,9.3594,9.3906,9.4101,9.6288,9.6288,9.6288,9.6288,9.6288,9.6288,9.6288,9.6288,9.6288,9.6288,9.6288,9.6288,9.6288,9.6288,9.6288,9.6288,9.6288,9.6288,9.6288,9.6288,9.6288,9.6288,9.6288,9.6288,9.6288,9.6288,9.6288,9.6288,9.6288,9.6288,9.6288,9.6288,9.6288,9.6288,9.6288,9.6557,9.6979,9.7032,9.7282,9.7695,9.7695,9.7695,9.7695,9.7695,9.7695,9.7695,9.7695,9.7695,9.7695,9.7695,9.8281,9.9101,9.9804,10.0586,10.1406,10.2109,10.2304,10.2383,10.2812,10.289,10.289,10.2617,10.1601,10.0508,10.0117,9.8945,9.7929,9.7734,9.7695,9.7695,9.7695,9.7695,9.6875,9.4297,9.3906,9.3203,9.1172,9.2617,9.4101,9.4726,9.6523,9.7695,9.7695,9.7695,9.7695,9.7695,9.7695,9.7695,9.7695,9.7695,9.7695,9.7695,9.7695,9.7304,9.6523,9.6484,9.5742,9.4219,9.4219,9.3867,9.3203,9.3203,9.3203,9.3203,9.3008,9.289,9.289,9.289,9.289,9.2929,9.3125,9.3203,9.332,9.4179,9.4492,9.4726,9.6288,9.6288,9.6288,9.6288,9.6288,9.6288,9.6288,9.6288,9.6288,9.6288,9.6288,9.6288,9.6288,9.6288,9.6288,9.6288,9.6288,9.6288,9.6288,9.6288,9.6288,9.6288,9.6288,9.6288,9.6288,9.6288,9.6288,9.6288,9.6288,9.6288,9.6288,9.6288,9.6288,9.6288,9.6288,9.6557,9.701,9.7019,9.7262,9.7695,9.7695,9.7695,9.7695,9.7695,9.7695,9.7695,9.7695,9.7695,9.7695,9.7695,9.8281,9.9023,9.9062,9.9687,10.039,10.0508,10.0508,10.0781,10.25,10.289,10.2695,10.1914,10.1601,10.1094,9.9453,9.8984,9.8672,9.7851,9.7695,9.7695,9.7695,9.7695,9.6875,9.4297,9.3906,9.3828,9.3633,9.3789,9.4765,9.7148,9.7578,9.7695,9.7695,9.7695,9.7695,9.7695,9.7695,9.7695,9.7695,9.7695,9.7695,9.7695,9.7695,9.7304,9.6523,9.6484,9.6015,9.5117,9.5117,9.5078,9.5,9.5,9.5,9.4961,9.414,9.3789,9.3789,9.3789,9.3789,9.3867,9.4687,9.5,9.5117,9.5976,9.6328,9.6445,9.6288,9.6288,9.6288,9.6288,9.6288,9.6288,9.6288,9.6288,9.6288,9.6288,9.6288,9.6288,9.6288,9.6288,9.6288,9.6288,9.6288,9.6288,9.6288,9.6288,9.6288,9.6288,9.6288,9.6288,9.6288,9.6288,9.6288,9.6288,9.6288,9.6288,9.6288,9.6288,9.6288,9.6288,9.6288,9.6557,9.701,9.6987,9.7265,9.7695,9.7695,9.7695,9.7695,9.7695,9.7695,9.7695,9.7695,9.7695,9.7695,9.7695,9.7929,9.8281,9.8828,9.9219,9.9609,10.0117,10.0312,10.039,10.1094,10.1289,10.1211,10.0898,10.039,9.9804,9.914,9.8594,9.8086,9.7773,9.7695,9.7695,9.7695,9.7695,9.6875,9.4297,9.5234,9.5703,9.4101,9.5273,9.6601,9.7578,9.7695,9.7695,9.7695,9.7695,9.7695,9.7695,9.7695,9.7695,9.7695,9.7695,9.7695,9.7695,9.7695,9.7539,9.7265,9.7226,9.6836,9.6015,9.6015,9.5703,9.5195,9.5195,9.5195,9.5195,9.4844,9.4726,9.4726,9.4726,9.4726,9.4726,9.5078,9.5195,9.5312,9.6172,9.6484,9.6601,9.6288,9.6288,9.6288,9.6288,9.6288,9.6288,9.6288,9.6288,9.6288,9.6288,9.6288,9.6288,9.6288,9.6288,9.6288,9.6288,9.6288,9.6288,9.6288,9.6288,9.6288,9.6288,9.6288,9.6288,9.6288,9.6288,9.6288,9.6288,9.6288,9.6288,9.6288,9.6288,9.6288,9.6288,9.6288,9.6519,9.6895,9.6948,9.7226,9.7617,9.7656,9.7695,9.7695,9.7695,9.7695,9.7695,9.7695,9.7695,9.7695,9.7695,9.7695,9.7812,9.8398,9.8594,9.8711,9.9297,9.9492,9.9492,9.9492,9.9492,9.9531,9.9804,9.9453,9.8945,9.8633,9.8125,9.7695,9.7695,9.7695,9.7695,9.7695,9.7695,9.7148,9.539,9.6562,9.7109,9.5351,9.6601,9.7695,9.7695,9.7695,9.7695,9.7695,9.7695,9.7695,9.7695,9.7695,9.7695,9.7695,9.7695,9.7695,9.7695,9.7695,9.7695,9.7695,9.7695,9.7422,9.6875,9.6875,9.6562,9.5976,9.5976,9.5976,9.5976,9.5703,9.5625,9.5625,9.5625,9.5625,9.5625,9.5898,9.5976,9.6054,9.664,9.6875,9.6913,9.6288,9.6288,9.6288,9.6288,9.6288,9.6288,9.6288,9.6288,9.6288,9.6288,9.6288,9.6288,9.6288,9.6288,9.6288,9.6288,9.6288,9.6288,9.6288,9.6288,9.6288,9.6288,9.6288,9.6288,9.6288,9.6288,9.6288,9.6288,9.6288,9.6288,9.6288,9.6288,9.6288,9.6288,9.6288,9.6403,9.6625,9.6909,9.7148,9.7422,9.7617,9.7695,9.7695,9.7695,9.7695,9.7695,9.7695,9.7695,9.7695,9.7695,9.7695,9.7695,9.7695,9.7695,9.7695,9.7695,9.7695,9.7695,9.7695,9.7695,9.789,9.8789,9.8984,9.875,9.789,9.7695,9.7695,9.7695,9.7695,9.7695,9.7695,9.7695,9.7695,9.7695,9.7695,9.7695,9.7695,9.7695,9.7695,9.7695,9.7695,9.7695,9.7695,9.7695,9.7695,9.7695,9.7695,9.7695,9.7695,9.7695,9.7695,9.7695,9.7695,9.7695,9.7695,9.7695,9.7695,9.7695,9.7695,9.7695,9.7695,9.7695,9.7695,9.7656,9.6875,9.6523,9.6523,9.6523,9.6523,9.6601,9.7383,9.7695,9.7695,9.7695,9.7695,9.768,9.6288,9.6288,9.6288,9.6288,9.6288,9.6288,9.6288,9.6288,9.6288,9.6288,9.6288,9.6288,9.6288,9.6288,9.6288,9.6288,9.6288,9.6288,9.6288,9.6288,9.6288,9.6288,9.6288,9.6288,9.6288,9.6288,9.6288,9.6288,9.6288,9.6288,9.6288,9.6288,9.6288,9.6288,9.6288,9.6403,9.6594,9.689,9.7154,9.7422,9.7617,9.7695,9.7695,9.7539,9.7578,9.7695,9.7539,9.7578,9.7695,9.7695,9.7695,9.7695,9.7695,9.7695,9.7695,9.7695,9.7695,9.7695,9.7695,9.7695,9.7773,9.8008,9.8086,9.8008,9.7773,9.7695,9.7695,9.7695,9.7695,9.7695,9.7695,9.7695,9.7695,9.7695,9.7695,9.7695,9.7695,9.7695,9.7695,9.7695,9.7695,9.7695,9.7695,9.7695,9.7695,9.7695,9.7695,9.7695,9.7695,9.7695,9.7695,9.7695,9.7695,9.7695,9.7695,9.7695,9.7695,9.7695,9.7695,9.7695,9.7695,9.7695,9.7695,9.7695,9.7461,9.7344,9.7344,9.7344,9.7344,9.7383,9.7617,9.7695,9.7695,9.7695,9.7617,9.7446,9.6288,9.6288,9.6288,9.6288,9.6288,9.6288,9.6288,9.6288,9.6288,9.6288,9.6288,9.6288,9.6288,9.6288,9.6288,9.6288,9.6288,9.6288,9.6288,9.6288,9.6288,9.6288,9.6288,9.6288,9.6288,9.6288,9.6288,9.6288,9.6288,9.6288,9.6288,9.6288,9.6288,9.6288,9.6288,9.6365,9.648,9.6711,9.6943,9.7109,9.7344,9.7422,9.7422,9.7304,9.7304,9.7422,9.7407,9.7461,9.7578,9.7656,9.7695,9.7695,9.7695,9.7695,9.7695,9.7695,9.7695,9.7695,9.7695,9.7695,9.7695,9.7695,9.7695,9.7695,9.7695,9.7695,9.7695,9.7695,9.7695,9.7695,9.7695,9.7695,9.7695,9.7695,9.7695,9.7695,9.7695,9.7695,9.7695,9.7695,9.7695,9.7695,9.7695,9.7695,9.7695,9.7695,9.7695,9.7695,9.7695,9.7695,9.7695,9.7695,9.7695,9.7695,9.7695,9.7695,9.7695,9.7695,9.7695,9.7695,9.7695,9.7695,9.7695,9.7695,9.7695,9.7695,9.7695,9.7695,9.7695,9.7695,9.7695,9.7695,9.7695,9.7617,9.75,9.7355,9.6288,9.6288,9.6288,9.6288,9.6288,9.6288,9.6288,9.6288,9.6288,9.6288,9.6288,9.6288,9.6288,9.6288,9.6288,9.6288,9.6288,9.6288,9.6288,9.6288,9.6288,9.6288,9.6288,9.6288,9.6288,9.6288,9.6288,9.6288,9.6288,9.6288,9.6288,9.6288,9.6288,9.6288,9.6288,9.6288,9.6326,9.6519,9.6601,9.6629,9.6903,9.702,9.702,9.6981,9.697,9.7037,9.7277,9.7379,9.7422,9.7617,9.7695,9.7695,9.7695,9.7695,9.7695,9.7695,9.7695,9.7695,9.7695,9.7695,9.7695,9.7695,9.7695,9.7695,9.7695,9.7695,9.7695,9.7695,9.7695,9.7695,9.7695,9.7695,9.7695,9.7695,9.7695,9.7695,9.7695,9.7695,9.7695,9.7695,9.7695,9.7695,9.7695,9.7695,9.7695,9.7695,9.7695,9.7695,9.7695,9.7695,9.7695,9.7695,9.7695,9.7695,9.7695,9.7695,9.7695,9.7695,9.7695,9.7695,9.7695,9.7695,9.7695,9.7695,9.7695,9.7695,9.7695,9.7695,9.7695,9.7695,9.7695,9.7695,9.7695,9.7455,9.7398,9.7287,9.6288,9.6288,9.6288,9.6288,9.6288,9.6288,9.6288,9.6288,9.6288,9.6288,9.6288,9.6288,9.6288,9.6288,9.6288,9.6288,9.6288,9.6288,9.6288,9.6288,9.6288,9.6288,9.6288,9.6288,9.6288,9.6288,9.6288,9.6288,9.6288,9.6288,9.6288,9.6288,9.6288,9.6288,9.6288,9.6288,9.6326,9.6519,9.6613,9.6619,9.689,9.6967,9.6967,9.6774,9.6828,9.7015,9.704,9.7199,9.7422,9.7617,9.7695,9.7695,9.7695,9.7695,9.7695,9.7695,9.7695,9.7695,9.7695,9.7695,9.7695,9.7695,9.7695,9.7695,9.7695,9.7695,9.7695,9.7695,9.7695,9.7695,9.7695,9.7695,9.7695,9.7695,9.7695,9.7695,9.7695,9.7695,9.7695,9.7695,9.7695,9.7695,9.7695,9.7695,9.7695,9.7695,9.7695,9.7695,9.7695,9.7695,9.7695,9.7695,9.7695,9.7695,9.7695,9.7695,9.7695,9.7695,9.7695,9.7695,9.7695,9.7695,9.7695,9.7695,9.7695,9.7695,9.7695,9.7695,9.7695,9.7695,9.7695,9.7695,9.7689,9.7454,9.7253,9.7019,9.6288,9.6288,9.6288,9.6288,9.6288,9.6288,9.6288,9.6288,9.6288,9.6288,9.6288,9.6288,9.6288,9.6288,9.6288,9.6288,9.6288,9.6288,9.6288,9.6288,9.6288,9.6288,9.6288,9.6288,9.6288,9.6288,9.6288,9.6288,9.6288,9.6288,9.6288,9.6288,9.6288,9.6288,9.6288,9.6288,9.6326,9.6403,9.6442,9.648,9.6596,9.6673,9.6634,9.6519,9.6519,9.6673,9.6903,9.7225,9.7578,9.7656,9.7695,9.7695,9.7695,9.7695,9.7695,9.7695,9.7695,9.7695,9.7695,9.7695,9.7695,9.7695,9.7695,9.7695,9.7695,9.7695,9.7695,9.7695,9.7695,9.7695,9.7695,9.7695,9.7695,9.7695,9.7695,9.7695,9.7695,9.7695,9.7695,9.7695,9.7695,9.7695,9.7695,9.7695,9.7695,9.7695,9.7695,9.7695,9.7695,9.7695,9.7695,9.7695,9.7695,9.7695,9.7695,9.7695,9.7695,9.7695,9.7695,9.7695,9.7695,9.7695,9.7695,9.7734,9.8125,9.832,9.832,9.832,9.832,9.8281,9.7851,9.7695,9.7648,9.7324,9.698,9.6634,9.6288,9.6288,9.6288,9.6288,9.6288,9.6288,9.6288,9.6288,9.6288,9.6288,9.6288,9.6288,9.6288,9.6288,9.6288,9.6288,9.6288,9.6288,9.6288,9.6288,9.6288,9.6288,9.6288,9.6288,9.6288,9.6288,9.6288,9.6288,9.6288,9.6288,9.6288,9.6288,9.6288,9.6288,9.6288,9.6288,9.6288,9.6288,9.6288,9.6288,9.6288,9.6288,9.6288,9.6288,9.6288,9.6365,9.6826,9.7302,9.7695,9.7695,9.7695,9.7695,9.7695,9.7695,9.7695,9.7695,9.7695,9.7695,9.7695,9.7695,9.7695,9.7695,9.7695,9.7695,9.7695,9.7695,9.7695,9.7695,9.7695,9.7695,9.7695,9.7695,9.7695,9.7695,9.7695,9.7695,9.7695,9.7695,9.7695,9.7695,9.7695,9.7695,9.7695,9.7695,9.7695,9.7695,9.7695,9.7695,9.7695,9.7695,9.7695,9.7695,9.7695,9.7695,9.7695,9.7695,9.7695,9.7695,9.7695,9.7695,9.7695,9.7695,9.7773,9.7969,9.8672,9.9062,9.9219,9.9219,9.9219,9.914,9.8203,9.7851,9.7804,9.7169,9.6749,9.6519,9.6288,9.6288,9.6288,9.6288,9.6288,9.6288,9.6288,9.6288,9.6288,9.6288,9.6288,9.6288,9.6288,9.6288,9.6288,9.6288,9.6288,9.6288,9.6288,9.6288,9.6288,9.6288,9.6288,9.6288,9.6288,9.6288,9.6288,9.6288,9.6288,9.6288,9.6288,9.6288,9.6288,9.6288,9.6288,9.6288,9.6288,9.6288,9.6288,9.6288,9.6288,9.6288,9.6288,9.6288,9.6288,9.6365,9.6826,9.7302,9.7695,9.7695,9.7695,9.7695,9.7695,9.7695,9.7695,9.7695,9.7695,9.7695,9.7695,9.7695,9.7695,9.7695,9.7695,9.7695,9.7695,9.7695,9.7695,9.7695,9.7695,9.7695,9.7695,9.7695,9.7695,9.7695,9.7695,9.7695,9.7695,9.7695,9.7695,9.7695,9.7695,9.7695,9.7695,9.7695,9.7695,9.7695,9.7695,9.7695,9.7695,9.7695,9.7695,9.7695,9.7695,9.7695,9.7695,9.7695,9.7695,9.7695,9.7695,9.7695,9.7695,9.7695,9.8125,9.8828,9.8945,9.9414,10.0117,10.0117,10.0117,10.0,9.8984,9.8554,9.8429,9.713,9.6942,9.7364,9.6288,9.6288,9.6288,9.6288,9.6288,9.6288,9.6288,9.6288,9.6288,9.6288,9.6288,9.6288,9.6288,9.6288,9.6288,9.6288,9.6288,9.6288,9.6288,9.6288,9.6288,9.6288,9.6288,9.6288,9.6288,9.6288,9.6288,9.6288,9.6288,9.6288,9.6288,9.6288,9.6288,9.6288,9.6288,9.6288,9.6288,9.6288,9.6288,9.6288,9.6288,9.6288,9.6288,9.6288,9.6288,9.6355,9.6815,9.729,9.7695,9.7695,9.7695,9.7695,9.7695,9.7695,9.7695,9.7695,9.7695,9.7695,9.7695,9.7695,9.7695,9.7695,9.7695,9.7695,9.7695,9.7695,9.7695,9.7695,9.7695,9.7695,9.7695,9.7695,9.7695,9.7695,9.7695,9.7695,9.7695,9.7695,9.7695,9.7695,9.7695,9.7695,9.7695,9.7695,9.7695,9.7695,9.7695,9.7695,9.7695,9.7695,9.7695,9.7695,9.7695,9.7695,9.7695,9.7695,9.7695,9.7695,9.7695,9.7695,9.7734,9.8203,9.8633,9.9062,10.0,10.0703,10.1015,10.1015,10.1015,10.0896,9.9328,9.8528,9.8192,9.7529,9.771,9.821]},{"header":{"parameterUnit":"m.s-1","parameterCategory":1,"la1":30.6,"la2":28.766,"lo1":-90.7593,"lo2":-88.6598,"dx":0.0162,"dy":0.0183,"nx":116,"ny":114,"refTime":"2022-11-08T06:00:00:Z","depth":0,"parameterNumber":3,"parameterNumberName":"V-component_of_WINDS"},"data":[0.0,0.0,0.0,0.0,0.0,0.0,0.0,0.0,0.0,0.0,0.0,0.0,0.0,0.0,0.0,0.0,0.0,0.0,0.0,0.0,0.0,0.0,0.0,0.0,0.0,0.0,0.0,0.0,0.0,0.0,0.0,0.0,0.0,0.0,0.0,0.0,0.0,0.0,0.0,0.0,0.0,0.0,0.0,0.0,0.0,0.0,0.0,0.0,0.0,0.0,0.0,0.0,0.0,0.0,0.0,0.0,0.0,0.0,0.0,0.0,0.0,0.0,0.0,0.0,0.0,0.0,0.0,0.0,0.0,0.0,0.0,0.0,0.0,0.0,0.0,0.0,0.0,0.0,0.0,0.0,0.0,0.0,0.0,0.0,0.0,0.0,0.0,0.0,0.0,0.0,0.0,0.0,0.0,0.0,0.0,0.0,0.0,0.0,0.0,0.0,0.0,0.0,0.0,0.0,0.0,0.0,0.0,0.0,0.0,0.0,0.0,0.0,0.0,0.0,0.0,0.0,0.0,0.0,0.0,0.0,0.0,0.0,0.0,0.0,0.0,0.0,0.0,0.0,0.0,0.0,0.0,0.0,0.0,0.0,0.0,0.0,0.0,0.0,0.0,0.0,0.0,0.0,0.0,0.0,0.0,0.0,0.0,0.0,0.0,0.0,0.0,0.0,0.0,0.0,0.0,0.0,0.0,0.0,0.0,0.0,0.0,0.0,0.0,0.0,0.0,0.0,0.0,0.0,0.0,0.0,0.0,0.0,0.0,0.0,0.0,0.0,0.0,0.0,0.0,0.0,0.0,0.0,0.0,0.0,0.0,0.0,0.0,0.0,0.0,0.0,0.0,0.0,0.0,0.0,0.0,0.0,0.0,0.0,0.0,0.0,0.0,0.0,0.0,0.0,0.0,0.0,0.0,0.0,0.0,0.0,0.0,0.0,0.0,0.0,0.0,0.0,0.0,0.0,0.0,0.0,0.0,0.0,0.0,0.0,0.0,0.0,0.0,0.0,0.0,0.0,0.0,0.0,0.0,0.0,0.0,0.0,0.0,0.0,0.0,0.0,0.0,0.0,0.0,0.0,0.0,0.0,0.0,0.0,0.0,0.0,0.0,0.0,0.0,0.0,0.0,0.0,0.0,0.0,0.0,0.0,0.0,0.0,0.0,0.0,0.0,0.0,0.0,0.0,0.0,0.0,0.0,0.0,0.0,0.0,0.0,0.0,0.0,0.0,0.0,0.0,0.0,0.0,0.0,0.0,0.0,0.0,0.0,0.0,0.0,0.0,0.0,0.0,0.0,0.0,0.0,0.0,0.0,0.0,0.0,0.0,0.0,0.0,0.0,0.0,0.0,0.0,0.0,0.0,0.0,0.0,0.0,0.0,0.0,0.0,0.0,0.0,0.0,0.0,0.0,0.0,0.0,0.0,0.0,0.0,0.0,0.0,0.0,0.0,0.0,0.0,0.0,0.0,0.0,0.0,0.0,0.0,0.0,0.0,0.0,0.0,0.0,0.0,0.0,0.0,0.0,0.0,0.0,0.0,0.0,0.0,0.0,0.0,0.0,0.0,0.0,0.0,0.0,0.0,0.0,0.0,0.0,0.0,0.0,0.0,0.0,0.0,0.0,0.0,0.0,0.0,0.0,0.0,0.0,0.0,0.0,0.0,0.0,0.0,0.0,0.0,0.0,0.0,0.0,0.0,0.0,0.0,0.0,0.0,0.0,0.0,0.0,0.0,0.0,0.0,0.0,0.0,0.0,0.0,0.0,0.0,0.0,0.0,0.0,0.0,0.0,0.0,0.0,0.0,0.0,0.0,0.0,0.0,0.0,0.0,0.0,0.0,0.0,0.0,0.0,0.0,0.0,0.0,0.0,0.0,0.0,0.0,0.0,0.0,0.0,0.0,0.0,0.0,0.0,0.0,0.0,0.0,0.0,0.0,0.0,0.0,0.0,0.0,0.0,0.0,0.0,0.0,0.0,0.0,0.0,0.0,0.0,0.0,0.0,0.0,0.0,0.0,0.0,0.0,0.0,0.0,0.0,0.0,0.0,0.0,0.0,0.0,0.0,0.0,0.0,0.0,0.0,0.0,0.0,0.0,0.0,0.0,0.0,0.0,0.0,0.0,0.0,0.0,0.0,0.0,0.0,0.0,0.0,0.0,0.0,0.0,0.0,0.0,0.0,0.0,0.0,0.0,0.0,0.0,0.0,0.0,0.0,0.0,0.0,0.0,0.0,0.0,0.0,0.0,0.0,0.0,0.0,0.0,0.0,0.0,0.0,0.0,0.0,0.0,0.0,0.0,0.0,0.0,0.0,0.0,0.0,0.0,0.0,0.0,0.0,0.0,0.0,0.0,0.0,0.0,0.0,0.0,0.0,0.0,0.0,0.0,0.0,0.0,0.0,0.0,0.0,0.0,0.0,0.0,0.0,0.0,0.0,0.0,0.0,0.0,0.0,0.0,0.0,0.0,0.0,0.0,0.0,0.0,0.0,0.0,0.0,0.0,0.0,0.0,0.0,0.0,0.0,0.0,0.0,0.0,0.0,0.0,0.0,0.0,0.0,0.0,0.0,0.0,0.0,0.0,0.0,0.0,0.0,0.0,0.0,0.0,0.0,0.0,0.0,0.0,0.0,0.0,0.0,0.0,0.0,0.0,0.0,0.0,0.0,0.0,0.0,0.0,0.0,0.0,0.0,0.0,0.0,0.0,0.0,0.0,0.0,0.0,0.0,0.0,0.0,0.0,0.0,0.0,0.0,0.0,0.0,0.0,0.0,0.0,0.0,0.0,0.0,0.0,0.0,0.0,0.0,0.0,0.0,0.0,0.0,0.0,0.0,0.0,0.0,0.0,0.0,0.0,0.0,0.0,0.0,0.0,0.0,0.0,0.0,0.0,0.0,0.0,0.0,0.0,0.0,0.0,0.0,0.0,0.0,0.0,0.0,0.0,0.0,0.0,0.0,0.0,0.0,0.0,0.0,0.0,0.0,0.0,0.0,0.0,0.0,0.0,0.0,0.0,0.0,0.0,0.0,0.0,0.0,0.0,0.0,0.0,0.0,0.0,0.0,0.0,0.0,0.0,0.0,0.0,0.0,0.0,0.0,0.0,0.0,0.0,0.0,0.0,0.0,0.0,0.0,0.0,0.0,0.0,0.0,0.0,0.0,0.0,0.0,0.0,0.0,0.0,0.0,0.0,0.0,0.0,0.0,0.0,0.0,0.0,0.0,0.0,0.0,0.0,0.0,0.0,0.0,0.0,0.0,0.0,0.0,0.0,0.0,0.0,0.0,0.0,0.0,0.0,0.0,0.0,0.0,0.0,0.0,0.0,0.0,0.0,0.0,0.0,0.0,0.0,0.0,0.0,0.0,0.0,0.0,0.0,0.0,0.0,0.0,0.0,0.0,0.0,0.0,0.0,0.0,0.0,0.0,0.0,0.0,0.0,0.0,0.0,0.0,0.0,0.0,0.0,0.0,0.0,0.0,0.0,0.0,0.0,0.0,0.0,0.0,0.0,0.0,0.0,0.0,0.0,0.0,0.0,0.0,0.0,0.0,0.0,0.0,0.0,0.0,0.0,0.0,0.0,0.0,0.0,0.0,0.0,0.0,0.0,0.0,0.0,0.0,0.0,0.0,0.0,0.0,0.0,0.0,0.0,0.0,0.0,0.0,0.0,0.0,0.0,0.0,0.0,0.0,0.0,0.0,0.0,0.0,0.0,0.0,0.0,0.0,0.0,0.0,0.0,0.0,0.0,0.0,0.0,0.0,0.0,0.0,0.0,0.0,0.0,0.0,0.0,0.0,0.0,0.0,0.0,0.0,0.0,0.0,0.0,0.0,0.0,0.0,0.0,0.0,0.0,0.0,0.0,0.0,0.0,0.0,0.0,0.0,0.0,0.0,0.0,0.0,0.0,0.0,0.0,0.0,0.0,0.0,0.0,0.0,0.0,0.0,0.0,0.0,0.0,0.0,0.0,0.0,0.0,0.0,0.0,0.0,0.0,0.0,0.0,0.0,0.0,0.0,0.0,0.0,0.0,0.0,0.0,0.0,0.0,0.0,0.0,0.0,0.0,0.0,0.0,0.0,0.0,0.0,0.0,0.0,0.0,0.0,0.0,0.0,0.0,0.0,0.0,0.0,0.0,0.0,0.0,0.0,0.0,0.0,0.0,0.0,0.0,0.0,0.0,0.0,0.0,0.0,0.0,0.0,0.0,0.0,0.0,0.0,0.0,0.0,0.0,0.0,0.0,0.0,0.0,0.0,0.0,0.0,0.0,0.0,0.0,0.0,0.0,0.0,0.0,0.0,0.0,0.0,0.0,0.0,0.0,0.0,0.0,0.0,0.0,0.0,0.0,0.0,0.0,0.0,0.0,0.0,0.0,0.0,0.0,0.0,0.0,0.0,0.0,0.0,0.0,0.0,0.0,0.0,0.0,0.0,0.0,0.0,0.0,0.0,0.0,0.0,0.0,0.0,0.0,0.0,0.0,0.0,0.0,0.0,0.0,0.0,0.0,0.0,0.0,0.0,0.0,0.0,0.0,0.0,0.0,0.0,0.0,0.0,0.0,0.0,0.0,0.0,0.0,0.0,0.0,0.0,0.0,0.0,0.0,0.0,0.0,0.0,0.0,0.0,0.0,0.0,0.0,0.0,0.0,0.0,0.0,0.0,0.0,0.0,0.0,0.0,0.0,0.0,0.0,0.0,0.0,0.0,0.0,0.0,0.0,0.0,0.0,0.0,0.0,0.0,0.0,0.0,0.0,0.0,0.0,0.0,0.0,0.0,0.0,0.0,0.0,0.0,0.0,0.0,0.0,0.0,0.0,0.0,0.0,0.0,0.0,0.0,0.0,0.0,0.0,0.0,0.0,0.0,0.0,0.0,0.0,0.0,0.0,0.0,0.0,0.0,0.0,0.0,0.0,0.0,0.0,0.0,0.0,0.0,0.0,0.0,0.0,0.0,0.0,0.0,0.0,0.0,0.0,0.0,0.0,0.0,0.0,0.0,0.0,0.0,0.0,0.0,0.0,0.0,0.0,0.0,0.0,0.0,0.0,0.0,0.0,0.0,0.0,0.0,0.0,0.0,0.0,0.0,0.0,0.0,0.0,0.0,0.0,0.0,0.0,0.0,0.0,0.0,0.0,0.0,0.0,0.0,0.0,0.0,0.0,0.0,0.0,0.0,0.0,0.0,0.0,0.0,0.0,0.0,0.0,0.0,0.0,0.0,0.0,0.0,0.0,0.0,0.0,0.0,0.0,0.0,0.0,0.0,0.0,0.0,0.0,0.0,0.0,0.0,0.0,0.0,0.0,0.0,0.0,0.0,0.0,0.0,0.0,0.0,0.0,0.0,0.0,0.0,0.0,0.0,0.0,0.0,0.0,0.0,0.0,0.0,0.0,0.0,0.0,0.0,0.0,0.0,0.0,0.0,0.0,0.0,0.0,0.0,0.0,0.0,0.0,0.0,0.0,0.0,0.0,0.0,0.0,0.0,0.0,0.0,0.0,0.0,0.0,0.0,0.0,0.0,0.0,0.0,0.0,0.0,0.0,0.0,0.0,0.0,0.0,0.0,0.0,0.0,0.0,0.0,0.0,0.0,0.0,0.0,0.0,0.0,0.0,0.0,0.0,0.0,0.0,0.0,0.0,0.0,0.0,0.0,0.0,0.0,0.0,0.0,0.0,0.0,0.0,0.0,0.0,0.0,0.0,0.0,0.0,0.0,0.0,0.0,0.0,0.0,0.0,0.0,0.0,0.0,0.0,0.0,0.0,0.0,0.0,0.0,0.0,0.0,0.0,0.0,0.0,0.0,0.0,0.0,0.0,0.0,0.0,0.0,0.0,0.0,0.0,0.0,0.0,0.0,0.0,0.0,0.0,0.0,0.0,0.0,0.0,0.0,0.0,0.0,0.0,0.0,0.0,0.0,0.0,0.0,0.0,0.0,0.0,0.0,0.0,0.0,0.0,0.0,0.0,0.0,0.0,0.0,0.0,0.0,0.0,0.0,0.0,0.0,0.0,0.0,0.0,0.0,0.0,0.0,0.0,0.0,0.0,0.0,0.0,0.0,0.0,0.0,0.0,0.0,0.0,0.0,0.0,0.0,0.0,-1.0246,-0.9727,0.0,0.0,0.0,0.0,0.0,0.0,0.0,0.0,0.0,0.0,0.0,0.0,0.0,0.0,0.0,0.0,0.0,0.0,0.0,0.0,0.0,0.0,0.0,0.0,0.0,0.0,0.0,0.0,0.0,0.0,0.0,0.0,0.0,0.0,0.0,0.0,0.0,0.0,0.0,0.0,0.0,0.0,0.0,0.0,0.0,0.0,0.0,0.0,0.0,0.0,0.0,0.0,0.0,0.0,0.0,0.0,0.0,0.0,0.0,0.0,0.0,0.0,0.0,0.0,0.0,0.0,0.0,0.0,0.0,0.0,0.0,0.0,0.0,0.0,0.0,0.0,0.0,0.0,0.0,0.0,0.0,0.0,0.0,0.0,0.0,0.0,0.0,0.0,0.0,0.0,0.0,0.0,0.0,0.0,0.0,0.0,0.0,0.0,0.0,0.0,0.0,0.0,0.0,0.0,0.0,0.0,0.0,0.0,0.0,0.0,0.0,0.0,0.0,0.0,-1.0582,-1.0246,0.0,0.0,0.0,0.0,0.0,0.0,0.0,0.0,0.0,0.0,0.0,0.0,0.0,0.0,0.0,0.0,0.0,0.0,0.0,0.0,0.0,0.0,0.0,0.0,0.0,0.0,0.0,0.0,0.0,0.0,0.0,0.0,0.0,0.0,0.0,0.0,0.0,0.0,0.0,0.0,0.0,0.0,0.0,0.0,0.0,0.0,0.0,0.0,0.0,0.0,0.0,0.0,0.0,0.0,0.0,0.0,0.0,0.0,0.0,0.0,0.0,0.0,0.0,0.0,0.0,0.0,0.0,0.0,0.0,0.0,0.0,0.0,0.0,0.0,0.0,0.0,0.0,0.0,0.0,0.0,0.0,0.0,0.0,0.0,0.0,0.0,0.0,0.0,0.0,0.0,0.0,0.0,0.0,0.0,0.0,0.0,0.0,0.0,0.0,0.0,0.0,0.0,0.0,0.0,0.0,0.0,0.0,0.0,-1.2442,-1.2504,-1.2536,-1.2995,-1.3173,-1.3043,-1.0664,-1.049,-1.2028,-1.1292,0.0,0.0,0.0,0.0,0.0,0.0,0.0,0.0,0.0,0.0,0.0,0.0,0.0,0.0,0.0,0.0,0.0,0.0,0.0,0.0,0.0,0.0,0.0,0.0,0.0,0.0,0.0,0.0,0.0,0.0,0.0,0.0,0.0,0.0,0.0,0.0,0.0,0.0,0.0,0.0,0.0,0.0,0.0,0.0,0.0,0.0,0.0,0.0,0.0,0.0,0.0,0.0,0.0,0.0,0.0,0.0,0.0,0.0,0.0,0.0,0.0,0.0,0.0,0.0,0.0,0.0,0.0,0.0,0.0,0.0,0.0,0.0,0.0,0.0,0.0,0.0,0.0,0.0,0.0,0.0,0.0,0.0,0.0,0.0,0.0,0.0,-1.0506,-0.9617,0.0,0.0,0.0,0.0,0.0,0.0,0.0,0.0,0.0,0.0,0.0,0.0,0.0,-1.1926,-1.2027,-1.2757,-1.2926,-1.2493,-1.2567,-1.2515,-1.2507,-1.2628,-1.2595,-1.252,-1.2159,0.0,-1.0235,-1.1626,0.0,0.0,0.0,0.0,0.0,0.0,0.0,0.0,0.0,0.0,0.0,0.0,0.0,0.0,0.0,0.0,0.0,0.0,0.0,0.0,0.0,0.0,0.0,0.0,0.0,0.0,0.0,0.0,0.0,0.0,0.0,0.0,0.0,0.0,0.0,0.0,0.0,0.0,0.0,0.0,0.0,0.0,0.0,0.0,0.0,0.0,0.0,0.0,0.0,0.0,0.0,0.0,0.0,0.0,0.0,0.0,0.0,0.0,0.0,0.0,0.0,0.0,0.0,0.0,0.0,0.0,0.0,0.0,0.0,0.0,0.0,0.0,0.0,0.0,0.0,0.0,0.0,0.0,0.0,0.0,0.0,0.0,0.0,0.0,0.0,-0.9808,-1.1407,-1.0902,-1.0612,-1.0062,0.0,0.0,0.0,0.0,0.0,0.0,0.0,0.0,0.0,-1.0935,-1.2256,-1.2873,-1.2477,-1.2706,-1.2759,-1.2489,-1.2514,-1.2644,-1.3043,-1.2933,-1.2999,-1.3045,-1.2956,-1.2542,-1.181,-1.262,-1.2853,-1.2465,0.0,0.0,0.0,0.0,-1.0934,-1.1818,0.0,0.0,0.0,0.0,0.0,0.0,0.0,0.0,0.0,0.0,0.0,0.0,0.0,0.0,0.0,0.0,0.0,0.0,0.0,0.0,0.0,0.0,0.0,0.0,0.0,0.0,0.0,0.0,0.0,0.0,0.0,0.0,0.0,0.0,0.0,0.0,0.0,0.0,0.0,0.0,0.0,0.0,0.0,0.0,0.0,0.0,0.0,0.0,0.0,0.0,0.0,0.0,0.0,0.0,0.0,0.0,0.0,0.0,0.0,0.0,0.0,0.0,0.0,0.0,0.0,0.0,0.0,0.0,0.0,0.0,0.0,0.0,0.0,0.0,0.0,0.0,0.0,-0.9546,-1.0867,-1.1587,-1.1441,-1.098,0.0,0.0,0.0,0.0,0.0,0.0,-1.071,-1.2027,-1.2596,-1.2519,-1.2971,-1.2965,-1.2787,-1.2703,-1.2814,-1.2958,-1.3004,-1.3217,-1.3607,-1.3634,-1.3641,-1.3641,-1.3634,-1.3695,-1.3559,-1.349,-1.3332,-1.3418,-1.2895,-1.2189,-1.136,-1.1392,-1.2175,-1.3439,0.0,0.0,0.0,0.0,0.0,0.0,0.0,0.0,0.0,0.0,0.0,0.0,0.0,0.0,0.0,0.0,0.0,0.0,0.0,0.0,0.0,0.0,0.0,0.0,0.0,0.0,0.0,0.0,0.0,0.0,0.0,0.0,0.0,0.0,0.0,0.0,0.0,0.0,0.0,0.0,0.0,0.0,0.0,0.0,0.0,0.0,0.0,0.0,0.0,0.0,0.0,0.0,0.0,0.0,0.0,0.0,0.0,0.0,0.0,0.0,0.0,0.0,0.0,0.0,0.0,0.0,0.0,0.0,0.0,0.0,0.0,0.0,0.0,0.0,0.0,0.0,0.0,0.0,0.0,-1.1365,-1.1147,0.0,0.0,0.0,0.0,-1.218,-1.235,-1.2605,-1.3245,-1.3288,-1.3034,-1.2446,-1.2507,-1.2755,-1.3418,-1.3325,-1.3686,-1.4196,-1.4208,-1.4194,-1.4338,-1.4258,-1.4306,-1.4299,-1.4272,-1.4258,-1.4231,-1.3573,-1.3385,-1.3365,-1.3404,-1.3353,-1.3241,-1.3212,-1.326,-1.3329,0.0,0.0,0.0,0.0,0.0,0.0,0.0,0.0,0.0,0.0,0.0,0.0,0.0,0.0,0.0,0.0,0.0,0.0,0.0,0.0,0.0,0.0,0.0,0.0,0.0,0.0,0.0,0.0,0.0,0.0,0.0,0.0,0.0,0.0,0.0,0.0,0.0,0.0,0.0,0.0,0.0,0.0,0.0,0.0,0.0,0.0,0.0,0.0,0.0,0.0,0.0,0.0,0.0,0.0,0.0,0.0,0.0,0.0,0.0,0.0,0.0,0.0,0.0,0.0,0.0,0.0,0.0,0.0,0.0,0.0,0.0,0.0,0.0,0.0,0.0,0.0,0.0,0.0,0.0,-1.1898,-1.2284,0.0,-1.1626,-1.1586,-1.1791,-1.2474,-1.2543,-1.2515,-1.2827,-1.3241,-1.3315,-1.3049,-1.3472,-1.3736,-1.4022,-1.3914,-1.0993,-0.5137,-0.5017,-0.5056,-0.5075,-0.5087,-0.8742,-1.4826,-1.4812,-1.4792,-1.4951,-1.4702,-1.4319,-1.4048,-1.3939,-1.4043,-1.4002,-1.4057,-1.3899,-1.3933,0.0,0.0,0.0,0.0,0.0,0.0,0.0,0.0,0.0,0.0,0.0,0.0,0.0,0.0,0.0,0.0,0.0,0.0,0.0,0.0,0.0,0.0,0.0,0.0,0.0,0.0,0.0,0.0,0.0,0.0,0.0,0.0,0.0,0.0,0.0,0.0,0.0,0.0,0.0,0.0,0.0,0.0,0.0,0.0,0.0,0.0,0.0,0.0,0.0,0.0,0.0,0.0,0.0,0.0,0.0,0.0,0.0,0.0,0.0,0.0,0.0,0.0,0.0,0.0,0.0,0.0,0.0,0.0,0.0,0.0,0.0,0.0,0.0,0.0,0.0,0.0,0.0,-0.9736,-1.0703,-1.23,-1.2917,-1.2918,-1.26,-1.2574,-1.2594,-1.2755,-1.2789,-1.2847,-1.2869,-1.3432,-1.2174,-0.9043,-0.9302,-0.9541,-0.9401,-0.945,-0.625,0.0,0.0,0.0,0.0,0.0,-0.3755,-1.0348,-1.3777,-1.5286,-1.5259,-1.5174,-1.5031,-1.4929,-1.4638,-1.4597,-1.4597,-1.4597,-1.4597,-1.4611,0.0,0.0,0.0,0.0,0.0,0.0,0.0,0.0,0.0,0.0,0.0,0.0,0.0,0.0,0.0,0.0,0.0,0.0,0.0,0.0,0.0,0.0,0.0,0.0,0.0,0.0,0.0,0.0,0.0,0.0,0.0,0.0,0.0,0.0,0.0,0.0,0.0,0.0,0.0,0.0,0.0,0.0,0.0,0.0,0.0,0.0,0.0,0.0,0.0,0.0,0.0,0.0,0.0,0.0,0.0,0.0,0.0,0.0,0.0,0.0,0.0,0.0,0.0,0.0,0.0,0.0,0.0,0.0,0.0,0.0,0.0,0.0,0.0,0.0,0.0,0.0,-1.011,-1.1455,-1.2503,-1.2508,-1.2474,-1.2529,-1.2475,-1.2507,-1.2853,-1.3363,-1.337,-1.3263,-1.3032,-1.3607,-0.9527,-0.0362,0.0,0.0,0.0,0.0,0.0,0.0,0.0,0.0,0.0,0.0,0.0,-0.0587,-1.0392,-1.4932,-1.5288,-1.5294,-1.5482,-1.6015,-1.5506,-1.5194,-1.5194,-1.5194,-1.5194,-1.5194,0.0,0.0,0.0,0.0,0.0,0.0,0.0,0.0,0.0,0.0,0.0,0.0,0.0,0.0,0.0,0.0,0.0,0.0,0.0,0.0,0.0,0.0,0.0,0.0,0.0,0.0,0.0,0.0,0.0,0.0,0.0,0.0,0.0,0.0,0.0,0.0,0.0,0.0,0.0,0.0,0.0,0.0,0.0,0.0,0.0,0.0,0.0,0.0,0.0,0.0,0.0,0.0,0.0,0.0,0.0,0.0,0.0,0.0,0.0,0.0,0.0,0.0,0.0,0.0,0.0,0.0,0.0,0.0,0.0,0.0,0.0,0.0,0.0,0.0,-1.16,-1.2873,-1.191,-1.2136,-1.2526,-1.2515,-1.2847,-1.3085,-1.3166,-1.3224,-1.3412,-1.4048,-1.405,-1.1068,-0.4107,-0.3762,-0.272,-0.0,0.0,0.0,0.0,0.0,0.0,0.0,0.0,0.0,0.0,0.0,0.0,-0.0196,-0.2928,-0.8394,-1.5294,-1.5576,-1.6,-1.6175,-1.598,-1.5911,-1.5911,-1.5911,-1.5911,-1.5911,0.0,0.0,0.0,0.0,0.0,0.0,0.0,0.0,0.0,0.0,0.0,0.0,0.0,0.0,0.0,0.0,0.0,0.0,0.0,0.0,0.0,0.0,0.0,0.0,0.0,0.0,0.0,0.0,0.0,0.0,0.0,0.0,0.0,0.0,0.0,0.0,0.0,0.0,0.0,0.0,0.0,0.0,0.0,0.0,0.0,0.0,0.0,0.0,0.0,0.0,0.0,0.0,0.0,0.0,0.0,0.0,0.0,0.0,0.0,0.0,0.0,0.0,0.0,0.0,0.0,0.0,0.0,0.0,0.0,0.0,0.0,0.0,0.0,0.0,-1.2415,-1.3246,-1.2944,-1.2589,-1.2581,-1.2816,-1.322,-1.3424,-1.3734,-1.381,-1.2253,-0.8644,-0.8393,-0.5798,-0.0369,0.0,0.0,0.0,0.0,0.0,0.0,0.0,0.0,0.0,0.0,0.0,0.0,0.0,0.0,-0.0198,-0.4755,-1.011,-1.5506,-1.5974,-1.6179,-1.6144,0.0,0.0,0.0,0.0,-1.6028,-1.6028,0.0,0.0,0.0,0.0,0.0,0.0,0.0,0.0,0.0,0.0,0.0,0.0,0.0,0.0,0.0,0.0,0.0,0.0,0.0,0.0,0.0,0.0,0.0,0.0,0.0,0.0,0.0,0.0,0.0,0.0,0.0,0.0,0.0,0.0,0.0,0.0,0.0,0.0,0.0,0.0,0.0,0.0,0.0,0.0,0.0,0.0,0.0,0.0,0.0,0.0,0.0,0.0,0.0,0.0,0.0,0.0,0.0,0.0,0.0,0.0,0.0,0.0,0.0,0.0,0.0,0.0,0.0,0.0,0.0,0.0,0.0,0.0,0.0,0.0,-1.3332,-1.3468,-1.3356,-1.3019,-1.2834,-1.3444,-1.3439,-1.366,-1.4331,-1.3236,-0.9186,-0.0728,0.0,0.0,0.0,0.0,0.0,0.0,0.0,0.0,0.0,0.0,0.0,0.0,0.0,0.0,0.0,0.0,0.0,-0.0606,-1.0138,-1.5032,-1.6004,-1.6004,-1.6157,-1.6096,-1.6083,-1.6083,-1.6083,-1.6083,-1.6083,-1.6083,0.0,0.0,0.0,0.0,0.0,0.0,0.0,0.0,0.0,0.0,0.0,0.0,0.0,0.0,0.0,0.0,0.0,0.0,0.0,0.0,0.0,0.0,0.0,0.0,0.0,0.0,0.0,0.0,0.0,0.0,0.0,0.0,0.0,0.0,0.0,0.0,0.0,0.0,0.0,0.0,0.0,0.0,0.0,0.0,0.0,0.0,0.0,0.0,0.0,0.0,0.0,0.0,0.0,0.0,0.0,0.0,0.0,0.0,0.0,0.0,0.0,0.0,0.0,0.0,0.0,0.0,0.0,0.0,0.0,0.0,0.0,0.0,0.0,-1.2942,-1.3443,-1.3451,-1.3398,-1.372,-1.4048,-1.4187,-1.4055,-1.4115,-1.433,-0.7292,-0.2031,-0.0188,0.0,0.0,0.0,0.0,0.0,0.0,0.0,0.0,0.0,0.0,0.0,0.0,0.0,0.0,0.0,0.0,0.0,-0.0202,-0.2217,-0.8069,-1.6038,-1.6011,-1.6191,-1.6171,-1.611,-1.6083,-1.6083,-1.6083,-1.6083,-1.6083,0.0,0.0,0.0,0.0,0.0,0.0,0.0,0.0,0.0,0.0,0.0,0.0,0.0,0.0,0.0,0.0,0.0,0.0,0.0,0.0,0.0,0.0,0.0,0.0,0.0,0.0,0.0,0.0,0.0,0.0,0.0,0.0,0.0,0.0,0.0,0.0,0.0,0.0,0.0,0.0,0.0,0.0,0.0,0.0,0.0,0.0,0.0,0.0,0.0,0.0,0.0,0.0,0.0,0.0,0.0,0.0,0.0,0.0,0.0,0.0,0.0,0.0,0.0,0.0,0.0,0.0,0.0,0.0,0.0,-0.5241,-0.6448,0.0,-1.2292,-1.3239,-1.3383,-1.3548,-1.38,-1.4102,-1.4222,-1.4338,-1.004,-0.7117,-0.7055,-0.28,0.0,0.0,0.0,0.0,0.0,0.0,0.0,0.0,0.0,0.0,0.0,0.0,0.0,0.0,0.0,0.0,0.0,0.0,0.0,0.0,0.0,-0.3065,-0.8385,-1.3938,-1.6015,-1.6015,-1.6179,-1.6071,-1.6144,-1.6144,-1.613,-1.611,0.0,0.0,0.0,0.0,0.0,0.0,0.0,0.0,0.0,0.0,0.0,0.0,0.0,0.0,0.0,0.0,0.0,0.0,0.0,0.0,0.0,0.0,0.0,0.0,0.0,0.0,0.0,0.0,0.0,0.0,0.0,0.0,0.0,0.0,0.0,0.0,0.0,0.0,0.0,0.0,0.0,0.0,0.0,0.0,0.0,0.0,0.0,0.0,0.0,0.0,0.0,0.0,0.0,0.0,0.0,0.0,0.0,0.0,0.0,0.0,0.0,0.0,0.0,0.0,0.0,0.0,0.0,0.0,0.0,-0.2136,-0.9492,-1.225,-1.3363,-1.3554,-1.3573,-1.3689,-1.4202,-1.4249,-1.3594,-1.1792,-0.4764,0.0,0.0,0.0,0.0,0.0,0.0,0.0,0.0,0.0,0.0,0.0,0.0,0.0,0.0,0.0,0.0,0.0,0.0,0.0,0.0,0.0,0.0,0.0,0.0,0.0,-0.0621,-0.9327,-1.2879,-1.2879,-1.2879,-1.2973,-1.3004,-1.2993,-1.2966,-1.334,0.0,0.0,0.0,0.0,0.0,0.0,0.0,0.0,0.0,0.0,0.0,0.0,0.0,0.0,0.0,0.0,0.0,0.0,0.0,0.0,0.0,0.0,0.0,0.0,0.0,0.0,0.0,0.0,0.0,0.0,0.0,0.0,0.0,0.0,0.0,0.0,0.0,0.0,0.0,0.0,0.0,0.0,0.0,0.0,0.0,0.0,0.0,0.0,0.0,0.0,0.0,0.0,0.0,0.0,0.0,0.0,0.0,0.0,0.0,0.0,0.0,0.0,0.0,0.0,0.0,0.0,0.0,0.0,0.0,-0.0337,-0.136,-0.8073,-1.3568,-1.4027,-1.4224,-1.4242,-1.4209,-1.4229,-1.1207,-0.2642,-0.0567,0.0,0.0,0.0,0.0,0.0,0.0,0.0,0.0,0.0,0.0,0.0,0.0,0.0,0.0,0.0,0.0,0.0,0.0,0.0,0.0,0.0,0.0,0.0,0.0,0.0,-0.0,-0.1246,-0.1868,-0.1868,-0.1868,-0.1865,-0.1861,-0.1853,-0.1847,-0.3071,0.0,0.0,0.0,0.0,0.0,0.0,0.0,0.0,0.0,0.0,0.0,0.0,0.0,0.0,0.0,0.0,0.0,0.0,0.0,0.0,0.0,0.0,0.0,0.0,0.0,0.0,0.0,0.0,0.0,0.0,0.0,0.0,0.0,0.0,0.0,0.0,0.0,0.0,0.0,0.0,0.0,0.0,0.0,0.0,0.0,0.0,0.0,0.0,0.0,0.0,0.0,0.0,0.0,0.0,0.0,0.0,0.0,0.0,0.0,0.0,0.0,0.0,0.0,0.0,0.0,0.0,0.0,0.0,0.0,0.0,0.0,-0.3004,-0.5711,-0.5906,-0.5999,-0.5905,-0.5962,-0.5887,-0.443,-0.0387,0.0,0.0,0.0,0.0,0.0,0.0,0.0,0.0,0.0,0.0,0.0,0.0,0.0,0.0,0.0,0.0,0.0,0.0,0.0,0.0,0.0,0.0,0.0,0.0,0.0,0.0,0.0,0.0,0.0,0.0,0.0,0.0,0.0,0.0,0.0,-0.1649,0.0,0.0,0.0,0.0,0.0,0.0,0.0,0.0,0.0,0.0,0.0,0.0,0.0,0.0,0.0,0.0,0.0,0.0,0.0,0.0,0.0,0.0,0.0,0.0,0.0,0.0,0.0,0.0,0.0,0.0,0.0,0.0,0.0,0.0,0.0,0.0,0.0,0.0,0.0,0.0,0.0,0.0,0.0,0.0,0.0,0.0,0.0,0.0,0.0,0.0,0.0,0.0,0.0,0.0,0.0,0.0,0.0,0.0,0.0,0.0,0.0,0.0,0.0,0.0,0.0,0.0,0.0,0.0,0.0,0.0,0.0,0.0,0.0,0.0,0.0,0.0,0.0,0.0,0.0,0.0,0.0,0.0,0.0,0.0,0.0,0.0,0.0,0.0,0.0,0.0,0.0,0.0,0.0,0.0,0.0,0.0,0.0,0.0,0.0,0.0,0.0,0.0,0.0,0.0,0.0,0.0,0.0,0.0,0.0,0.0,0.0,0.0,0.0,0.0,0.0,-0.125,0.0,0.0,0.0,0.0,0.0,0.0,0.0,0.0,0.0,0.0,0.0,0.0,0.0,0.0,0.0,0.0,0.0,0.0,0.0,0.0,0.0,0.0,0.0,0.0,0.0,0.0,0.0,0.0,0.0,0.0,0.0,0.0,0.0,0.0,0.0,0.0,0.0,0.0,0.0,0.0,0.0,0.0,0.0,0.0,0.0,0.0,0.0,0.0,0.0,0.0,0.0,0.0,0.0,0.0,0.0,0.0,0.0,0.0,0.0,0.0,0.0,0.0,0.0,0.0,0.0,0.0,0.0,0.0,0.0,0.0,0.0,0.0,0.0,0.0,0.0,0.0,0.0,0.0,0.0,0.0,0.0,0.0,0.0,0.0,0.0,0.0,0.0,0.0,0.0,0.0,0.0,0.0,0.0,0.0,0.0,0.0,0.0,0.0,0.0,0.0,0.0,0.0,0.0,0.0,0.0,0.0,0.0,0.0,0.0,0.0,0.0,0.0,0.0,0.0,0.0,-0.0,0.0,0.0,0.0,0.0,0.0,0.0,0.0,0.0,0.0,0.0,0.0,0.0,0.0,0.0,0.0,0.0,0.0,0.0,0.0,0.0,0.0,0.0,0.0,0.0,0.0,0.0,0.0,0.0,0.0,0.0,0.0,0.0,0.0,0.0,0.0,0.0,0.0,0.0,0.0,0.0,0.0,0.0,0.0,0.0,0.0,0.0,0.0,0.0,0.0,0.0,0.0,0.0,0.0,0.0,0.0,0.0,0.0,0.0,0.0,0.0,0.0,0.0,0.0,0.0,0.0,0.0,0.0,0.0,0.0,0.0,0.0,0.0,0.0,0.0,0.0,0.0,0.0,0.0,0.0,0.0,0.0,0.0,0.0,0.0,0.0,0.0,0.0,0.0,0.0,0.0,0.0,0.0,0.0,0.0,0.0,0.0,0.0,0.0,0.0,0.0,0.0,0.0,0.0,0.0,0.0,0.0,0.0,0.0,0.0,0.0,0.0,0.0,0.0,0.0,0.0,0.0,0.0,0.0,0.0,0.0,0.0,0.0,0.0,0.0,0.0,0.0,0.0,0.0,0.0,0.0,0.0,0.0,0.0,0.0,0.0,0.0,0.0,0.0,0.0,0.0,0.0,0.0,0.0,0.0,0.0,0.0,0.0,0.0,0.0,0.0,0.0,0.0,0.0,0.0,0.0,0.0,0.0,0.0,0.0,0.0,0.0,0.0,0.0,0.0,0.0,0.0,0.0,0.0,0.0,0.0,0.0,0.0,0.0,0.0,0.0,0.0,0.0,0.0,0.0,0.0,0.0,0.0,0.0,0.0,0.0,0.0,0.0,0.0,0.0,0.0,0.0,0.0,0.0,0.0,0.0,0.0,0.0,0.0,0.0,0.0,0.0,0.0,0.0,0.0,0.0,0.0,0.0,0.0,0.0,0.0,0.0,0.0,0.0,0.0,0.0,0.0,0.0,0.0,0.0,0.0,0.0,0.0,0.0,0.0,0.0,0.0,0.0,0.0,0.0,0.0,0.0,0.0,0.0,0.0,0.0,0.0,0.0,0.0,0.0,0.0,0.0,0.0,0.0,0.0,0.0,0.0,0.0,0.0,0.0,0.0,0.0,0.0,0.0,0.0,0.0,0.0,0.0,0.0,0.0,0.0,0.0,0.0,0.0,0.0,0.0,0.0,0.0,0.0,0.0,0.0,0.0,0.0,0.0,0.0,0.0,0.0,0.0,0.0,0.0,0.0,0.0,0.0,0.0,0.0,0.0,0.0,0.0,0.0,0.0,0.0,0.0,0.0,0.0,0.0,0.0,0.0,0.0,0.0,0.0,0.0,0.0,0.0,0.0,0.0,0.0,0.0,0.0,0.0,0.0,0.0,0.0,0.0,0.0,0.0,0.0,0.0,0.0,0.0,0.0,0.0,0.0,0.0,0.0,0.0,0.0,0.0,0.0,0.0,0.0,0.0,0.0,0.0,0.0,0.0,0.0,0.0,0.0,0.0,0.0,0.0,0.0,0.0,0.0,0.0,0.0,0.0,0.0,0.0,0.0,0.0,0.0,0.0,0.0,0.0,0.0,0.0,0.0,0.0,0.0,0.0,0.0,0.0,0.0,0.0,0.0,0.0,0.0,0.0,0.0,0.0,0.0,0.0,0.0,0.0,0.0,0.0,0.0,0.0,0.0,0.0,0.0,0.0,0.0,0.0,0.0,0.0,0.0,0.0,0.0,0.0,0.0,0.0,0.0,0.0,0.0,0.0,0.0,0.0,0.0,0.0,0.0,0.0,0.0,0.0,0.0,0.0,0.0,0.0,0.0,0.0,0.0,0.0,0.0,0.0,0.0,0.0,0.0,0.0,0.0,0.0,0.0,0.0,0.0,0.0,0.0,0.0,0.0,0.0,0.0,0.0,0.0,0.0,0.0,0.0,0.0,0.0,0.0,0.0,0.0,0.0,0.0,0.0,0.0,0.0,0.0,0.0,0.0,0.0,0.0,0.0,0.0,0.0,0.0,0.0,0.0,0.0,0.0,0.0,0.0,0.0,0.0,0.0,0.0,0.0,0.0,0.0,0.0,0.0,0.0,0.0,0.0,0.0,0.0,0.0,0.0,0.0,0.0,0.0,0.0,0.0,0.0,0.0,0.0,0.0,0.0,0.0,0.0,0.0,0.0,0.0,0.0,0.0,0.0,0.0,0.0,0.0,0.0,0.0,0.0,0.0,0.0,0.0,0.0,0.0,0.0,0.0,0.0,0.0,0.0,0.0,0.0,0.0,0.0,0.0,0.0,0.0,0.0,0.0,0.0,0.0,0.0,0.0,0.0,0.0,0.0,0.0,0.0,0.0,0.0,0.0,0.0,0.0,0.0,0.0,0.0,0.0,0.0,0.0,0.0,0.0,0.0,0.0,0.0,0.0,0.0,0.0,0.0,0.0,0.0,0.0,0.0,0.0,0.0,0.0,0.0,0.0,0.0,0.0,0.0,0.0,0.0,0.0,0.0,0.0,0.0,0.0,0.0,0.0,0.0,0.0,0.0,0.0,0.0,0.0,0.0,0.0,0.0,0.0,0.0,0.0,0.0,0.0,0.0,0.0,0.0,0.0,0.0,0.0,0.0,0.0,0.0,0.0,0.0,0.0,0.0,0.0,0.0,0.0,0.0,0.0,0.0,0.0,0.0,0.0,0.0,0.0,0.0,0.0,0.0,0.0,0.0,0.0,0.0,0.0,0.0,0.0,0.0,0.0,0.0,0.0,0.0,0.0,0.0,0.0,0.0,0.0,0.0,0.0,0.0,0.0,0.0,0.0,0.0,0.0,0.0,0.0,0.0,0.0,0.0,0.0,0.0,0.0,0.0,0.0,0.0,0.0,0.0,0.0,0.0,0.0,0.0,0.0,0.0,0.0,0.0,0.0,0.0,0.0,0.0,0.0,0.0,0.0,0.0,0.0,0.0,0.0,0.0,0.0,0.0,0.0,0.0,0.0,0.0,0.0,0.0,0.0,0.0,0.0,0.0,0.0,0.0,0.0,0.0,0.0,0.0,0.0,0.0,0.0,0.0,0.0,0.0,0.0,0.0,0.0,0.0,0.0,0.0,0.0,0.0,0.0,0.0,0.0,0.0,0.0,0.0,0.0,0.0,0.0,0.0,0.0,0.0,0.0,0.0,0.0,0.0,0.0,0.0,0.0,0.0,0.0,0.0,0.0,0.0,0.0,0.0,0.0,0.0,0.0,0.0,0.0,0.0,0.0,0.0,0.0,0.0,0.0,0.0,0.0,0.0,0.0,0.0,0.0,0.0,0.0,0.0,0.0,0.0,0.0,0.0,0.0,0.0,0.0,0.0,0.0,0.0,0.0,0.0,0.0,0.0,0.0,0.0,0.0,0.0,0.0,0.0,0.0,0.0,0.0,0.0,0.0,0.0,0.0,0.0,0.0,0.0,0.0,0.0,0.0,0.0,0.0,0.0,0.0,0.0,0.0,0.0,0.0,0.0,0.0,0.0,0.0,0.0,0.0,0.0,0.0,0.0,0.0,0.0,0.0,0.0,0.0,0.0,0.0,0.0,0.0,0.0,0.0,0.0,0.0,0.0,0.0,0.0,0.0,0.0,0.0,0.0,0.0,0.0,0.0,0.0,0.0,0.0,0.0,0.0,0.0,0.0,0.0,0.0,0.0,0.0,0.0,0.0,0.0,0.0,0.0,0.0,0.0,0.0,0.0,0.0,0.0,0.0,0.0,0.0,0.0,0.0,0.0,0.0,0.0,0.0,0.0,0.0,0.0,0.0,0.0,0.0,0.0,0.0,0.0,0.0,0.0,0.0,0.0,0.0,0.0,0.0,0.0,0.0,0.0,0.0,0.0,0.0,0.0,0.0,0.0,0.0,0.0,0.0,0.0,0.0,0.0,0.0,0.0,0.0,0.0,0.0,0.0,0.0,0.0,0.0,0.0,0.0,0.0,0.0,0.0,0.0,0.0,0.0,0.0,0.0,0.0,0.0,0.0,0.0,0.0,0.0,0.0,0.0,0.0,0.0,0.0,0.0,0.0,0.0,0.0,0.0,0.0,0.0,0.0,0.0,0.0,0.0,0.0,0.0,0.0,0.0,0.0,0.0,0.0,0.0,0.0,0.0,0.0,0.0,0.0,0.0,0.0,0.0,0.0,0.0,0.0,0.0,0.0,0.0,0.0,0.0,0.0,0.0,0.0,0.0,0.0,0.0,0.0,0.0,0.0,0.0,0.0,0.0,0.0,0.0,0.0,0.0,0.0,0.0,0.0,0.0,0.0,0.0,0.0,0.0,0.0,0.0,0.0,0.0,0.0,0.0,0.0,0.0,0.0,0.0,0.0,0.0,0.0,0.0,0.0,0.0,0.0,0.0,0.0,0.0,0.0,0.0,0.0,0.0,0.0,0.0,0.0,0.0,0.0,0.0,0.0,0.0,0.0,0.0,0.0,0.0,0.0,0.0,0.0,0.0,0.0,0.0,0.0,0.0,0.0,0.0,0.0,0.0,0.0,0.0,0.0,0.0,0.0,0.0,0.0,0.0,0.0,0.0,0.0,0.0,0.0,0.0,0.0,0.0,0.0,0.0,0.0,0.0,0.0,0.0,0.0,0.0,0.0,0.0,0.0,0.0,0.0,0.0,0.0,0.0,0.0,0.0,0.0,0.0,0.0,0.0,0.0,0.0,0.0,0.0,0.0,0.0,0.0,0.0,0.0,0.0,0.0,0.0,0.0,0.0,0.0,0.0,0.0,0.0,0.0,0.0,0.0,0.0,0.0,0.0,0.0,0.0,0.0,0.0,0.0,0.0,0.0,0.0,0.0,0.0,0.0,0.0,0.0,0.0,0.0,0.0,0.0,0.0,0.0,0.0,0.0,0.0,0.0,0.0,0.0,0.0,0.0,0.0,0.0,0.0,0.0,0.0,0.0,0.0,0.0,0.0,0.0,0.0,0.0,0.0,0.0,0.0,0.0,0.0,0.0,0.0,0.0,0.0,0.0,0.0,0.0,0.0,0.0,0.0,0.0,0.0,0.0,0.0,0.0,0.0,0.0,0.0,0.0,0.0,0.0,0.0,0.0,0.0,0.0,0.0,0.0,0.0,0.0,0.0,0.0,0.0,0.0,0.0,0.0,0.0,0.0,0.0,0.0,0.0,0.0,0.0,0.0,0.0,0.0,0.0,0.0,0.0,0.0,0.0,0.0,0.0,0.0,0.0,0.0,0.0,0.0,0.0,0.0,0.0,0.0,0.0,0.0,0.0,0.0,0.0,0.0,0.0,0.0,0.0,0.0,0.0,0.0,0.0,0.0,0.0,0.0,0.0,0.0,0.0,0.0,0.0,0.0,0.0,0.0,0.0,0.0,0.0,0.0,0.0,0.0,0.0,0.0,0.0,0.0,0.0,0.0,0.0,0.0,0.0,0.0,0.0,0.0,0.0,0.0,0.0,0.0,0.0,0.0,0.0,0.0,0.0,0.0,0.0,0.0,0.0,0.0,0.0,0.0,0.0,0.0,0.0,0.0,0.0,0.0,0.0,0.0,0.0,0.0,0.0,0.0,0.0,0.0,0.0,0.0,0.0,0.0,0.0,0.0,0.0,0.0,0.0,0.0,0.0,0.0,0.0,0.0,0.0,0.0,0.0,0.0,0.0,0.0,0.0,0.0,0.0,0.0,0.0,0.0,0.0,0.0,0.0,0.0,0.0,0.0,0.0,0.0,0.0,0.0,0.0,0.0,0.0,0.0,0.0,0.0,0.0,0.0,0.0,0.0,0.0,0.0,0.0,0.0,0.0,0.0,0.0,0.0,0.0,0.0,0.0,0.0,0.0,0.0,0.0,0.0,0.0,0.0,0.0,0.0,0.0,0.0,0.0,0.0,0.0,0.0,0.0,0.0,0.0,0.0,0.0,0.0,0.0,0.0,0.0,0.0,0.0,0.0,0.0,0.0,0.0,0.0,0.0,0.0,0.0,0.0,0.0,0.0,0.0,0.0,0.0,0.0,0.0,0.0,0.0,0.0,0.0,0.0,0.0,0.0,0.0,0.0,0.0,0.0,0.0,0.0,0.0,0.0,0.0,0.0,0.0,0.0,0.0,0.0,0.0,0.0,0.0,0.0,0.0,0.0,0.0,0.0,0.0,0.0,0.0,0.0,0.0,0.0,0.0,0.0,0.0,0.0,0.0,0.0,0.0,0.0,0.0,0.0,0.0,0.0,0.0,0.0,0.0,0.0,0.0,0.0,0.0,0.0,0.0,0.0,0.0,0.0,0.0,0.0,0.0,0.0,0.0,0.0,0.0,0.0,0.0,0.0,0.0,0.0,0.0,0.0,0.0,0.0,0.0,0.0,0.0,0.0,0.0,0.0,0.0,0.0,0.0,0.0,0.0,0.0,0.0,0.0,0.0,0.0,0.0,0.0,0.0,0.0,0.0,0.0,0.0,0.0,0.0,0.0,0.0,0.0,0.0,0.0,0.0,0.0,0.0,0.0,0.0,0.0,0.0,0.0,0.0,0.0,0.0,0.0,0.0,0.0,0.0,0.0,0.0,0.0,0.0,0.0,0.0,0.0,0.0,0.0,0.0,0.0,0.0,0.0,0.0,0.0,0.0,0.0,0.0,0.0,0.0,0.0,0.0,0.0,0.0,0.0,0.0,0.0,0.0,0.0,0.0,0.0,0.0,0.0,0.0,0.0,0.0,0.0,0.0,0.0,0.0,0.0,0.0,0.0,0.0,0.0,0.0,0.0,0.0,0.0,0.0,0.0,0.0,0.0,0.0,0.0,0.0,0.0,0.0,0.0,0.0,0.0,0.0,0.0,0.0,0.0,0.0,0.0,0.0,0.0,0.0,0.0,0.0,0.0,0.0,0.0,0.0,0.0,0.0,0.0,0.0,0.0,0.0,0.0,0.0,0.0,0.0,0.0,0.0,0.0,0.0,0.0,0.0,0.0,0.0,0.0,0.0,0.0,0.0,0.0,0.0,0.0,0.0,0.0,0.0,0.0,0.0,0.0,0.0,0.0,0.0,0.0,0.0,0.0,0.0,0.0,0.0,0.0,0.0,0.0,0.0,0.0,0.0,0.0,0.0,0.0,0.0,0.0,0.0,0.0,0.0,0.0,0.0,0.0,0.0,0.0,0.0,0.0,0.0,0.0,0.0,0.0,0.0,0.0,0.0,0.0,0.0,0.0,0.0,0.0,0.0,0.0,0.0,0.0,0.0,0.0,0.0,0.0,0.0,0.0,0.0,0.0,0.0,0.0,0.0,0.0,0.0,0.0,0.0,0.0,0.0,0.0,0.0,0.0,0.0,0.0,0.0,0.0,0.0,0.0,0.0,0.0,0.0,0.0,0.0,0.0,0.0,0.0,0.0,0.0,0.0,0.0,0.0,0.0,0.0,0.0,0.0,0.0,0.0,0.0,0.0,0.0,0.0,0.0,0.0,0.0,0.0,0.0,0.0,0.0,0.0,0.0,0.0,0.0,0.0,0.0,0.0,0.0,0.0,0.0,0.0,0.0,0.0,0.0,0.0,0.0,0.0,0.0,0.0,0.0,0.0,0.0,0.0,0.0,0.0,0.0,0.0,0.0,0.0,0.0,0.0,0.0,0.0,0.0,0.0,0.0,0.0,0.0,0.0,0.0,0.0,0.0,0.0,0.0,0.0,0.0,0.0,0.0,0.0,0.0,0.0,0.0,0.0,0.0,0.0,0.0,0.0,0.0,0.0,0.0,0.0,0.0,0.0,0.0,0.0,0.0,0.0,0.0,0.0,0.0,0.0,0.0,0.0,0.0,0.0,0.0,0.0,0.0,0.0,0.0,0.0,0.0,0.0,0.0,0.0,0.0,0.0,0.0,0.0,0.0,0.0,0.0,0.0,0.0,0.0,0.0,0.0,0.0,0.0,0.0,0.0,0.0,0.0,0.0,0.0,0.0,0.0,0.0,0.0,0.0,0.0,0.0,0.0,0.0,0.0,0.0,0.0,0.0,0.0,0.0,0.0,0.0,0.0,0.0,0.0,0.0,0.0,0.0,0.0,0.0,0.0,0.0,0.0,0.0,0.0,0.0,0.0,0.0,0.0,0.0,0.0,0.0,0.0,0.0,0.0,0.0,0.0,0.0,0.0,0.0,0.0,0.0,0.0,0.0,0.0,0.0,0.0,0.0,0.0,0.0,0.0,0.0,0.0,0.0,0.0,0.0,0.0,0.0,0.0,0.0,0.0,0.0,0.0,0.0,0.0,0.0,0.0,0.0,0.0,0.0,0.0,0.0,0.0,0.0,0.0,0.0,0.0,0.0,0.0,0.0,0.0,0.0,0.0,0.0,0.0,0.0,0.0,0.0,0.0,0.0,0.0,0.0,0.0,0.0,0.0,0.0,0.0,0.0,0.0,0.0,0.0,0.0,0.0,0.0,0.0,0.0,0.0,0.0,0.0,0.0,0.0,0.0,0.0,0.0,0.0,0.0,0.0,0.0,0.0,0.0,0.0,0.0,0.0,0.0,0.0,0.0,0.0,0.0,0.0,0.0,0.0,0.0,0.0,0.0,0.0,0.0,0.0,0.0,0.0,0.0,0.0,0.0,0.0,0.0,0.0,0.0,0.0,0.0,0.0,0.0,0.0,0.0,0.0,0.0,0.0,0.0,0.0,0.0,0.0,0.0,0.0,0.0,0.0,0.0,0.0,0.0,0.0,0.0,0.0,0.0,0.0,0.0,0.0,0.0,0.0,0.0,0.0,0.0,0.0,0.0,0.0,0.0,0.0,0.0,0.0,0.0,0.0,0.0,0.0,0.0,0.0,0.0,0.0,0.0,0.0,0.0,0.0,0.0,0.0,0.0,0.0,0.0,0.0,0.0,0.0,0.0,0.0,0.0,0.0,0.0,0.0,0.0,0.0,0.0,0.0,0.0,0.0,0.0,0.0,0.0,0.0,0.0,0.0,0.0,0.0,0.0,0.0,0.0,0.0,0.0,0.0,0.0,0.0,0.0,0.0,0.0,0.0,0.0,0.0,0.0,0.0,0.0,0.0,0.0,0.0,0.0,0.0,0.0,0.0,0.0,0.0,0.0,0.0,0.0,0.0,0.0,0.0,0.0,0.0,0.0,0.0,0.0,0.0,0.0,0.0,0.0,0.0,0.0,0.0,0.0,0.0,0.0,0.0,0.0,0.0,0.0,0.0,0.0,0.0,0.0,0.0,0.0,0.0,0.0,0.0,0.0,0.0,0.0,0.0,0.0,0.0,0.0,0.0,0.0,0.0,0.0,0.0,0.0,0.0,0.0,0.0,0.0,0.0,0.0,0.0,0.0,0.0,0.0,0.0,0.0,0.0,0.0,0.0,0.0,0.0,0.0,0.0,0.0,0.0,0.0,0.0,0.0,0.0,0.0,0.0,0.0,0.0,0.0,0.0,0.0,0.0,0.0,0.0,0.0,0.0,0.0,0.0,0.0,0.0,0.0,0.0,0.0,0.0,0.0,0.0,0.0,0.0,0.0,0.0,0.0,0.0,0.0,0.0,0.0,0.0,0.0,0.0,0.0,0.0,0.0,0.0,0.0,0.0,0.0,0.0,0.0,0.0,0.0,0.0,0.0,0.0,0.0,0.0,0.0,0.0,0.0,0.0,0.0,0.0,0.0,0.0,0.0,0.0,0.0,0.0,0.0,0.0,0.0,0.0,0.0,0.0,0.0,0.0,0.0,0.0,0.0,0.0,0.0,0.0,0.0,0.0,0.0,0.0,0.0,0.0,0.0,0.0,0.0,0.0,0.0,0.0,0.0,0.0,0.0,0.0,0.0,0.0,0.0,0.0,0.0,0.0,0.0,0.0,0.0,0.0,0.0,0.0,0.0,0.0,0.0,0.0,0.0,0.0,0.0,0.0,0.0,0.0,0.0,0.0,0.0,0.0,0.0,0.0,0.0,0.0,0.0,0.0,0.0,0.0,0.0,0.0,0.0,0.0,0.0,0.0,0.0,0.0,0.0,0.0,0.0,0.0,0.0,0.0,0.0,0.0,0.0,0.0,0.0,0.0,0.0,0.0,0.0,0.0,0.0,0.0,0.0,0.0,0.0,0.0,0.0,0.0,0.0,0.0,0.0,0.0,0.0,0.0,0.0,0.0,0.0,0.0,0.0,0.0,0.0,0.0,0.0,0.0,0.0,0.0,0.0,0.0,0.0,0.0,0.0,0.0,0.0,0.0,0.0,0.0,0.0,0.0,0.0,0.0,0.0,0.0,0.0,0.0,0.0,0.0,0.0,0.0,0.0,0.0,0.0,0.0,0.0,0.0,0.0,0.0,0.0,0.0,0.0,0.0,0.0,0.0,0.0,0.0,0.0,0.0,0.0,0.0,0.0,0.0,0.0,0.0,0.0,0.0,0.0,0.0,0.0,0.0,0.0,0.0,0.0,0.0,0.0,0.0,0.0,0.0,0.0,0.0,0.0,0.0,0.0,0.0,0.0,0.0,0.0,0.0,0.0,0.0,0.0,0.0,0.0,0.0,0.0,0.0,0.0,0.0,0.0,0.0,0.0,0.0,0.0,0.0,0.0,0.0,0.0,0.0,0.0,0.0,0.0,0.0,0.0,0.0,0.0,0.0,0.0,0.0,0.0,0.0,0.0,0.0,0.0,0.0,0.0,0.0,0.0,0.0,0.0,0.0,0.0,0.0,0.0,0.0,0.0,0.0,0.0,0.0,0.0,0.0,0.0,0.0,0.0,0.0,0.0,0.0,0.0,0.0,0.0,0.0,0.0,0.0,0.0,0.0,0.0,0.0,0.0,0.0,0.0,0.0,0.0,0.0,0.0,0.0,0.0,0.0,0.0,0.0,0.0,0.0,0.0,0.0,0.0,0.0,0.0,0.0,0.0,0.0,0.0,0.0,0.0,0.0,0.0,0.0,0.0,0.0,0.0,0.0,0.0,0.0,0.0,0.0,0.0,0.0,0.0,0.0,0.0,0.0,0.0,0.0,0.0,0.0,0.0,0.0,0.0,0.0,0.0,0.0,0.0,0.0,0.0,0.0,0.0,0.0,0.0,0.0,0.0,0.0,0.0,0.0,0.0,0.0,0.0,0.0,0.0,0.0,0.0,0.0,0.0,0.0,0.0,0.0,0.0,0.0,0.0,0.0,0.0,0.0,0.0,0.0,0.0,0.0,0.0,0.0,0.0,0.0,0.0,0.0,0.0,0.0,0.0,0.0,0.0,0.0,0.0,0.0,0.0,0.0,0.0,0.0,0.0,0.0,0.0,0.0,0.0,0.0,0.0,0.0,0.0,0.0,0.0,0.0,0.0,0.0,0.0,0.0,0.0,0.0,0.0,0.0,0.0,0.0,0.0,0.0,0.0,0.0,0.0,0.0,0.0,0.0,0.0,0.0,0.0,0.0,0.0,0.0,0.0,0.0,0.0,0.0,0.0,0.0,0.0,0.0,0.0,0.0,0.0,0.0,0.0,0.0,0.0,0.0,0.0,0.0,0.0,0.0,0.0,0.0,0.0,0.0,0.0,0.0,0.0,0.0,0.0,0.0,0.0,0.0,0.0,0.0,0.0,0.0,0.0,0.0,0.0,0.0,0.0,0.0,0.0,0.0,0.0,0.0,0.0,0.0,0.0,0.0,0.0,0.0,0.0,0.0,0.0,0.0,0.0,0.0,0.0,0.0,0.0,0.0,0.0,0.0,0.0,0.0,0.0,0.0,0.0,0.0,0.0,0.0,0.0,0.0,0.0,0.0,0.0,0.0,0.0,0.0,0.0,0.0,0.0,0.0,0.0,0.0,0.0,0.0,0.0,0.0,0.0,0.0,0.0,0.0,0.0,0.0,0.0,0.0,0.0,0.0,0.0,0.0,0.0,0.0,0.0,0.0,0.0,0.0,0.0,0.0,0.0,0.0,0.0,0.0,0.0,0.0,0.0,0.0,0.0,0.0,0.0,0.0,0.0,0.0,0.0,0.0,0.0,0.0,0.0,0.0,0.0,0.0,0.0,0.0,0.0,0.0,0.0,0.0,0.0,0.0,0.0,0.0,0.0,0.0,0.0,0.0,0.0,0.0,0.0,0.0,0.0,0.0,0.0,0.0,0.0,0.0,0.0,0.0,0.0,0.0,0.0,0.0,0.0,0.0,0.0,0.0,0.0,0.0,0.0,0.0,0.0,0.0,0.0,0.0,0.0,0.0,0.0,0.0,0.0,0.0,0.0,0.0,0.0,0.0,0.0,0.0,0.0,0.0,0.0,0.0,0.0,0.0,0.0,0.0,0.0,0.0,0.0,0.0,0.0,0.0,0.0,0.0,0.0,0.0,0.0,0.0,0.0,0.0,0.0,0.0,0.0,0.0,0.0,0.0,0.0,0.0,0.0,0.0,0.0,0.0,0.0,0.0,0.0,0.0,0.0,0.0,0.0,0.0,0.0,0.0,0.0,0.0,0.0,0.0,0.0,0.0,0.0,0.0,0.0,0.0,0.0,0.0,0.0,0.0,0.0,0.0,0.0,0.0,0.0,0.0,0.0,0.0,0.0,0.0,0.0,0.0,0.0,0.0,0.0,0.0,0.0,0.0,0.0,0.0,0.0,0.0,0.0,0.0,0.0,0.0,0.0,0.0,0.0,0.0,0.0,0.0,0.0,0.0,0.0,0.0,0.0,0.0,0.0,0.0,0.0,0.0,0.0,0.0,0.0,0.0,0.0,0.0,0.0,0.0,0.0,0.0,0.0,0.0,0.0,0.0,0.0,0.0,0.0,0.0,0.0,0.0,0.0,0.0,0.0,0.0,0.0,0.0,0.0,0.0,0.0,0.0,0.0,0.0,0.0,0.0,0.0,0.0,0.0,0.0,0.0,0.0,0.0,0.0,0.0,0.0,0.0,0.0,0.0,0.0,0.0,0.0,0.0,0.0,0.0,0.0,0.0,0.0,0.0,0.0,0.0,0.0,0.0,0.0,0.0,0.0,0.0,0.0,0.0,0.0,0.0,0.0,0.0,0.0,0.0,0.0,0.0,0.0,0.0,0.0,0.0,0.0,0.0,0.0,0.0,0.0,0.0,0.0,0.0,0.0,0.0,0.0,0.0,0.0,0.0,0.0,0.0,0.0,0.0,0.0,0.0,0.0,0.0,0.0,0.0,0.0,0.0,0.0,0.0,0.0,0.0,0.0,0.0,0.0,0.0,0.0,0.0,0.0,0.0,0.0,0.0,0.0,0.0,0.0,0.0,0.0,0.0,0.0,0.0,0.0,0.0,0.0,0.0,0.0,0.0,0.0,0.0,0.0,0.0,0.0,0.0,0.0,0.0,0.0,0.0,0.0,0.0,0.0,0.0,0.0,0.0,0.0,0.0,0.0,0.0,0.0,0.0,0.0,0.0,0.0,0.0,0.0,0.0,0.0,0.0,0.0,0.0,0.0,0.0,0.0,0.0,0.0,0.0,0.0,0.0,0.0,0.0,0.0,0.0,0.0,0.0,0.0,0.0,0.0,0.0,0.0,0.0,0.0,0.0,0.0,0.0,0.0,0.0,0.0,0.0,0.0,0.0,0.0,0.0,0.0,0.0,0.0,0.0,0.0,0.0,0.0,0.0,0.0,0.0,0.0,0.0,0.0,0.0,0.0,0.0,0.0,0.0,0.0,0.0,0.0,0.0,0.0,0.0,0.0,0.0,0.0,0.0,0.0,0.0,0.0,0.0,0.0,0.0,0.0,0.0,0.0,0.0,0.0,0.0,0.0,0.0,0.0,0.0,0.0,0.0,0.0,0.0,0.0,0.0,0.0,0.0,0.0,0.0,0.0,0.0,0.0,0.0,0.0,0.0,0.0,0.0,0.0,0.0,0.0,0.0,0.0,0.0,0.0,0.0,0.0,0.0,0.0,0.0,0.0,0.0,0.0,0.0,0.0,0.0,0.0,0.0,0.0,0.0,0.0,0.0,0.0,0.0,0.0,0.0,0.0,0.0,0.0,0.0,0.0,0.0,0.0,0.0,0.0,0.0,0.0,0.0,0.0,0.0,0.0,0.0,0.0,0.0,0.0,0.0,0.0,0.0,0.0,0.0,0.0,0.0,0.0,0.0,0.0,0.0,0.0,0.0,0.0,0.0,0.0,0.0,0.0,0.0,0.0,0.0,0.0,0.0,0.0,0.0,0.0,0.0,0.0,0.0,0.0,0.0,0.0,0.0,0.0,0.0,0.0,0.0,0.0,0.0,0.0,0.0,0.0,0.0,0.0,0.0,0.0,0.0,0.0,0.0,0.0,0.0,0.0,0.0,0.0,0.0,0.0,0.0,0.0,0.0,0.0,0.0,0.0,0.0,0.0,0.0,0.0,0.0,0.0,0.0,0.0,0.0,0.0,0.0,0.0,0.0,0.0,0.0,0.0,0.0,0.0,0.0,0.0,0.0,0.0,0.0,0.0,0.0,0.0,0.0,0.0,0.0,0.0,0.0,0.0,0.0,0.0,0.0,0.0,0.0,0.0,0.0,0.0,0.0,0.0,0.0,0.0,0.0,0.0,0.0,0.0,0.0,0.0,0.0,0.0,0.0,0.0,0.0,0.0,0.0,0.0,0.0,0.0,0.0,0.0,0.0,0.0,0.0,0.0,0.0,0.0,0.0,0.0,0.0,0.0,0.0,0.0,0.0,0.0,0.0,0.0,0.0,0.0,0.0,0.0,0.0,0.0,0.0,0.0,0.0,0.0,0.0,0.0,0.0,0.0,0.0,0.0,0.0,0.0,0.0,0.0,0.0,0.0,0.0,0.0,0.0,0.0,0.0,0.0,0.0,0.0,0.0,0.0,0.0,0.0,0.0,0.0,0.0,0.0,0.0,0.0,0.0,0.0,0.0,0.0,0.0,0.0,0.0,0.0,0.0,0.0,0.0,0.0,0.0,0.0,0.0,0.0,0.0,0.0,0.0,0.0,0.0,0.0,0.0,0.0,0.0,0.0,0.0,0.0,0.0,0.0,0.0,0.0,0.0,0.0,0.0,0.0,0.0,0.0,0.0,0.0,0.0,0.0,0.0,0.0,0.0,0.0,0.0,0.0,0.0,0.0,0.0,0.0,0.0,0.0,0.0,0.0,0.0,0.0,0.0,0.0,0.0,0.0,0.0,0.0,0.0,0.0,0.0,0.0,0.0,0.0,0.0,0.0,0.0,0.0,0.0,0.0,0.0,0.0,0.0,0.0,0.0,0.0,0.0,0.0,0.0,0.0,0.0,0.0,0.0,0.0,0.0,0.0,0.0,0.0,0.0,0.0,0.0,0.0,0.0,0.0,0.0,0.0,0.0,0.0,0.0,0.0,0.0,0.0,0.0,0.0,0.0,0.0,0.0,0.0,0.0,0.0,0.0,0.0,0.0,0.0,0.0,0.0,0.0,0.0,0.0,0.0,0.0,0.0,0.0,0.0,0.0,0.0,0.0,0.0,0.0,0.0,0.0,0.0,0.0,0.0,0.0,0.0,0.0,0.0,0.0,0.0,0.0,0.0,0.0,0.0,0.0,0.0,0.0,0.0,0.0,0.0,0.0,0.0,0.0,0.0,0.0,0.0,0.0,0.0,0.0,0.0,0.0,0.0,0.0,0.0,0.0,0.0,0.0,0.0,0.0,0.0,0.0,0.0,0.0,0.0,0.0,0.0,0.0,0.0,0.0,0.0,0.0,0.0,0.0,0.0,0.0,0.0,0.0,0.0,0.0,0.0,0.0,0.0,0.0,0.0,0.0,0.0,0.0,0.0,0.0,0.0,0.0,0.0,0.0,0.0,0.0,0.0,0.0,0.0,0.0,0.0,0.0,0.0,0.0,0.0,0.0,0.0,0.0,0.0,0.0,0.0,0.0,0.0,0.0,0.0,0.0,0.0,0.0,0.0,0.0,0.0,0.0,0.0,0.0,0.0,0.0,0.0,0.0,0.0,0.0,0.0,0.0,0.0,0.0,0.0,0.0,0.0,0.0,0.0,0.0,0.0,0.0,0.0,0.0,0.0,0.0,0.0,0.0,0.0,0.0,0.0,0.0,0.0,0.0,0.0,0.0,0.0,0.0,0.0,0.0,0.0,0.0,0.0,0.0,0.0,0.0,0.0,0.0,0.0,0.0,0.0,0.0,0.0,0.0,0.0,0.0,0.0,0.0,0.0,0.0,0.0,0.0,0.0,0.0,0.0,0.0,0.0,0.0,0.0,0.0,0.0,0.0,0.0,0.0,0.0,0.0,0.0,0.0,0.0,0.0,0.0,0.0,0.0,0.0,0.0,0.0,0.0,0.0,0.0,0.0,0.0,0.0,0.0,0.0,0.0,0.0,0.0,0.0,0.0,0.0,0.0,0.0,0.0,0.0,0.0,0.0,0.0,0.0,0.0,0.0,0.0,0.0,0.0,0.0,0.0,0.0,0.0,0.0,0.0,0.0,0.0,0.0,0.0,0.0,0.0,0.0,0.0,0.0,0.0,0.0,0.0,0.0,0.0,0.0,0.0,0.0,0.0,0.0,0.0,0.0,0.0,0.0,0.0,0.0,0.0,0.0,0.0,0.0,0.0,0.0,0.0,0.0,0.0,0.0,0.0,0.0,0.0,0.0,0.0,0.0,0.0,0.0,0.0,0.0,0.0,0.0,0.0,0.0,0.0,0.0,0.0,0.0,0.0,0.0,0.0,0.0,0.0,0.0,0.0,0.0,0.0,0.0,0.0,0.0,0.0,0.0,0.0,0.0,0.0,0.0,0.0,0.0,0.0,0.0,0.0,0.0,0.0,0.0,0.0,0.0,0.0,0.0,0.0,0.0,0.0,0.0,0.0,0.0,0.0,0.0,0.0,0.0,0.0,0.0,0.0,0.0,0.0,0.0,0.0,0.0,0.0,0.0,0.0,0.0,0.0,0.0,0.0,0.0,0.0,0.0,0.0,0.0,0.0,0.0,0.0,0.0,0.0,0.0,0.0,0.0,0.0,0.0,0.0,0.0,0.0,0.0,0.0,0.0,0.0,0.0,0.0,0.0,0.0,0.0,0.0,0.0,0.0,0.0,0.0,0.0,0.0,0.0,0.0,0.0,0.0,0.0,0.0,0.0,0.0,0.0,0.0,0.0,0.0,0.0,0.0,0.0,0.0,0.0,0.0,0.0,0.0,0.0,0.0,0.0,0.0,0.0,0.0,0.0,0.0,0.0,0.0,0.0,0.0,0.0,0.0,0.0,0.0,0.0,0.0,0.0,0.0,0.0,0.0,0.0,0.0,0.0,0.0,0.0,0.0,0.0,0.0,0.0,0.0,0.0,0.0,0.0,0.0,0.0,0.0,0.0,0.0,0.0,0.0,0.0,0.0,0.0,0.0,0.0,0.0,0.0,0.0,0.0,0.0,0.0,0.0,0.0,0.0,0.0,0.0,0.0,0.0,0.0,0.0,0.0,0.0,0.0,0.0,0.0,0.0,0.0,0.0,0.0,0.0,0.0,0.0,0.0,0.0,0.0,0.0,0.0,0.0,0.0,0.0,0.0,0.0,0.0,0.0,0.0,0.0,0.0,0.0,0.0,0.0,0.0,0.0,0.0,0.0,0.0,0.0,0.0,0.0,0.0,0.0,0.0,0.0,0.0,0.0,0.0,0.0,0.0,0.0,0.0,0.0,0.0,0.0,0.0,0.0,0.0,0.0,0.0,0.0,0.0,0.0,0.0,0.0,0.0,0.0,0.0,0.0,0.0,0.0,0.0,0.0,0.0,0.0,0.0,0.0,0.0,0.0,0.0,0.0,0.0,0.0,0.0,0.0,0.0,0.0,0.0,0.0,0.0,0.0,0.0,0.0,0.0,0.0,0.0,0.0,0.0,0.0,0.0,0.0,0.0,0.0,0.0,0.0,0.0,0.0,0.0,0.0,0.0,0.0,0.0,0.0,0.0,0.0,0.0,0.0,0.0,0.0,0.0,0.0,0.0,0.0,0.0,0.0,0.0,0.0,0.0,0.0,0.0,0.0,0.0,0.0,0.0,0.0,0.0,0.0,0.0,0.0,0.0,0.0,0.0,0.0,0.0,0.0,0.0,0.0,0.0,0.0,0.0,0.0,0.0,0.0,0.0,0.0,0.0,0.0,0.0,0.0,0.0,0.0,0.0,0.0,0.0,0.0,0.0,0.0,0.0,0.0,0.0,0.0,0.0,0.0,0.0,0.0,0.0,0.0,0.0,0.0,0.0,0.0,0.0,0.0,0.0,0.0,0.0,0.0,0.0,0.0,0.0,0.0,0.0,0.0,0.0,0.0,0.0,0.0,0.0,0.0,0.0,0.0,0.0,0.0,0.0,0.0,0.0,0.0,0.0,0.0,0.0,0.0,0.0,0.0,0.0,0.0,0.0,0.0,0.0,0.0,0.0,0.0,0.0,0.0,0.0,0.0,0.0,0.0,0.0,0.0,0.0,0.0,0.0,0.0,0.0,0.0,0.0,0.0,0.0,0.0,0.0,0.0,0.0,0.0,0.0,0.0,0.0,0.0,0.0,0.0,0.0,0.0,0.0,0.0,0.0,0.0,0.0,0.0,0.0,0.0,0.0,0.0,0.0,0.0,0.0,0.0,0.0,0.0,0.0,0.0,0.0,0.0,0.0,0.0,0.0,0.0,0.0,0.0,0.0,0.0,0.0,0.0,0.0,0.0,0.0,0.0,0.0,0.0,0.0,0.0,0.0,0.0,0.0,0.0,0.0,0.0,0.0,0.0,0.0,0.0,0.0,0.0,0.0,0.0,0.0,0.0,0.0,0.0,0.0,0.0,0.0,0.0,0.0,0.0,0.0,0.0,0.0,0.0,0.0,0.0,0.0,0.0,0.0,0.0,0.0,0.0,0.0,0.0,0.0,0.0,0.0,0.0,0.0,0.0,0.0,0.0,0.0,0.0,0.0,0.0,0.0,0.0,0.0,0.0,0.0,0.0,0.0,0.0,0.0,0.0,0.0,0.0,0.0,0.0,0.0,0.0,0.0,0.0,0.0,0.0,0.0,0.0,0.0,0.0,0.0,0.0,0.0,0.0,0.0,0.0,0.0,0.0,0.0,0.0,0.0,0.0,0.0,0.0,0.0,0.0,0.0,0.0,0.0,0.0,0.0,0.0,0.0,0.0,0.0,0.0,0.0,0.0,0.0,0.0,0.0,0.0,0.0,0.0,0.0,0.0,0.0,0.0,0.0,0.0,0.0,0.0,0.0,0.0,0.0,0.0,0.0,0.0,0.0,0.0,0.0,0.0,0.0,0.0,0.0,0.0,0.0,0.0,0.0,0.0,0.0,0.0,0.0,0.0,0.0,0.0,0.0,0.0,0.0,0.0,0.0,0.0,0.0,0.0,0.0,0.0,0.0,0.0,0.0,0.0,0.0,0.0,0.0,0.0,0.0,0.0,0.0,0.0,0.0,0.0,0.0,0.0,0.0,0.0,0.0,0.0,0.0,0.0,0.0,0.0,0.0,0.0,0.0,0.0,0.0,0.0,0.0,0.0,0.0,0.0,0.0,0.0,0.0,0.0,0.0,0.0,0.0,0.0,0.0,0.0,0.0,0.0,0.0,0.0,0.0,0.0,0.0,0.0,0.0,0.0,0.0,0.0,0.0,0.0,0.0,0.0,0.0,0.0,0.0,0.0,0.0,0.0,0.0,0.0,0.0,0.0,0.0,0.0,0.0,0.0,0.0,0.0,0.0,0.0,0.0,0.0,0.0,0.0,0.0,0.0,0.0,0.0,0.0,0.0,0.0,0.0,0.0,0.0,0.0,0.0,0.0,0.0,0.0,0.0,0.0,0.0,0.0,0.0,0.0,0.0,0.0,0.0,0.0,0.0,0.0,0.0,0.0,0.0,0.0,0.0,0.0,0.0,0.0,0.0,0.0,0.0,0.0,0.0,0.0,0.0,0.0,0.0,0.0,0.0,0.0,0.0,0.0,0.0,0.0,0.0,0.0,0.0,0.0,0.0,0.0,0.0,0.0,0.0,0.0,0.0,0.0,0.0,0.0,0.0,0.0,0.0,0.0,0.0,0.0,0.0,0.0,0.0,0.0,0.0,0.0,0.0,0.0,0.0,0.0,0.0,0.0,0.0,0.0,0.0,0.0,0.0,0.0,0.0,0.0,0.0,0.0,0.0,0.0,0.0,0.0,0.0,0.0,0.0,0.0,0.0,0.0,0.0,0.0,0.0,0.0,0.0,0.0,0.0,0.0,0.0,0.0,0.0,0.0,0.0,0.0,0.0,0.0,0.0,0.0,0.0,0.0,0.0,0.0,0.0,0.0,0.0,0.0,0.0,0.0,0.0,0.0,0.0,0.0,0.0,0.0,0.0,0.0,0.0,0.0,0.0,0.0,0.0,0.0,0.0,0.0,0.0,0.0,0.0,0.0,0.0,0.0,0.0,0.0,0.0,0.0,0.0,0.0,0.0,0.0,0.0,0.0,0.0,0.0,0.0,0.0,0.0,0.0,0.0,0.0,0.0,0.0,0.0,0.0,0.0,0.0,0.0,0.0,0.0,0.0,0.0,0.0,0.0,0.0,0.0,0.0,0.0,0.0,0.0,0.0,0.0,0.0,0.0,0.0,0.0,0.0,0.0,0.0,0.0,0.0,0.0,0.0,0.0,0.0,0.0,0.0,0.0,0.0,0.0,0.0,0.0,0.0,0.0,0.0,0.0,0.0,0.0,0.0,0.0,0.0,0.0,0.0,0.0,0.0,0.0,0.0,0.0,0.0,0.0,0.0,0.0,0.0,0.0,0.0,0.0,0.0,0.0,0.0,0.0,0.0,0.0,0.0,0.0,0.0,0.0,0.0,0.0,0.0,0.0,0.0,0.0,0.0,0.0,0.0,0.0,0.0,0.0,0.0,0.0,0.0,0.0,0.0,0.0,0.0,0.0,0.0,0.0,0.0,0.0,0.0,0.0,0.0,0.0,0.0,0.0,0.0,0.0,0.0,0.0,0.0,0.0,0.0,0.0,0.0,0.0,0.0,0.0,0.0,0.0,0.0,0.0,0.0,0.0,0.0,0.0,0.0,0.0,0.0,0.0,0.0,0.0,0.0,0.0,0.0,0.0,0.0,0.0,0.0,0.0,0.0,0.0,0.0,0.0,0.0,0.0,0.0,0.0,0.0,0.0739,0.0464,0.0189,0.0,0.0,0.0,0.0,0.0,0.0,0.0,0.0,0.0,0.0,0.0,0.0,0.0,0.0,0.0,0.0,0.0,0.0,0.0,0.0,0.0,0.0,0.0,0.0,0.0,0.0,0.0,0.0,0.0,0.0,0.0,0.0,0.0,0.0,0.0,0.0,0.0,0.0,0.0,0.0,0.0,0.0,0.0,0.0,0.0,0.0,0.0,0.0,0.0,0.0,0.0,0.0,0.0,0.0,0.0,0.0,0.0,0.0,0.0,0.0,0.0,0.0,0.0,0.0,0.0,0.0,0.0,0.0,0.0,0.0,0.0,0.0,0.0,0.0,0.0,0.0,0.0,0.0,0.0,0.0,0.0,0.0,0.0,0.0,0.0,0.0,0.0,0.0,0.0,0.0,0.0,0.0,0.0,0.0,0.0,0.0,0.0,0.0,0.0,0.0,0.0,0.0,0.0,0.0,0.0,0.0,0.0,0.0,0.0,0.0,0.0,0.6737,0.635,0.5511,0.3559,0.1454,0.0,0.0,0.0,0.0,0.0,0.0,0.0,0.0,0.0,0.0,0.0,0.0,0.0,0.0,0.0,0.0,0.0,0.0,0.0,0.0,0.0,0.0,0.0,0.0,0.0,0.0,0.0,0.0,0.0,0.0,0.0,0.0,0.0,0.0,0.0,0.0,0.0,0.0,0.0,0.0,0.0,0.0,0.0,0.0,0.0,0.0,0.0,0.0,0.0,0.0,0.0,0.0,0.0,0.0,0.0,0.0,0.0,0.0,0.0,0.0,0.0,0.0,0.0,0.0,0.0,0.0,0.0,0.0,0.0,0.0,0.0,0.0,0.0,0.0,0.0,0.0,0.0,0.0,0.0,0.0,0.0,0.0,0.0,0.0,0.0,0.0,0.0,0.0,0.0,0.0,0.0,0.0,0.0,0.0,0.0,0.0,0.0,0.0,0.0,0.0,0.0,0.0,0.0,0.0,0.0,0.0,0.0,0.0,0.0,0.0,0.0,0.7373,0.7522,0.7292,0.6047,0.4831,0.3592,0.2439,0.0926,0.0,0.0,0.0,0.0,0.0,0.0,0.0,0.0,0.0,0.0,0.0,0.0,0.0,0.0,0.0,0.0,0.0,0.0,0.0,0.0,0.0,0.0,0.0,0.0,0.0,0.0,0.0,0.0,0.0,0.0,0.0,0.0,0.0,0.0,0.0,0.0,0.0,0.0,0.0,0.0,0.0,0.0,0.0,0.0,0.0,0.0,0.0,0.0,0.0,0.0,0.0,0.0,0.0,0.0,0.0,0.0,0.0,0.0,0.0,0.0,0.0,0.0,0.0,0.0,0.0,0.0,0.0,0.0,0.0,0.0,0.0,0.0,0.0,0.0,0.0,0.0,0.0,0.0,0.0,0.0,0.0,0.0,0.0,0.0,0.0,0.0,0.0,0.0,0.0,0.0,0.0,0.0,0.0,0.0,0.0,0.0,0.0,0.0,0.0,0.0,0.0,0.0,0.0,0.0,0.0,0.0,0.0,0.0,0.7421,0.755,0.7744,0.7778,0.7898,0.7315,0.5467,0.3226,0.1268,0.0109,0.0,0.0,0.0,0.0,0.0,0.0,0.0,0.0,0.0,0.0,0.0,0.0,0.0,0.0,0.0,0.0,0.0,0.0,0.0,0.0,0.0,0.0,0.0,0.0,0.0,0.0,0.0,0.0,0.0,0.0,0.0,0.0,0.0,0.0,0.0,0.0,0.0,0.0,0.0,0.0,0.0,0.0,0.0,0.0,0.0,0.0,0.0,0.0,0.0,0.0,0.0,0.0,0.0,0.0,0.0,0.0,0.0,0.0,0.0,0.0,0.0,0.0,0.0,0.0,0.0,0.0,0.0,0.0,0.0,0.0,0.0,0.0,0.0,0.0,0.0,0.0,0.0,0.0,0.0,0.0,0.0,0.0,0.0,0.0,0.0,0.0,0.0,0.0,0.0,0.0,0.0,0.0,0.0,0.0,0.0,0.0,0.0,0.0,0.0,0.0,0.0,0.0,0.0,0.0,0.0,0.0,0.7597,0.7706,0.7855,0.7991,0.7959,0.7938,0.7667,0.7718,0.6038,0.0709,0.0,0.0,0.0,0.0,0.0,0.0,0.0,0.0,0.0,0.0,0.0,0.0,0.0,0.0,0.0,0.0,0.0,0.0,0.0,0.0,0.0,0.0,0.0,0.0,0.0,0.0,0.0,0.0,0.0,0.0,0.0,0.0,0.0,0.0,0.0,0.0,0.0,0.0,0.0,0.0,0.0,0.0,0.0,0.0,0.0,0.0,0.0,0.0,0.0,0.0,0.0,0.0,0.0,0.0,0.0,0.0,0.0,0.0,0.0,0.0,0.0,0.0,0.0,0.0,0.0,0.0,0.0,0.0,0.0,0.0,0.0,0.0,0.0,0.0,0.0,0.0,0.0,0.0,0.0,0.0,0.0,0.0,0.0,0.0,0.0,0.0,0.0,0.0,0.0,0.0,0.0,0.0,0.0,0.0,0.0,0.0,0.0,0.0,0.0,0.0,0.0,0.0,0.0,0.0,0.0,0.0,0.7753,0.7841,0.7963,0.8031,0.8126,0.8241,0.8287,0.7177,0.4875,0.0607,0.0,0.0,0.0,0.0,0.0,0.0,0.0,0.0,0.0,0.0,0.0,0.0,0.0,0.0,0.0,0.0,0.0,0.0,0.0,0.0,0.0,0.0,0.0,0.0,0.0,0.0,0.0,0.0,0.0,0.0,0.0,0.0,0.0,0.0,0.0,0.0,0.0,0.0,0.0,0.0,0.0,0.0,0.0,0.0,0.0,0.0,0.0,0.0,0.0,0.0,0.0,0.0,0.0,0.0,0.0,0.0,0.0,0.0,0.0,0.0,0.0,0.0,0.0,0.0,0.0,0.0,0.0,0.0,0.0,0.0,0.0,0.0,0.0,0.0,0.0,0.0,0.0,0.0,0.0,0.0,0.0,0.0,0.0,0.0,0.0,0.0,0.0,0.0,0.0,0.0,0.0,0.0,0.0,0.0,0.0,0.0,0.0,0.0,0.0,0.0,0.0,0.0,0.0,0.0,0.0,0.0,0.7896,0.7963,0.8038,0.8038,0.8174,0.8384,0.881,0.7231,0.4938,0.187,0.1525,0.1716,0.1981,0.0818,0.0,0.0,0.0,0.0,0.0,0.0,0.0,0.0,0.0,0.0,0.0,0.0,0.0,0.0,0.0,0.0,0.0,0.0,0.0,0.0,0.0,0.0,0.0,0.0,0.0,0.0,0.0,0.0,0.0,0.0,0.0,0.0,0.0,0.0,0.0,0.0,0.0,0.0,0.0,0.0,0.0,0.0,0.0,0.0,0.0,0.0,0.0,0.0,0.0,0.0,0.0,0.0,0.0,0.0,0.0,0.0,0.0,0.0,0.0,0.0,0.0,0.0,0.0,0.0,0.0,0.0,0.0,0.0,0.0,0.0,0.0,0.0,0.0,0.0,0.0,0.0,0.0,0.0,0.0,0.0,0.0,0.0,0.0,0.0,0.0,0.0,0.0,0.0,0.0,0.0,0.0,0.0,0.0,0.0,0.0,0.0,0.0,0.0,0.0,0.0,0.0,0.0,0.8031,0.8038,0.8038,0.8038,0.8174,0.8652,0.9659,0.9926,0.8895,0.5602,0.5433,0.599,0.6788,0.2773,0.0,0.0,0.0,0.0,0.0,0.0,0.0,0.0,0.0,0.0,0.0,0.0,0.0,0.0,0.0,0.0,0.0,0.0,0.0,0.0,0.0,0.0,0.0,0.0,0.0,0.0,0.0,0.0,0.0,0.0,0.0,0.0,0.0,0.0,0.0,0.0,0.0,0.0,0.0,0.0,0.0,0.0,0.0,0.0,0.0,0.0,0.0,0.0,0.0,0.0,0.0,0.0,0.0,0.0,0.0,0.0,0.0,0.0,0.0,0.0,0.0,0.0,0.0,0.0,0.0,0.0,0.0,0.0,0.0,0.0,0.0,0.0,0.0,0.0,0.0,0.0,0.0,0.0,0.0,0.0,0.0,0.0,0.0,0.0,0.0,0.0,0.0,0.0,0.0,0.0,0.0,0.0,0.0,0.0,0.0,0.0,0.0,0.0,0.0,0.0,0.0,0.0,0.8058,0.8038,0.8072,0.8174,0.8316,0.8676,0.9559,0.9943,1.0029,0.9502,0.9992,1.0492,1.123,1.0409,0.8441,0.5232,0.5053,0.4961,0.4738,0.178,0.0,0.0,0.0,0.0,0.0,0.0,0.0,0.0,0.0,0.0,0.0,0.0,0.0,0.0,0.0,0.0,0.0,0.0,0.0,0.0,0.0,0.0,0.0,0.0,0.0,0.0,0.0,0.0,0.0,0.0,0.0,0.0,0.0,0.0,0.0,0.0,0.0,0.0,0.0,0.0,0.0,0.0,0.0,0.0,0.0,0.0,0.0,0.0,0.0,0.0,0.0,0.0,0.0,0.0,0.0,0.0,0.0,0.0,0.0,0.0,0.0,0.0,0.0,0.0,0.0,0.0,0.0,0.0,0.0,0.0,0.0,0.0,0.0,0.0,0.0,0.0,0.0,0.0,0.0,0.0,0.0,0.0,0.0,0.0,0.0,0.0,0.0,0.0,0.0,0.0,0.0,0.0,0.0,0.0,0.0,0.0,0.8214,0.8194,0.8214,0.8262,0.8567,0.9076,0.9883,1.0317,1.0778,1.1557,1.2178,1.2755,1.3214,1.4037,1.3392,1.0579,1.0397,1.0347,1.0063,0.701,0.5156,0.507,0.1754,0.0,0.0,0.0,0.0,0.0,0.0,0.0,0.0,0.0,0.0,0.0,0.0,0.0,0.0,0.0,0.0,0.0,0.0,0.0,0.0,0.0,0.0,0.0,0.0,0.0,0.0,0.0,0.0,0.0,0.0,0.0,0.0,0.0,0.0,0.0,0.0,0.0,0.0,0.0,0.0,0.0,0.0,0.0,0.0,0.0,0.0,0.0,0.0,0.0,0.0,0.0,0.0,0.0,0.0,0.0,0.0,0.0,0.0,0.0,0.0,0.0,0.0,0.0,0.0,0.0,0.0,0.0,0.0,0.0,0.0,0.0,0.0,0.0,0.0,0.0,0.0,0.0,0.0,0.0,0.0,0.0,0.0,0.0,0.0,0.0,0.0,0.0,0.0,0.0,0.0,0.0,0.0,0.0,0.8492,0.8506,0.8479,0.8357,0.8954,0.9734,1.0602,1.1111,1.147,1.1653,1.2433,1.299,1.303,1.3811,1.4639,1.5169,1.5385,1.5434,1.514,1.4833,1.4496,1.4345,0.5559,0.0665,0.0335,0.0152,0.0,0.0,0.0,0.0,0.0,0.0,0.0,0.0,0.0,0.0,0.0,0.0,0.0,0.0,0.0,0.0,0.0,0.0,0.0,0.0,0.0,0.0,0.0,0.0,0.0,0.0,0.0,0.0,0.0,0.0,0.0,0.0,0.0,0.0,0.0,0.0,0.0,0.0,0.0,0.0,0.0,0.0,0.0,0.0,0.0,0.0,0.0,0.0,0.0,0.0,0.0,0.0,0.0,0.0,0.0,0.0,0.0,0.0,0.0,0.0,0.0,0.0,0.0,0.0,0.0,0.0,0.0,0.0,0.0,0.0,0.0,0.0,0.0,0.0,0.0,0.0,0.0,0.0,0.0,0.0,0.0,0.0,0.0,0.0,0.0,0.0,0.0,0.0,0.0,0.0,0.8676,0.8832,0.9042,0.9232,0.9883,1.0493,1.0839,1.1274,1.1775,1.2366,1.284,1.337,1.4041,1.4624,1.5293,1.5452,1.5616,1.5574,1.5398,1.291,1.2421,1.4673,1.2249,0.9145,0.5363,0.1861,0.0,0.0,0.0,0.0,0.0,0.0,0.0,0.0,0.0,0.0,0.0,0.0,0.0,0.0,0.0,0.0,0.0,0.0,0.0,0.0,0.0,0.0,0.0,0.0,0.0,0.0,0.0,0.0,0.0,0.0,0.0,0.0,0.0,0.0,0.0,0.0,0.0,0.0,0.0,0.0,0.0,0.0,0.0,0.0,0.0,0.0,0.0,0.0,0.0,0.0,0.0,0.0,0.0,0.0,0.0,0.0,0.0,0.0,0.0,0.0,0.0,0.0,0.0,0.0,0.0,0.0,0.0,0.0,0.0,0.0,0.0,0.0,0.0,0.0,0.0,0.0,0.0,0.0,0.0,0.0,0.0,0.0,0.0,0.0,0.0,0.0,0.0,0.0,0.0,0.0,0.9035,0.9239,0.9544,0.9849,1.0575,1.1206,1.1491,1.2081,1.2718,1.3336,1.3844,1.4319,1.476,1.5343,1.5764,1.592,1.5988,1.5995,1.5927,1.4054,1.3709,1.5234,1.5033,1.3523,1.0656,0.7785,0.4304,0.0,0.0,0.0,0.0,0.0,0.0,0.0,0.0,0.0,0.0,0.0,0.0,0.0,0.0,0.0,0.0,0.0,0.0,0.0,0.0,0.0,0.0,0.0,0.0,0.0,0.0,0.0,0.0,0.0,0.0,0.0,0.0,0.0,0.0,0.0,0.0,0.0,0.0,0.0,0.0,0.0,0.0,0.0,0.0,0.0,0.0,0.0,0.0,0.0,0.0,0.0,0.0,0.0,0.0,0.0,0.0,0.0,0.0,0.0,0.0,0.0,0.0,0.0,0.0,0.0,0.0,0.0,0.0,0.0,0.0,0.0,0.0,0.0,0.0,0.0,0.0,0.0,0.0,0.0,0.0,0.0,0.0,0.0,0.0,0.0,0.0,0.0,0.0,0.0,0.9496,0.9707,0.9998,1.029,1.1084,1.185,1.2359,1.3098,1.3777,1.4265,1.4943,1.5337,1.5221,1.5771,1.6191,1.6327,1.6449,1.6537,1.6373,1.6429,1.6225,1.5783,1.5495,1.5267,1.4917,1.4864,1.0533,0.188,0.0575,0.0,0.0,0.0,0.0,0.0,0.0,0.0,0.0,0.0,0.0,0.0,0.0,0.0,0.0,0.0,0.0,0.0,0.0,0.0,0.0,0.0,0.0,0.0,0.0,0.0,0.0,0.0,0.0,0.0,0.0,0.0,0.0,0.0,0.0,0.0,0.0,0.0,0.0,0.0,0.0,0.0,0.0,0.0,0.0,0.0,0.0,0.0,0.0,0.0,0.0,0.0,0.0,0.0,0.0,0.0,0.0,0.0,0.0,0.0,0.0,0.0,0.0,0.0,0.0,0.0,0.0,0.0,0.0,0.0,0.0,0.0,0.0,0.0,0.0,0.0,0.0,0.0,0.0,0.0,0.0,0.0,0.0,0.0,0.0,0.0,0.0,0.0,0.9937,1.0168,1.0432,1.0609,1.1389,1.2264,1.3085,1.3342,1.3688,1.4387,1.4909,1.5262,1.5357,1.6015,1.6456,1.6483,1.651,1.6524,1.653,1.6503,1.6415,1.6246,1.6069,1.5845,1.5574,1.5251,1.4103,1.2121,0.3971,0.0,0.0,0.0,0.0,0.0,0.0,0.0,0.0,0.0,0.0,0.0,0.0,0.0,0.0,0.0,0.0,0.0,0.0,0.0,0.0,0.0,0.0,0.0,0.0,0.0,0.0,0.0,0.0,0.0,0.0,0.0,0.0,0.0,0.0,0.0,0.0,0.0,0.0,0.0,0.0,0.0,0.0,0.0,0.0,0.0,0.0,0.0,0.0,0.0,0.0,0.0,0.0,0.0,0.0,0.0,0.0,0.0,0.0,0.0,0.0,0.0,0.0,0.0,0.0,0.0,0.0,0.0,0.0,0.0,0.0,0.0,0.0,0.0,0.0,0.0,0.0,0.0,0.0,0.0,0.0,0.0,0.0,0.0,0.0,0.0,0.0,0.0,1.0487,1.069,1.0887,1.1043,1.1809,1.2684,1.3505,1.4027,1.4597,1.5343,1.5635,1.5886,1.6191,1.6476,1.6673,1.6754,1.6761,1.6761,1.6761,1.6761,1.6693,1.6544,1.6388,1.6171,1.5872,1.5574,1.5205,1.4305,0.7337,0.2606,0.0,0.0,0.0,0.0,0.0,0.0,0.0,0.0,0.0,0.0,0.0,0.0,0.0,0.0,0.0,0.0,0.0,0.0,0.0,0.0,0.0,0.0,0.0,0.0,0.0,0.0,0.0,0.0,0.0,0.0,0.0,0.0,0.0,0.0,0.0,0.0,0.0,0.0,0.0,0.0,0.0,0.0,0.0,0.0,0.0,0.0,0.0,0.0,0.0,0.0,0.0,0.0,0.0,0.0,0.0,0.0,0.0,0.0,0.0,0.0,0.0,0.0,0.0,0.0,0.0,0.0,0.0,0.0,0.0,0.0,0.0,0.0,0.0,0.0,0.0,0.0,0.0,0.0,0.0,0.0,0.0,0.0,0.0,0.0,0.0,0.0,1.1307,1.1572,1.1762,1.185,1.2556,1.3349,1.4061,1.4801,1.5527,1.6218,1.6368,1.6537,1.689,1.6849,1.6849,1.6971,1.6978,1.6978,1.6978,1.6978,1.6924,1.6802,1.6653,1.6442,1.6178,1.6029,1.5416,1.4422,1.0639,0.6012,0.0954,0.1346,0.1084,0.0,0.0,0.0,0.0,0.0,0.0,0.0,0.0,0.0,0.0,0.0,0.0,0.0,0.0,0.0,0.0,0.0,0.0,0.0,0.0,0.0,0.0,0.0,0.0,0.0,0.0,0.0,0.0,0.0,0.0,0.0,0.0,0.0,0.0,0.0,0.0,0.0,0.0,0.0,0.0,0.0,0.0,0.0,0.0,0.0,0.0,0.0,0.0,0.0,0.0,0.0,0.0,0.0,0.0,0.0,0.0,0.0,0.0,0.0,0.0,0.0,0.0,0.0,0.0,0.0,0.0,0.0,0.0,0.0,0.0,0.0,0.0,0.0,0.0,0.0,0.0,0.0,0.0,0.0,0.0,0.0,0.0,0.0,1.2684,1.3214,1.3553,1.3437,1.3933,1.455,1.5167,1.5452,1.5771,1.6246,1.6544,1.6727,1.6768,1.6883,1.6965,1.6978,1.6978,1.6978,1.6978,1.6978,1.6971,1.6958,1.6809,1.6653,1.6483,1.6341,1.614,1.5963,1.3415,0.9487,0.4174,0.6037,0.4446,0.0,0.0,0.0,0.0,0.0,0.0,0.0,0.0,0.0,0.0,0.0,0.0,0.0,0.0,0.0,0.0,0.0,0.0,0.0,0.0,0.0,0.0,0.0,0.0,0.0,0.0,0.0,0.0,0.0,0.0,0.0,0.0,0.0,0.0,0.0,0.0,0.0,0.0,0.0,0.0,0.0,0.0,0.0,0.0,0.0,0.0,0.0,0.0,0.0,0.0,0.0,0.0,0.0,0.0,0.0,0.0,0.0,0.0,0.0,0.0,0.0,0.0,0.0,0.0,0.0,0.0,0.0,0.0,0.0,0.0,0.0,0.0,0.0,0.0,0.0,0.0,0.0,0.0,0.0,0.0,0.0,0.0,0.0,1.3254,1.3695,1.3987,1.4027,1.4597,1.5167,1.5499,1.5981,1.6368,1.6551,1.6673,1.6788,1.6876,1.6944,1.6978,1.6978,1.6978,1.6978,1.6978,1.6978,1.6978,1.6978,1.6924,1.6815,1.6659,1.651,1.622,1.5737,1.4611,1.2501,0.9708,1.0202,0.8636,0.4927,0.1603,0.0,0.0,0.0,0.0,0.0,0.0,0.0,0.0,0.0,0.0,0.0,0.0,0.0,0.0,0.0,0.0,0.0,0.0,0.0,0.0,0.0,0.0,0.0,0.0,0.0,0.0,0.0,0.0,0.0,0.0,0.0,0.0,0.0,0.0,0.0,0.0,0.0,0.0,0.0,0.0,0.0,0.0,0.0,0.0,0.0,0.0,0.0,0.0,0.0,0.0,0.0,0.0,0.0,0.0,0.0,0.0,0.0,0.0,0.0,0.0,0.0,0.0,0.0,0.0,0.0,0.0,0.0,0.0,0.0,0.0,0.0,0.0,0.0,0.0,0.0,0.0,0.0,0.0,0.0,0.0,0.0,1.417,1.4597,1.4875,1.4943,1.5466,1.5906,1.6015,1.6483,1.6815,1.6815,1.6815,1.6863,1.6971,1.6978,1.6978,1.6978,1.6978,1.6978,1.6978,1.6978,1.6978,1.6978,1.6978,1.691,1.6754,1.6686,1.6354,1.5737,1.5181,1.4455,1.3585,1.3091,1.2071,1.054,0.6798,0.3107,0.0,0.0,0.0,0.0,0.0,0.0,0.0,0.0,0.0,0.0,0.0,0.0,0.0,0.0,0.0,0.0,0.0,0.0,0.0,0.0,0.0,0.0,0.0,0.0,0.0,0.0,0.0,0.0,0.0,0.0,0.0,0.0,0.0,0.0,0.0,0.0,0.0,0.0,0.0,0.0,0.0,0.0,0.0,0.0,0.0,0.0,0.0,0.0,0.0,0.0,0.0,0.0,0.0,0.0,0.0,0.0,0.0,0.0,0.0,0.0,0.0,0.0,0.0,0.0,0.0,0.0,0.0,0.0,0.0,0.0,0.0,0.0,0.0,0.0,0.0,0.0,0.0,0.0,0.0,0.0,1.5737,1.6307,1.6673,1.6524,1.6754,1.6965,1.6965,1.6971,1.6978,1.6978,1.6978,1.6978,1.6978,1.6978,1.6978,1.6978,1.6978,1.6978,1.6978,1.6978,1.6978,1.6978,1.6978,1.691,1.6754,1.6897,1.6822,1.651,1.5757,1.5167,1.4726,1.4084,1.458,1.6117,1.6536,1.0522,0.0,0.0,0.0,0.0,0.0,0.0,0.0,0.0,0.0,0.0,0.0,0.0,0.0,0.0,0.0,0.0,0.0,0.0,0.0,0.0,0.0,0.0,0.0,0.0,0.0,0.0,0.0,0.0,0.0,0.0,0.0,0.0,0.0,0.0,0.0,0.0,0.0,0.0,0.0,0.0,0.0,0.0,0.0,0.0,0.0,0.0,0.0,0.0,0.0,0.0,0.0,0.0,0.0,0.0,0.0,0.0,0.0,0.0,0.0,0.0,0.0,0.0,0.0,0.0,0.0,0.0,0.0,0.0,0.0,0.0,0.0,0.0,0.0,0.0,0.0,0.0,0.0,0.0,0.0,0.0,1.6076,1.6395,1.6612,1.6666,1.6761,1.6856,1.6965,1.6978,1.6978,1.6978,1.6978,1.6978,1.6978,1.6978,1.6978,1.6978,1.6978,1.6978,1.6978,1.6978,1.6978,1.6978,1.6978,1.6958,1.691,1.6849,1.6829,1.6836,1.5981,1.5493,1.5357,1.5482,1.5884,1.6558,1.6659,1.4886,1.0993,0.3392,0.0,0.0,0.0,0.0,0.0,0.0,0.0,0.0,0.0,0.0,0.0,0.0,0.0,0.0,0.0,0.0,0.0,0.0,0.0,0.0,0.0,0.0,0.0,0.0,0.0,0.0,0.0,0.0,0.0,0.0,0.0,0.0,0.0,0.0,0.0,0.0,0.0,0.0,0.0,0.0,0.0,0.0,0.0,0.0,0.0,0.0,0.0,0.0,0.0,0.0,0.0,0.0,0.0,0.0,0.0,0.0,0.0,0.0,0.0,0.0,0.0,0.0,0.0,0.0,0.0,0.0,0.0,0.0,0.0,0.0,0.0,0.0,0.0,0.0,0.0,0.0,0.0,0.0,1.6422,1.6592,1.6727,1.6822,1.6836,1.687,1.6965,1.6978,1.6978,1.6978,1.6978,1.6978,1.6978,1.6978,1.6978,1.6978,1.6978,1.6978,1.6978,1.6978,1.6978,1.6978,1.6978,1.6978,1.6978,1.689,1.6883,1.6978,1.6415,1.6083,1.5981,1.6408,1.6659,1.6754,1.6781,1.6883,1.6604,0.9345,0.3823,0.0,0.0,0.0,0.0,0.0,0.0,0.0,0.0,0.0,0.0,0.0,0.0,0.0,0.0,0.0,0.0,0.0,0.0,0.0,0.0,0.0,0.0,0.0,0.0,0.0,0.0,0.0,0.0,0.0,0.0,0.0,0.0,0.0,0.0,0.0,0.0,0.0,0.0,0.0,0.0,0.0,0.0,0.0,0.0,0.0,0.0,0.0,0.0,0.0,0.0,0.0,0.0,0.0,0.0,0.0,0.0,0.0,0.0,0.0,0.0,0.0,0.0,0.0,0.0,0.0,0.0,0.0,0.0,0.0,0.0,0.0,0.0,0.0,0.0,0.0,0.0,0.0,1.6768,1.6883,1.6978,1.6978,1.6978,1.6978,1.6978,1.6978,1.6978,1.6978,1.6978,1.6978,1.6978,1.6978,1.6978,1.6978,1.6978,1.6978,1.6978,1.6978,1.6978,1.6978,1.6978,1.6978,1.6978,1.6978,1.6978,1.6978,1.6978,1.6836,1.6558,1.67,1.6768,1.6768,1.6768,1.6863,1.7032,1.708,1.064,0.0637,0.0213,0.0,0.0,0.0,0.0,0.0,0.0,0.0,0.0,0.0,0.0,0.0,0.0,0.0,0.0,0.0,0.0,0.0,0.0,0.0,0.0,0.0,0.0,0.0,0.0,0.0,0.0,0.0,0.0,0.0,0.0,0.0,0.0,0.0,0.0,0.0,0.0,0.0,0.0,0.0,0.0,0.0,0.0,0.0,0.0,0.0,0.0,0.0,0.0,0.0,0.0,0.0,0.0,0.0,0.0,0.0,0.0,0.0,0.0,0.0,0.0,0.0,0.0,0.0,0.0,0.0,0.0,0.0,0.0,0.0,0.0,0.0,0.0,0.0,0.0,0.0,1.6924,1.6958,1.6978,1.6978,1.6978,1.6978,1.6978,1.6978,1.6978,1.6978,1.6978,1.6978,1.6978,1.6978,1.6978,1.6978,1.6978,1.6978,1.6978,1.6978,1.6978,1.6978,1.6978,1.6978,1.6978,1.6978,1.6978,1.6978,1.6978,1.6944,1.687,1.691,1.6924,1.6924,1.6924,1.6951,1.6998,1.7073,1.2989,0.6152,0.1702,0.0,0.0,0.0,0.0,0.0,0.0,0.0,0.0,0.0,0.0,0.0,0.0,0.0,0.0,0.0,0.0,0.0,0.0,0.0,0.0,0.0,0.0,0.0,0.0,0.0,0.0,0.0,0.0,0.0,0.0,0.0,0.0,0.0,0.0,0.0,0.0,0.0,0.0,0.0,0.0,0.0,0.0,0.0,0.0,0.0,0.0,0.0,0.0,0.0,0.0,0.0,0.0,0.0,0.0,0.0,0.0,0.0,0.0,0.0,0.0,0.0,0.0,0.0,0.0,0.0,0.0,0.0,0.0,0.0,0.0,0.0,0.0,0.0,0.0,0.0,1.6978,1.6978,1.6978,1.6978,1.6978,1.6978,1.6978,1.6978,1.6978,1.6978,1.6978,1.6978,1.6978,1.6978,1.6978,1.6978,1.6978,1.6978,1.6978,1.6978,1.6978,1.6978,1.6978,1.6978,1.6978,1.6978,1.6978,1.6978,1.6978,1.6978,1.6978,1.6978,1.6978,1.6978,1.6978,1.6992,1.7005,1.7073,1.5157,1.1718,0.3407,0.0,0.0,0.0,0.0,0.0,0.0,0.0,0.0,0.0,0.0,0.0,0.0,0.0,0.0,0.0,0.0,0.0,0.0,0.0,0.0,0.0,0.0,0.0,0.0,0.0,0.0,0.0,0.0,0.0,0.0,0.0,0.0,0.0,0.0,0.0,0.0,0.0,0.0,0.0,0.0,0.0,0.0,0.0,0.0,0.0,0.0,0.0,0.0,0.0,0.0,0.0,0.0,0.0,0.0,0.0,0.0,0.0,0.0,0.0,0.0,0.0,0.0,0.0,0.0,0.0,0.0,0.0,0.0,0.0,0.0,0.0,0.0,0.0,0.0,0.0,1.6978,1.6978,1.6978,1.6978,1.6978,1.6978,1.6978,1.6978,1.6978,1.6978,1.6978,1.6978,1.6978,1.6978,1.6978,1.6978,1.6978,1.6978,1.6978,1.6978,1.6978,1.6978,1.6978,1.6978,1.6978,1.6978,1.6978,1.6978,1.6978,1.6978,1.6978,1.6978,1.6978,1.6978,1.6978,1.6998,1.7032,1.708,1.6915,1.608,0.4689,0.0,0.0,0.0,0.0,0.0,0.0,0.0,0.0,0.0,0.0,0.0,0.0,0.0,0.0,0.0,0.0,0.0,0.0,0.0,0.0,0.0,0.0,0.0,0.0,0.0,0.0,0.0,0.0,0.0,0.0,0.0,0.0,0.0,0.0,0.0,0.0,0.0,0.0,0.0,0.0,0.0,0.0,0.0,0.0,0.0,0.0,0.0,0.0,0.0,0.0,0.0,0.0,0.0,0.0,0.0,0.0,0.0,0.0,0.0,0.0,0.0,0.0,0.0,0.0,0.0,0.0,0.0,0.0,0.0,0.0,0.0,0.0,0.0,0.0,0.0,1.6978,1.6978,1.6978,1.6978,1.6978,1.6978,1.6978,1.6978,1.6978,1.6978,1.6978,1.6978,1.6978,1.6978,1.6978,1.6978,1.6978,1.6978,1.6978,1.6978,1.6978,1.6978,1.6978,1.6978,1.6978,1.6978,1.6978,1.6978,1.6978,1.6978,1.6978,1.6978,1.6978,1.6978,1.6978,1.6998,1.7032,1.708,1.6915,1.608,0.4689,0.0,0.0,0.0,0.0,0.0,0.0,0.0,0.0,0.0,0.0,0.0,0.0,0.0,0.0,0.0,0.0,0.0,0.0,0.0,0.0,0.0,0.0,0.0,0.0,0.0,0.0,0.0,0.0,0.0,0.0,0.0,0.0,0.0,0.0,0.0,0.0,0.0,0.0,0.0,0.0,0.0,0.0,0.0,0.0,0.0,0.0,0.0,0.0,0.0,0.0,0.0,0.0,0.0,0.0,0.0,0.0,0.0,0.0,0.0,0.0,0.0,0.0,0.0,0.0,0.0,0.0,0.0,0.0,0.0,0.0,0.0,0.0,0.0,0.0,0.0,1.6978,1.6978,1.6978,1.6978,1.6978,1.6978,1.6978,1.6978,1.6978,1.6978,1.6978,1.6978,1.6978,1.6978,1.6978,1.6978,1.6978,1.6978,1.6978,1.6978,1.6978,1.6978,1.6978,1.6978,1.6978,1.6978,1.6978,1.6978,1.6978,1.6978,1.6978,1.6978,1.6978,1.6978,1.6978,1.7012,1.7073,1.7093,1.345,0.7464,0.2131,0.0,0.0,0.0,0.0,0.0,0.0,0.0,0.0,0.0,0.0,0.0,0.0,0.0,0.0,0.0,0.0,0.0,0.0,0.0,0.0,0.0,0.0,0.0,0.0,0.0,0.0,0.0,0.0,0.0,0.0,0.0,0.0,0.0,0.0,0.0,0.0,0.0,0.0,0.0,0.0,0.0,0.0,0.0,0.0,0.0,0.0,0.0,0.0,0.0,0.0,0.0,0.0,0.0,0.0,0.0,0.0,0.0,0.0,0.0,0.0,0.0,0.0,0.0,0.0,0.0,0.0,0.0,0.0,0.0,0.0,0.0,0.0,0.0,0.0,0.0,1.6978,1.6978,1.6978,1.6978,1.6978,1.6978,1.6978,1.6978,1.6978,1.6978,1.6978,1.6978,1.6978,1.6978,1.6978,1.6978,1.6978,1.6978,1.6978,1.6978,1.6978,1.6978,1.6978,1.6978,1.6978,1.6978,1.6978,1.6978,1.6978,1.6978,1.6978,1.6978,1.6978,1.6978,1.6978,1.7026,1.6882,1.4069,0.8083,0.0,0.0,0.0,0.0,0.0,0.0,0.0,0.0,0.0,0.0,0.0,0.0,0.0,0.0,0.0,0.0,0.0,0.0,0.0,0.0,0.0,0.0,0.0,0.0,0.0,0.0,0.0,0.0,0.0,0.0,0.0,0.0,0.0,0.0,0.0,0.0,0.0,0.0,0.0,0.0,0.0,0.0,0.0,0.0,0.0,0.0,0.0,0.0,0.0,0.0,0.0,0.0,0.0,0.0,0.0,0.0,0.0,0.0,0.0,0.0,0.0,0.0,0.0,0.0,0.0,0.0,0.0,0.0,0.0,0.0,0.0,0.0,0.0,0.0,0.0,0.0,0.0,1.6978,1.6978,1.6978,1.6978,1.6978,1.6978,1.6978,1.6978,1.6978,1.6978,1.6978,1.6978,1.6978,1.6978,1.6978,1.6978,1.6978,1.6978,1.6978,1.6978,1.6978,1.6978,1.6978,1.6978,1.6978,1.6978,1.6978,1.6978,1.6978,1.6978,1.6978,1.6978,1.6978,1.6978,1.6978,1.7026,1.6234,0.5721,0.0849,0.0,0.0,0.0,0.0,0.0,0.0,0.0,0.0,0.0,0.0,0.0,0.0,0.0,0.0,0.0,0.0,0.0,0.0,0.0,0.0,0.0,0.0,0.0,0.0,0.0,0.0,0.0,0.0,0.0,0.0,0.0,0.0,0.0,0.0,0.0,0.0,0.0,0.0,0.0,0.0,0.0,0.0,0.0,0.0,0.0,0.0,0.0,0.0,0.0,0.0,0.0,0.0,0.0,0.0,0.0,0.0,0.0,0.0,0.0,0.0,0.0,0.0,0.0,0.0,0.0,0.0,0.0,0.0,0.0,0.0,0.0,0.0,0.0,0.0,0.0,0.0,0.0,1.6978,1.6978,1.6978,1.6978,1.6978,1.6978,1.6978,1.6978,1.6978,1.6978,1.6978,1.6978,1.6978,1.6978,1.6978,1.6978,1.6978,1.6978,1.6978,1.6978,1.6978,1.6978,1.6978,1.6978,1.6978,1.6978,1.6978,1.6978,1.6978,1.6978,1.6978,1.6978,1.6978,1.6978,1.6978,1.7026,1.6234,0.4871,0.0,0.0,0.0,0.0,0.0,0.0,0.0,0.0,0.0,0.0,0.0,0.0,0.0,0.0,0.0,0.0,0.0,0.0,0.0,0.0,0.0,0.0,0.0,0.0,0.0,0.0,0.0,0.0,0.0,0.0,0.0,0.0,0.0,0.0,0.0,0.0,0.0,0.0,0.0,0.0,0.0,0.0,0.0,0.0,0.0,0.0,0.0,0.0,0.0,0.0,0.0,0.0,0.0,0.0,0.0,0.0,0.0,0.0,0.0,0.0,0.0,0.0,0.0,0.0,0.0,0.0,0.0,0.0,0.0,0.0,0.0,0.0,0.0,0.0,0.0,0.0,0.0,0.0,1.6978,1.6978,1.6978,1.6978,1.6978,1.6978,1.6978,1.6978,1.6978,1.6978,1.6978,1.6978,1.6978,1.6978,1.6978,1.6978,1.6978,1.6978,1.6978,1.6978,1.6978,1.6978,1.6978,1.6978,1.6978,1.6978,1.6978,1.6978,1.6978,1.6978,1.6978,1.6978,1.6978,1.6978,1.6978,1.7019,1.6215,0.4869,0.0,0.0,0.0,0.0,0.0,0.0,0.0,0.0,0.0,0.0,0.0,0.0,0.0,0.0,0.0,0.0,0.0,0.0,0.0,0.0,0.0,0.0,0.0,0.0,0.0,0.0,0.0,0.0,0.0,0.0,0.0,0.0,0.0,0.0,0.0,0.0,0.0,0.0,0.0,0.0,0.0,0.0,0.0,0.0,0.0,0.0,0.0,0.0,0.0,0.0,0.0,0.0,0.0,0.0,0.0,0.0,0.0,0.0,0.0,0.0,0.0,0.0,0.0,0.0,0.0,0.0,0.0,0.0,0.0,0.0,0.0,0.0,0.0,0.0,0.0,0.0,0.0,-0.0423,1.6978,1.6978,1.6978,1.6978,1.6978,1.6978,1.6978,1.6978,1.6978,1.6978,1.6978,1.6978,1.6978,1.6978,1.6978,1.6978,1.6978,1.6978,1.6978,1.6978,1.6978,1.6978,1.6978,1.6978,1.6978,1.6978,1.6978,1.6978,1.6978,1.6978,1.6978,1.6978,1.6978,1.6978,1.6978,1.6998,1.6169,0.4867,0.0,0.0,0.0,0.0,0.0,0.0,0.0,0.0,0.0,0.0,0.0,0.0,0.0,0.0,0.0,0.0,0.0,0.0,0.0,0.0,0.0,0.0,0.0,0.0,0.0,0.0,0.0,0.0,0.0,0.0,0.0,0.0,0.0,0.0,0.0,0.0,0.0,0.0,0.0,0.0,0.0,0.0,0.0,0.0,0.0,0.0,0.0,0.0,0.0,0.0,0.0,0.0,0.0,0.0,0.0,0.0,0.0,0.0,0.0,0.0,0.0,0.0,0.0,0.0,0.0,0.0,0.0,0.0,0.0,0.0,0.0,0.0,0.0,0.0,0.0,0.0,0.0,-0.1705,1.6978,1.6978,1.6978,1.6978,1.6978,1.6978,1.6978,1.6978,1.6978,1.6978,1.6978,1.6978,1.6978,1.6978,1.6978,1.6978,1.6978,1.6978,1.6978,1.6978,1.6978,1.6978,1.6978,1.6978,1.6978,1.6978,1.6978,1.6978,1.6978,1.6978,1.6978,1.6978,1.6978,1.6978,1.6978,1.6998,1.6815,1.3401,0.722,0.0,0.0,0.0,0.0,0.0,0.0,0.0,0.0,0.0,0.0,0.0,0.0,0.0,0.0,0.0,0.0,0.0,0.0,0.0,0.0,0.0,0.0,0.0,0.0,0.0,0.0,0.0,0.0,0.0,0.0,0.0,0.0,0.0,0.0,0.0,0.0,0.0,0.0,0.0,0.0,0.0,0.0,0.0,0.0,0.0,0.0,0.0,0.0,0.0,0.0,0.0,0.0,0.0,0.0,0.0,0.0,0.0,0.0,0.0,0.0,0.0,0.0,0.0,0.0,0.0,0.0,0.0,0.0,0.0,0.0,0.0,0.0,0.0,0.0,0.0,0.0,-0.1701,1.6978,1.6978,1.6978,1.6978,1.6978,1.6978,1.6978,1.6978,1.6978,1.6978,1.6978,1.6978,1.6978,1.6978,1.6978,1.6978,1.6978,1.6978,1.6978,1.6978,1.6978,1.6978,1.6978,1.6978,1.6978,1.6978,1.6978,1.6978,1.6978,1.6978,1.6978,1.6978,1.6978,1.6978,1.6978,1.6992,1.7012,1.7053,1.0403,0.0,0.0,0.0,0.0,0.0,0.276,0.6172,0.17,0.0,0.0,0.0,0.0,0.0,0.0,0.0,0.0,0.0,0.0,0.0,0.0,0.0,0.0,0.0,0.0,0.0,0.0,0.0,0.0,0.0,0.0,0.0,0.0,0.0,0.0,0.0,0.0,0.0,0.0,0.0,0.0,0.0,0.0,0.0,0.0,0.0,0.0,0.0,0.0,0.0,0.0,0.0,0.0,0.0,0.0,0.0,0.0,0.0,0.0,0.0,0.0,0.0,0.0,0.0,0.0,0.0,0.0,0.0,0.0,0.0,0.0,0.0,0.0,0.0,0.0,0.0,-0.2766,-0.7662,1.6978,1.6978,1.6978,1.6978,1.6978,1.6978,1.6978,1.6978,1.6978,1.6978,1.6978,1.6978,1.6978,1.6978,1.6978,1.6978,1.6978,1.6978,1.6978,1.6978,1.6978,1.6978,1.6978,1.6978,1.6978,1.6978,1.6978,1.6978,1.6978,1.6978,1.6978,1.6978,1.6978,1.6978,1.6978,1.6978,1.6985,1.7019,1.1006,0.1476,0.148,0.1482,0.1482,0.1481,0.8058,1.5586,0.5311,0.085,0.0,0.0,0.0,0.0,0.0,0.0,0.0,0.0,0.0,0.0,0.0,0.0,0.0,0.0,0.0,0.0,0.0,0.0,0.0,0.0,0.0,0.0,0.0,0.0,0.0,0.0,0.0,0.0,0.0,0.0,0.0,0.0,0.0,0.0,0.0,0.0,0.0,0.0,0.0,0.0,0.0,0.0,0.0,0.0,0.0,0.0,0.0,0.0,0.0,0.0,0.0,0.0,0.0,0.0,0.0,0.0,0.0,0.0,0.0,0.0,0.0,0.0,0.0,0.0,-0.0213,-0.1063,-0.8093,-1.6936,1.6978,1.6978,1.6978,1.6978,1.6978,1.6978,1.6978,1.6978,1.6978,1.6978,1.6978,1.6978,1.6978,1.6978,1.6978,1.6978,1.6978,1.6978,1.6978,1.6978,1.6978,1.6978,1.6978,1.6978,1.6978,1.6978,1.6978,1.6978,1.6978,1.6978,1.6978,1.6978,1.6978,1.6978,1.6978,1.6978,1.6985,1.7019,1.5518,1.3364,1.3401,1.3412,1.3412,1.3385,1.4903,1.667,1.4286,0.765,0.0,0.0,0.0,0.0,0.0,0.0,0.0,0.0,0.0,0.0,0.0,0.0,0.0,0.0,0.0,0.0,0.0,0.0,0.0,0.0,0.0,0.0,0.0,0.0,0.0,0.0,0.0,0.0,0.0,0.0,0.0,0.0,0.0,0.0,0.0,0.0,0.0,0.0,0.0,0.0,0.0,0.0,0.0,0.0,0.0,0.0,0.0,0.0,0.0,0.0,0.0,0.0,0.0,0.0,0.0,0.0,0.0,0.0,0.0,0.0,0.0,0.0,0.0,0.0,-0.1066,-1.0028,-1.4969,-1.7107,1.6978,1.6978,1.6978,1.6978,1.6978,1.6978,1.6978,1.6978,1.6978,1.6978,1.6978,1.6978,1.6978,1.6978,1.6978,1.6978,1.6978,1.6978,1.6978,1.6978,1.6978,1.6978,1.6978,1.6978,1.6978,1.6978,1.6978,1.6978,1.6978,1.6978,1.6978,1.6978,1.6978,1.6978,1.6978,1.6978,1.6985,1.6998,1.7005,1.7012,1.7032,1.7046,1.7039,1.7019,1.7019,1.7046,1.7087,0.9576,0.0,0.0,0.0,0.0,0.0,0.0,0.0,0.0,0.0,0.0,0.0,0.0,0.0,0.0,0.0,0.0,0.0,0.0,0.0,0.0,0.0,0.0,0.0,0.0,0.0,0.0,0.0,0.0,0.0,0.0,0.0,0.0,0.0,0.0,0.0,0.0,0.0,0.0,0.0,0.0,0.0,0.0,0.0,0.0,0.0,0.0,0.0,0.0,0.0,0.0,0.0,0.0,0.0,0.0,0.0,0.0,0.0,0.0,0.0,0.0,0.0,0.0,0.0,0.0,-0.1278,-1.2813,-1.71,-1.7039,1.6978,1.6978,1.6978,1.6978,1.6978,1.6978,1.6978,1.6978,1.6978,1.6978,1.6978,1.6978,1.6978,1.6978,1.6978,1.6978,1.6978,1.6978,1.6978,1.6978,1.6978,1.6978,1.6978,1.6978,1.6978,1.6978,1.6978,1.6978,1.6978,1.6978,1.6978,1.6978,1.6978,1.6978,1.6978,1.6978,1.6978,1.6978,1.6978,1.6978,1.6978,1.6978,1.6978,1.6978,1.6978,1.6992,1.7073,0.9583,0.0,0.0,0.0,0.0,0.0,0.0,0.0,0.0,0.0,0.0,0.0,0.0,0.0,0.0,0.0,0.0,0.0,0.0,0.0,0.0,0.0,0.0,0.0,0.0,0.0,0.0,0.0,0.0,0.0,0.0,0.0,0.0,0.0,0.0,0.0,0.0,0.0,0.0,0.0,0.0,0.0,0.0,0.0,0.0,0.0,0.0,0.0,0.0,0.0,0.0,0.0,0.0,0.0,0.0,0.0,0.0,0.0,0.0,0.0,0.0,0.0,0.0,0.0,0.0,-0.128,-1.2793,-1.706,-1.7019,1.6978,1.6978,1.6978,1.6978,1.6978,1.6978,1.6978,1.6978,1.6978,1.6978,1.6978,1.6978,1.6978,1.6978,1.6978,1.6978,1.6978,1.6978,1.6978,1.6978,1.6978,1.6978,1.6978,1.6978,1.6978,1.6978,1.6978,1.6978,1.6978,1.6978,1.6978,1.6978,1.6978,1.6978,1.6978,1.6978,1.6978,1.6978,1.6978,1.6978,1.6978,1.6978,1.6978,1.6978,1.6978,1.6992,1.7073,0.9583,0.0,0.0,0.0,0.0,0.0,0.0,0.0,0.0,0.0,0.0,0.0,0.0,0.0,0.0,0.0,0.0,0.0,0.0,0.0,0.0,0.0,0.0,0.0,0.0,0.0,0.0,0.0,0.0,0.0,0.0,0.0,0.0,0.0,0.0,0.0,0.0,0.0,0.0,0.0,0.0,0.0,0.0,0.0,0.0,0.0,0.0,0.0,0.0,0.0,0.0,0.0,0.0,0.0,0.0,0.0,0.0,0.0,0.0,0.0,0.0,0.0,0.0,0.0,0.0,-0.1289,-1.2787,-1.7093,-1.6949,1.6978,1.6978,1.6978,1.6978,1.6978,1.6978,1.6978,1.6978,1.6978,1.6978,1.6978,1.6978,1.6978,1.6978,1.6978,1.6978,1.6978,1.6978,1.6978,1.6978,1.6978,1.6978,1.6978,1.6978,1.6978,1.6978,1.6978,1.6978,1.6978,1.6978,1.6978,1.6978,1.6978,1.6978,1.6978,1.6978,1.6978,1.6978,1.6978,1.6978,1.6978,1.6978,1.6978,1.6978,1.6978,1.6124,0.9749,0.4248,0.0,0.0,0.0,0.0,0.0,0.0,0.0,0.0,0.0,0.0,0.0,0.0,0.0,0.0,0.0,0.0,0.0,0.0,0.0,0.0,0.0,0.0,0.0,0.0,0.0,0.0,0.0,0.0,0.0,0.0,0.0,0.0,0.0,0.0,0.0,0.0,0.0,0.0,0.0,0.0,0.0,0.0,0.0,0.0,0.0,0.0,0.0,0.0,0.0,0.0,0.0,0.0,0.0,0.0,0.0,0.0,0.0,0.0,0.0,0.0,0.0,-0.066,-0.6946,-0.9487,-1.0104,-1.5229,-1.7009,-1.7096]}]]